Date StartTime U_cm/s V_cm/s W_cm/s Ustd_cm/s Vstd_cm/s Wstd_cm/s Uvar_(cm/s)^2 Vvar_(cm/s)^2 Wvar_(cm/s)^2 KE_(m/s)^2 TurbulentKE_(m/s)^2 HorizWindSpeed_cm/s FrictionSpeec_cm/s DragCoef SpeedOfSound_m/s SonicTemperature_C Pressure_mb 
11/04/2014  00:00:00      -97.985      -74.091      -22.109       22.788       41.828       18.713      519.296     1749.582      350.181        0.910        0.131      122.843       14.218        0.013      333.491        2.838      869.912
11/04/2014  00:01:00      -94.843      -37.039       -4.141       27.756       27.683       17.217      770.370      766.356      296.428        0.611        0.092      101.819       15.224        0.022      333.468        2.801      869.899
11/04/2014  00:02:00      -75.071      -50.781        3.442       44.174       22.630       20.826     1951.365      512.116      433.703        0.556        0.145       90.633       21.584        0.057      333.459        2.787      869.889
11/04/2014  00:03:00      -90.840      -59.960       -2.764       41.117       44.732       23.517     1690.632     2000.930      553.040        0.805        0.212      108.844       24.616        0.051      333.429        2.737      869.884
11/04/2014  00:04:00     -102.405      -85.743      -11.435       50.627       34.662       29.056     2563.128     1201.456      844.222        1.129        0.230      133.562       27.458        0.042      333.362        2.626      869.862
11/04/2014  00:05:00      -79.436      -90.384       -7.916       52.170       40.874       30.733     2721.718     1670.670      944.511        0.994        0.267      120.330       20.316        0.029      333.339        2.590      869.839
11/04/2014  00:06:00      -61.017      -46.595        8.332       62.508       35.718       32.467     3907.229     1275.747     1054.108        0.610        0.312       76.773       33.338        0.189      333.349        2.605      869.806
11/04/2014  00:07:00     -117.457      -67.509       -2.606       66.992       55.334       36.718     4487.871     3061.899     1348.209        1.363        0.445      135.476       33.495        0.061      333.264        2.465      869.788
11/04/2014  00:08:00     -132.833      -92.723      -20.268       48.812       33.475       27.651     2382.581     1120.571      764.598        1.546        0.213      161.995       14.888        0.008      333.232        2.411      869.788
11/04/2014  00:09:00     -151.284     -126.623      -21.166       58.638       39.042       29.604     3438.419     1524.249      876.412        2.260        0.292      197.282       22.157        0.013      333.176        2.318      869.796
11/04/2014  00:10:00     -148.958     -129.808      -13.178       43.866       36.219       30.064     1924.209     1311.849      903.817        2.168        0.207      197.582       29.369        0.022      333.151        2.276      869.800
11/04/2014  00:11:00     -133.174     -118.030        2.927       36.836       36.824       29.934     1356.925     1356.021      896.045        1.764        0.180      177.951       26.074        0.021      333.167        2.305      869.807
11/04/2014  00:12:00     -112.231     -108.346        2.040       51.682       45.229       31.312     2671.027     2045.664      980.470        1.502        0.285      155.996       33.466        0.046      333.184        2.331      869.821
11/04/2014  00:13:00      -99.806     -107.880        2.118       56.684       46.750       30.071     3213.061     2185.606      904.280        1.395        0.315      146.968       33.056        0.051      333.161        2.294      869.847
11/04/2014  00:14:00     -104.779      -56.670        6.428       70.721       39.223       27.718     5001.526     1538.475      768.307        1.077        0.365      119.122       27.374        0.053      333.212        2.377      869.867
11/04/2014  00:15:00     -118.218      -56.875       -0.475       48.265       24.560       24.711     2329.512      603.182      610.626        1.038        0.177      131.188       22.563        0.030      333.228        2.404      869.880
11/04/2014  00:16:00     -111.152      -52.498        4.033       43.972       31.533       23.409     1933.528      994.325      547.963        0.930        0.174      122.926       24.210        0.039      333.147        2.271      869.892
11/04/2014  00:17:00     -131.934      -56.833        0.581       39.642       28.996       20.540     1571.463      840.790      421.888        1.173        0.142      143.654       22.128        0.024      333.157        2.287      869.890
11/04/2014  00:18:00     -119.658      -53.393       -3.261       45.752       31.189       21.865     2093.252      972.735      478.084        1.036        0.177      131.030       20.970        0.026      333.216        2.384      869.891
11/04/2014  00:19:00     -104.006      -33.152       -6.253       37.116       45.325       20.235     1377.610     2054.400      409.459        0.790        0.192      109.161       18.858        0.030      333.185        2.333      869.908
11/04/2014  00:20:00     -114.148      -33.028       -7.068       23.769       20.644       16.324      564.969      426.186      266.462        0.771        0.063      118.830       13.858        0.014      333.183        2.330      869.941
11/04/2014  00:21:00     -120.045      -60.581        1.857       31.630       25.604       17.785     1000.478      655.577      316.318        1.003        0.099      134.465        7.266        0.003      333.172        2.312      869.968
11/04/2014  00:22:00     -125.069      -29.686      -11.746       21.667       23.651       17.168      469.474      559.359      294.740        0.899        0.066      128.544        9.076        0.005      333.125        2.236      869.986
11/04/2014  00:23:00     -103.439      -31.710        0.611       29.288       19.017       16.938      857.810      361.654      286.900        0.661        0.075      108.190       15.442        0.020      333.102        2.196      869.997
11/04/2014  00:24:00     -123.486      -32.934       -0.269       21.753       19.320       13.999      473.210      373.258      195.984        0.869        0.052      127.803       14.936        0.014      333.126        2.236      870.002
11/04/2014  00:25:00     -108.460      -37.371        1.563       25.569       18.140       17.734      653.750      329.076      314.494        0.723        0.065      114.718       16.889        0.022      333.096        2.186      870.012
11/04/2014  00:26:00      -85.084      -35.653       -0.264       27.468       21.387       17.563      754.471      457.390      308.462        0.502        0.076       92.252       17.526        0.036      333.096        2.187      870.019
11/04/2014  00:27:00      -64.426      -19.002       -5.272       21.149       19.045       14.158      447.270      362.729      200.449        0.277        0.051       67.170       13.884        0.043      333.139        2.257      870.014
11/04/2014  00:28:00      -73.191      -21.546       -7.930       11.794       12.605        9.155      139.106      158.883       83.810        0.313        0.019       76.296        4.616        0.004      333.082        2.165      869.991
11/04/2014  00:29:00      -61.545      -16.348       -6.468        9.716        8.197        7.666       94.396       67.184       58.767        0.216        0.011       63.679        4.140        0.004      333.098        2.191      869.958
11/04/2014  00:30:00      -59.213      -17.401      -11.064       10.268       11.778        7.533      105.431      138.717       56.750        0.212        0.015       61.717        4.189        0.005      333.125        2.235      869.941
11/04/2014  00:31:00      -57.479      -13.513      -12.357       17.338        9.912        9.541      300.611       98.239       91.035        0.206        0.024       59.046        7.591        0.017      333.159        2.291      869.940
11/04/2014  00:32:00      -46.794      -13.771       -3.175       15.500       13.455       12.778      240.255      181.035      163.277        0.149        0.029       48.778       10.080        0.043      333.175        2.319      869.937
11/04/2014  00:33:00      -47.956       -7.395       -6.880       11.623       10.828        9.638      135.087      117.249       92.892        0.137        0.017       48.523        7.292        0.023      333.204        2.365      869.946
11/04/2014  00:34:00      -35.101      -11.959       -4.648       11.427        7.393        6.536      130.587       54.649       42.720        0.081        0.011       37.083        2.913        0.006      333.197        2.353      869.946
11/04/2014  00:35:00      -28.277      -16.612       -2.918       10.940        8.885        5.045      119.693       78.952       25.456        0.065        0.011       32.795        2.958        0.008      333.282        2.494      869.934
11/04/2014  00:36:00       -8.029      -15.007       -6.468       10.939        6.625        8.507      119.663       43.892       72.372        0.028        0.012       17.020        7.590        0.199      333.329        2.574      869.917
11/04/2014  00:37:00       12.906       -2.023        3.492        7.726       10.332       10.267       59.698      106.744      105.412        0.023        0.014       13.064        6.533        0.250      333.315        2.549      869.888
11/04/2014  00:38:00        6.141        0.362        1.386        6.954       11.731        7.033       48.363      137.608       49.470        0.014        0.012        6.151        2.625        0.182      333.312        2.544      869.857
11/04/2014  00:39:00        3.867       -3.310        2.696        3.894        4.965        3.224       15.165       24.649       10.395        0.004        0.003        5.090        2.034        0.160      333.326        2.567      869.836
11/04/2014  00:40:00       11.847       -2.846        5.147        8.450        6.529        7.462       71.407       42.629       55.677        0.017        0.008       12.184        5.807        0.227      333.356        2.621      869.820
11/04/2014  00:41:00       16.524        5.618       -2.275       12.595        9.651        7.339      158.622       93.149       53.863        0.031        0.015       17.453        6.529        0.140      333.266        2.470      869.813
11/04/2014  00:42:00        9.477       15.075        2.114        9.375       13.877       10.372       87.899      192.567      107.577        0.035        0.019       17.807        4.097        0.053      333.291        2.509      869.792
11/04/2014  00:43:00        4.636        6.344        2.249       13.166       20.602        9.076      173.344      424.423       82.376        0.037        0.034        7.857        6.511        0.687      333.397        2.684      869.766
11/04/2014  00:44:00       -4.609      -12.880       -5.302       21.957        9.275        8.283      482.102       86.034       68.602        0.043        0.032       13.680        2.946        0.046      333.388        2.669      869.736
11/04/2014  00:45:00      -56.715      -31.959       -4.425       16.778       10.242        8.804      281.485      104.891       77.515        0.236        0.023       65.100        4.260        0.004      333.142        2.264      869.713
11/04/2014  00:46:00      -50.823      -35.211        2.408       39.713       27.921       15.344     1577.126      779.567      235.451        0.321        0.130       61.829       16.153        0.068      333.042        2.098      869.708
11/04/2014  00:47:00      -52.508      -45.184        7.759       49.939       25.937       18.106     2493.910      672.713      327.811        0.418        0.175       69.272       19.978        0.083      333.078        2.158      869.721
11/04/2014  00:48:00     -102.981      -65.902        6.567       46.276       27.225       24.934     2141.444      741.174      621.719        0.925        0.175      122.263       25.856        0.045      333.020        2.062      869.747
11/04/2014  00:49:00     -116.536      -55.085       -0.544       35.936       27.475       23.876     1291.430      754.862      570.060        0.962        0.131      128.899       17.165        0.018      333.029        2.078      869.774
11/04/2014  00:50:00     -105.469      -64.575        0.186       55.679       30.633       20.929     3100.130      938.379      438.014        0.988        0.224      123.668       17.828        0.021      333.052        2.114      869.788
11/04/2014  00:51:00      -75.557      -64.822       -4.301       47.832       35.342       22.344     2287.883     1249.068      499.242        0.698        0.202       99.552       26.000        0.068      333.015        2.054      869.773
11/04/2014  00:52:00     -101.156      -54.249       -8.175       32.206       36.188       19.114     1037.221     1309.552      365.354        0.798        0.136      114.785       12.986        0.013      332.990        2.011      869.744
11/04/2014  00:53:00      -73.316      -30.377        0.959       33.579       20.216       16.426     1127.559      408.671      269.817        0.405        0.090       79.360       14.915        0.035      332.911        1.883      869.704
11/04/2014  00:54:00      -73.389      -41.164       -5.160       34.400       27.382       16.204     1183.388      749.775      262.563        0.465        0.110       84.145       16.518        0.039      332.928        1.910      869.674
11/04/2014  00:55:00      -50.413      -32.892       -0.245       36.410       21.844       17.264     1325.696      477.170      298.033        0.286        0.105       60.194       17.627        0.086      332.907        1.877      869.665
11/04/2014  00:56:00      -79.699      -22.964       -5.860       21.145       15.142       11.938      447.115      229.293      142.505        0.387        0.041       82.941       11.749        0.020      332.852        1.786      869.664
11/04/2014  00:57:00      -57.922      -19.717       -3.217       36.569       22.538       11.766     1337.327      507.975      138.430        0.287        0.099       61.186       10.534        0.030      332.881        1.834      869.668
11/04/2014  00:58:00      -85.094      -15.546       -9.529       15.994       16.905       11.652      255.805      285.770      135.772        0.413        0.034       86.503        9.092        0.011      332.884        1.838      869.682
11/04/2014  00:59:00      -97.370      -27.217       -3.279       23.285       19.356       15.588      542.206      374.670      242.991        0.570        0.058      101.102       13.442        0.018      332.859        1.798      869.687
11/04/2014  01:00:00      -91.052      -33.049       -1.841       27.255       22.964       15.309      742.836      527.366      234.365        0.545        0.075       96.865       17.238        0.032      332.816        1.726      869.691
11/04/2014  01:01:00     -111.865      -39.830       -2.899       17.673       17.769       11.014      312.333      315.755      121.304        0.743        0.037      118.744        7.291        0.004      332.790        1.682      869.692
11/04/2014  01:02:00      -75.453      -41.577       -1.252       28.877       24.784       19.015      833.888      614.261      361.585        0.462        0.090       86.150       18.185        0.045      332.796        1.693      869.696
11/04/2014  01:03:00      -58.339      -41.796       -9.202       18.402       13.125       11.489      338.622      172.278      131.989        0.294        0.032       71.766        8.232        0.013      332.839        1.764      869.691
11/04/2014  01:04:00      -94.185      -30.486      -11.835       12.675       14.299       10.983      160.649      204.456      120.636        0.521        0.024       98.996        5.500        0.003      332.828        1.746      869.686
11/04/2014  01:05:00      -86.576      -32.086       -9.250       17.837       17.844       10.398      318.161      318.406      108.112        0.468        0.037       92.331        8.113        0.008      332.845        1.773      869.684
11/04/2014  01:06:00      -79.346      -42.639       -5.714       20.838       19.551       12.026      434.209      382.254      144.627        0.455        0.048       90.077       10.733        0.014      332.894        1.856      869.685
11/04/2014  01:07:00      -66.120      -19.349       -4.422       25.769       20.056       13.722      664.046      402.261      188.294        0.301        0.063       68.893        9.368        0.018      332.831        1.750      869.676
11/04/2014  01:08:00      -84.669       -6.212       -7.016       23.682       17.338       13.352      560.855      300.604      178.269        0.415        0.052       84.896        9.506        0.013      332.804        1.705      869.664
11/04/2014  01:09:00      -51.472       -9.926       -3.566       30.463       16.783       12.162      927.973      281.655      147.912        0.206        0.068       52.420       10.654        0.041      332.802        1.703      869.648
11/04/2014  01:10:00      -33.787      -20.713        0.669       21.788       12.426        9.826      474.706      154.398       96.546        0.115        0.036       39.631        5.139        0.017      332.895        1.857      869.634
11/04/2014  01:11:00        9.220      -16.578        0.012        9.951        8.132       11.355       99.023       66.137      128.935        0.033        0.015       18.970        7.795        0.169      333.085        2.170      869.625
11/04/2014  01:12:00       -3.814       -0.145       -0.981        7.417        7.996        8.076       55.011       63.940       65.230        0.010        0.009        3.817        6.265        2.695      333.179        2.323      869.619
11/04/2014  01:13:00      -11.800       -4.522       -0.492        8.076        3.999        5.285       65.222       15.991       27.927        0.013        0.005       12.637        3.646        0.083      333.147        2.271      869.622
11/04/2014  01:14:00      -50.653      -18.357       -2.694       20.627       15.230        8.117      425.481      231.961       65.880        0.182        0.036       53.877        6.431        0.014      333.022        2.065      869.612
11/04/2014  01:15:00      -70.624      -37.709       -9.441       13.652       10.798        8.611      186.377      116.602       74.145        0.344        0.019       80.061        5.477        0.005      332.903        1.868      869.624
11/04/2014  01:16:00     -104.699      -15.721      -14.957       20.716       11.280       10.904      429.139      127.240      118.896        0.605        0.034      105.873       10.064        0.009      332.786        1.676      869.648
11/04/2014  01:17:00      -97.192      -19.521      -18.157       14.347       13.103       10.245      205.832      171.697      104.965        0.532        0.024       99.133        8.585        0.007      332.713        1.554      869.676
11/04/2014  01:18:00     -106.574      -26.059      -19.030       15.891       18.591       13.122      252.532      345.617      172.180        0.658        0.039      109.714       11.180        0.010      332.711        1.553      869.701
11/04/2014  01:19:00      -82.765      -42.586      -12.580       19.785       14.642       11.665      391.448      214.382      136.083        0.478        0.037       93.079        9.348        0.010      332.706        1.543      869.726
11/04/2014  01:20:00     -100.852      -41.686      -15.608       17.906       16.685       11.602      320.637      278.401      134.614        0.644        0.037      109.127        6.819        0.004      332.678        1.498      869.732
11/04/2014  01:21:00     -105.281      -48.928       -5.912       31.299       18.490       18.932      979.621      341.875      358.438        0.760        0.084      116.095       19.791        0.029      332.722        1.570      869.741
11/04/2014  01:22:00     -100.113      -42.413      -12.130       24.825       25.338       17.901      616.261      642.021      320.451        0.677        0.079      108.726       14.294        0.017      332.754        1.623      869.738
11/04/2014  01:23:00     -106.038      -28.915       -5.590       18.103       18.992       14.805      327.716      360.678      219.177        0.651        0.045      109.910        6.102        0.003      332.794        1.690      869.736
11/04/2014  01:24:00      -78.105      -39.440        4.698       42.919       30.459       17.796     1842.005      927.781      316.690        0.538        0.154       87.498       18.286        0.044      332.751        1.617      869.735
11/04/2014  01:25:00      -51.562      -65.159        7.802       39.536       44.353       20.262     1563.129     1967.158      410.550        0.545        0.197       83.092       19.909        0.057      332.822        1.736      869.734
11/04/2014  01:26:00     -116.266      -94.490       -9.320       40.916       43.180       22.571     1674.119     1864.553      509.458        1.329        0.202      149.820       18.126        0.015      332.827        1.744      869.732
11/04/2014  01:27:00      -91.252      -63.832        1.319       58.202       44.608       36.375     3387.456     1989.831     1323.125        0.955        0.335      111.362       36.342        0.106      332.781        1.666      869.734
11/04/2014  01:28:00     -105.675      -84.720        8.634       67.330       39.873       39.068     4533.267     1589.896     1526.328        1.303        0.382      135.443       35.925        0.070      332.698        1.530      869.733
11/04/2014  01:29:00     -125.723     -107.284      -11.765       46.357       39.789       29.763     2148.973     1583.182      885.859        1.604        0.231      165.276       18.974        0.013      332.725        1.574      869.742
11/04/2014  01:30:00     -141.812     -108.969       -7.348       36.408       40.336       24.164     1325.566     1627.024      583.907        1.779        0.177      178.843       23.169        0.017      332.701        1.532      869.733
11/04/2014  01:31:00     -126.144     -119.253       -2.418       38.070       38.707       34.304     1449.362     1498.220     1176.762        1.713        0.206      173.590       27.775        0.026      332.640        1.433      869.721
11/04/2014  01:32:00     -109.774     -100.567       -3.827       42.937       40.294       27.948     1843.601     1623.618      781.078        1.321        0.212      148.876       22.798        0.023      332.635        1.426      869.710
11/04/2014  01:33:00     -103.902      -62.961        6.200       53.106       40.929       19.815     2820.255     1675.164      392.644        0.984        0.244      121.489       22.973        0.036      332.729        1.581      869.712
11/04/2014  01:34:00     -129.053      -69.613       -9.368       35.796       27.351       22.049     1281.362      748.075      486.138        1.205        0.126      146.631       18.613        0.016      332.727        1.579      869.725
11/04/2014  01:35:00     -148.022      -30.692      -13.780       24.133       26.600       15.612      582.422      707.556      243.731        1.229        0.077      151.170       12.874        0.007      332.685        1.509      869.744
11/04/2014  01:36:00     -128.948      -16.590       -9.663       37.966       34.639       23.794     1441.404     1199.832      566.171        1.010        0.160      130.011       24.106        0.034      332.631        1.419      869.754
11/04/2014  01:37:00     -138.802      -25.601       -6.925       35.790       33.847       20.695     1280.942     1145.636      428.302        1.141        0.143      141.143       18.242        0.017      332.580        1.334      869.752
11/04/2014  01:38:00     -122.254      -33.678       -7.821       36.644       38.398       19.313     1342.782     1474.370      372.998        0.967        0.160      126.808       19.442        0.024      332.592        1.355      869.761
11/04/2014  01:39:00     -125.472      -62.101       -1.913       32.934       24.812       17.941     1084.644      615.629      321.869        1.081        0.101      139.999       16.914        0.015      332.600        1.369      869.775
11/04/2014  01:40:00     -124.885      -35.057       -8.152       25.390       28.186       13.479      644.638      794.478      181.693        0.926        0.081      129.713       10.441        0.006      332.533        1.258      869.799
11/04/2014  01:41:00     -122.923      -44.587        1.030       31.067       29.083       20.879      965.165      845.810      435.937        0.967        0.112      130.759       17.738        0.018      332.560        1.301      869.806
11/04/2014  01:42:00     -121.163      -43.953        2.391       28.482       22.068       13.565      811.206      487.010      184.017        0.905        0.074      128.889       13.516        0.011      332.626        1.412      869.808
11/04/2014  01:43:00      -76.977      -30.763        0.518       34.886       25.437       16.145     1217.030      647.051      260.649        0.450        0.106       82.897       15.191        0.034      332.667        1.479      869.790
11/04/2014  01:44:00      -74.491      -34.670        2.608       25.344       26.712       13.035      642.300      713.551      169.905        0.414        0.076       82.164        9.851        0.014      332.609        1.383      869.778
11/04/2014  01:45:00      -44.378      -20.354        7.374       34.661       25.799       13.827     1201.373      665.566      191.194        0.225        0.103       48.823       14.213        0.085      332.683        1.505      869.757
11/04/2014  01:46:00      -44.877      -30.297        8.891       31.140       17.518       14.808      969.713      306.897      219.276        0.225        0.075       54.147       16.184        0.089      332.733        1.589      869.738
11/04/2014  01:47:00      -37.226      -25.866        5.275       32.399       18.590       13.345     1049.666      345.597      178.083        0.183        0.079       45.330       15.637        0.119      332.804        1.705      869.727
11/04/2014  01:48:00      -59.987      -29.454       -0.834       23.852       20.625       11.830      568.922      425.398      139.948        0.280        0.057       66.828       11.547        0.030      332.825        1.741      869.710
11/04/2014  01:49:00      -53.236      -34.768       -2.250       19.404       13.026       11.306      376.507      169.678      127.815        0.236        0.034       63.584       10.292        0.026      332.858        1.795      869.705
11/04/2014  01:50:00      -60.677      -35.384       -4.886       17.509       13.030       11.062      306.554      169.779      122.360        0.278        0.030       70.240        9.051        0.017      332.895        1.856      869.707
11/04/2014  01:51:00      -70.186      -13.024        1.114       19.848       16.604       11.910      393.935      275.702      141.852        0.295        0.041       71.384       10.952        0.024      332.782        1.668      869.711
11/04/2014  01:52:00      -86.383      -23.015       -1.333       18.615       17.246       10.228      346.510      297.440      104.606        0.437        0.037       89.396        8.900        0.010      332.768        1.646      869.711
11/04/2014  01:53:00      -93.560      -30.825       -0.162       22.577       15.436       14.439      509.704      238.281      208.494        0.533        0.048       98.507       12.441        0.016      332.749        1.614      869.709
11/04/2014  01:54:00      -99.241      -21.742       -5.038       20.955       20.479       17.349      439.118      419.388      300.976        0.575        0.058      101.595       14.629        0.021      332.716        1.561      869.697
11/04/2014  01:55:00     -104.044      -35.823       -9.140       13.557       14.951        9.675      183.798      223.523       93.604        0.635        0.025      110.038        7.589        0.005      332.714        1.557      869.678
11/04/2014  01:56:00     -106.462      -33.969      -10.528       16.246       18.864       11.488      263.924      355.845      131.984        0.668        0.038      111.750        5.416        0.002      332.666        1.477      869.670
11/04/2014  01:57:00      -93.369      -17.469       -3.759       27.340       19.273       16.865      747.490      371.450      284.427        0.522        0.070       94.989       12.176        0.016      332.615        1.393      869.663
11/04/2014  01:58:00     -123.478      -10.555       -5.848       35.560       29.393       22.966     1264.544      863.944      527.420        0.902        0.133      123.928       19.292        0.024      332.626        1.411      869.678
11/04/2014  01:59:00     -103.442       -3.585       -6.036       41.806       25.130       22.243     1747.757      631.530      494.732        0.681        0.144      103.504       24.028        0.054      332.594        1.358      869.696
11/04/2014  02:00:00     -105.365      -24.139       -3.667       28.739       26.404       15.959      825.902      697.184      254.680        0.674        0.089      108.095       14.872        0.019      332.680        1.499      869.708
11/04/2014  02:01:00      -85.831      -31.731       -2.788       29.114       22.968       11.670      847.620      527.526      136.191        0.495        0.076       91.509        6.571        0.005      332.762        1.636      869.704
11/04/2014  02:02:00      -98.356      -25.152       -4.792       17.630       19.851        8.435      310.825      394.081       71.150        0.555        0.039      101.521        5.677        0.003      332.780        1.665      869.693
11/04/2014  02:03:00      -70.273      -13.009       -3.156       21.935       23.101       13.306      481.136      533.654      177.043        0.315        0.060       71.467       10.571        0.022      332.682        1.504      869.676
11/04/2014  02:04:00      -86.283      -16.479       -9.865       15.727       17.633       12.099      247.344      310.916      146.390        0.426        0.035       87.843        9.812        0.012      332.700        1.534      869.661
11/04/2014  02:05:00      -98.081      -33.931       -6.959       24.030       19.428       14.248      577.446      377.447      203.018        0.599        0.058      103.784       14.238        0.019      332.703        1.539      869.638
11/04/2014  02:06:00     -114.659      -45.477       -9.773       17.455       17.590       12.688      304.674      309.403      160.977        0.804        0.039      123.348       10.368        0.007      332.717        1.559      869.625
11/04/2014  02:07:00     -119.930      -42.990       -2.798       23.603       17.041       13.770      557.108      290.410      189.623        0.864        0.052      127.402       11.669        0.008      332.739        1.596      869.612
11/04/2014  02:08:00     -102.892      -47.656       -0.441       35.925       23.971       18.053     1290.589      574.623      325.908        0.752        0.110      113.392       16.579        0.021      332.749        1.613      869.604
11/04/2014  02:09:00      -41.729      -30.131        2.872       41.213       28.759       19.323     1698.526      827.107      373.391        0.278        0.145       51.471       20.048        0.152      332.761        1.634      869.597
11/04/2014  02:10:00      -72.568      -58.363        3.881       50.351       27.846       20.941     2535.227      775.425      438.544        0.622        0.187       93.126       15.687        0.028      332.739        1.598      869.584
11/04/2014  02:11:00      -57.957      -49.277        4.831       52.520       33.062       21.618     2758.392     1093.079      467.347        0.506        0.216       76.074       25.714        0.114      332.760        1.633      869.547
11/04/2014  02:12:00      -49.501      -81.312       -7.067       37.573       32.771       17.480     1411.702     1073.934      305.550        0.595        0.140       95.194        8.200        0.007      332.810        1.716      869.485
11/04/2014  02:13:00      -25.849      -54.573       -5.299       23.064       34.407       18.068      531.946     1183.831      326.463        0.286        0.102       60.385       12.604        0.044      332.869        1.812      869.392
11/04/2014  02:14:00      -41.582      -28.045        6.692       35.356       22.033       19.052     1250.021      485.464      362.962        0.233        0.105       50.155       17.257        0.118      332.866        1.809      869.341
11/04/2014  02:15:00      -87.497      -38.041        4.369       40.132       33.016       26.424     1610.548     1090.066      698.242        0.626        0.170       95.409       11.163        0.014      332.824        1.739      869.353
11/04/2014  02:16:00     -132.064      -86.553        0.187       44.651       31.610       25.283     1993.735      999.165      639.228        1.428        0.182      157.900       24.314        0.024      332.715        1.558      869.399
11/04/2014  02:17:00     -111.393      -74.877        3.751       46.751       42.127       27.020     2185.687     1774.719      730.066        1.136        0.235      134.220       20.346        0.023      332.596        1.359      869.407
11/04/2014  02:18:00      -78.555      -66.821        4.291       46.966       30.739       21.743     2205.829      944.913      472.736        0.714        0.181      103.131       17.396        0.028      332.711        1.551      869.349
11/04/2014  02:19:00      -44.937      -59.771        1.260       39.974       27.361       22.524     1597.896      748.618      507.318        0.422        0.143       74.779       18.868        0.064      332.822        1.736      869.256
11/04/2014  02:20:00      -79.638      -57.219        3.948       45.284       34.353       20.626     2050.675     1180.153      425.441        0.664        0.183       98.062       12.958        0.017      332.785        1.674      869.197
11/04/2014  02:21:00     -103.608      -68.345       -1.700       31.244       37.233       23.471      976.161     1386.325      550.868        0.916        0.146      124.119       13.394        0.012      332.773        1.654      869.209
11/04/2014  02:22:00     -119.580      -60.505       -0.433       36.915       32.858       18.497     1362.719     1079.659      342.141        1.037        0.139      134.016       11.312        0.007      332.753        1.621      869.272
11/04/2014  02:23:00     -130.145      -59.352       -9.378       35.689       21.939       17.770     1273.702      481.311      315.764        1.131        0.104      143.040       19.051        0.018      332.669        1.483      869.331
11/04/2014  02:24:00      -77.032      -26.515       -0.759       36.145       33.076       15.179     1306.453     1094.043      230.413        0.463        0.132       81.467       15.534        0.036      332.678        1.498      869.354
11/04/2014  02:25:00      -47.640      -37.656        9.535       36.603       21.345       19.627     1339.800      455.599      385.215        0.298        0.109       60.725       19.681        0.105      332.762        1.637      869.347
11/04/2014  02:26:00      -86.553      -26.884       -3.979       26.755       23.152       13.014      715.849      536.011      169.358        0.483        0.071       90.632       11.649        0.017      332.729        1.579      869.339
11/04/2014  02:27:00      -98.990      -33.485       -9.472       18.053       19.616       13.901      325.893      384.796      193.233        0.596        0.045      104.500        5.660        0.003      332.705        1.543      869.350
11/04/2014  02:28:00      -86.740      -31.284       -1.842       23.516       28.238       21.444      552.996      797.387      459.849        0.516        0.091       92.209       16.935        0.034      332.726        1.576      869.358
11/04/2014  02:29:00      -70.170      -20.066       -4.891       25.431       19.813       12.382      646.735      392.536      153.307        0.327        0.060       72.983        7.850        0.012      332.681        1.502      869.355
11/04/2014  02:30:00      -80.650      -31.613       -4.459       13.096       14.049       10.430      171.498      197.368      108.792        0.400        0.024       86.624        5.715        0.004      332.700        1.534      869.356
11/04/2014  02:31:00      -82.148      -22.329       -4.458       18.283       13.102        9.654      334.257      171.674       93.200        0.393        0.030       85.129        7.350        0.007      332.743        1.605      869.372
11/04/2014  02:32:00      -71.053      -24.775       -4.771       18.584       20.036       10.673      345.377      401.434      113.918        0.327        0.043       75.248        9.810        0.017      332.746        1.611      869.403
11/04/2014  02:33:00      -58.355      -26.285       -1.439       20.148       18.593       11.404      405.926      345.708      130.042        0.249        0.044       64.001        9.679        0.023      332.718        1.563      869.439
11/04/2014  02:34:00      -74.135      -23.607       -7.581       14.147       12.598        9.982      200.149      158.719       99.639        0.328        0.023       77.803        8.625        0.012      332.696        1.526      869.460
11/04/2014  02:35:00      -66.829      -22.222       -3.564       18.398       11.673       13.346      338.502      136.255      178.119        0.281        0.033       70.427       11.511        0.027      332.718        1.563      869.477
11/04/2014  02:36:00      -47.323       -3.743       -1.943       12.684       10.656       10.607      160.879      113.549      112.509        0.132        0.019       47.471        8.402        0.031      332.732        1.586      869.490
11/04/2014  02:37:00      -51.587      -15.123       -2.656       13.024       14.558        9.324      169.627      211.935       86.941        0.168        0.023       53.758        4.806        0.008      332.860        1.797      869.497
11/04/2014  02:38:00      -68.562      -19.070       -2.262       25.114       12.891       11.125      630.721      166.175      123.772        0.299        0.046       71.165       11.582        0.026      332.796        1.693      869.507
11/04/2014  02:39:00      -79.241      -27.440       -4.072       13.692       10.301        9.077      187.479      106.113       82.392        0.371        0.019       83.857        4.940        0.003      332.821        1.733      869.512
11/04/2014  02:40:00      -76.453      -32.361       -7.578        9.895       11.845        7.545       97.916      140.297       56.921        0.362        0.015       83.020        4.985        0.004      332.806        1.710      869.520
11/04/2014  02:41:00      -59.829      -33.787       -9.185       12.635        7.928        5.272      159.655       62.849       27.796        0.253        0.013       68.710        3.570        0.003      332.745        1.607      869.521
11/04/2014  02:42:00      -52.391      -20.090       -5.806       11.129        7.396        6.858      123.856       54.696       47.035        0.170        0.011       56.111        3.475        0.004      332.835        1.757      869.520
11/04/2014  02:43:00      -50.063      -19.387       -5.044        8.388        7.461        5.918       70.353       55.668       35.023        0.153        0.008       53.686        3.039        0.003      332.879        1.830      869.526
11/04/2014  02:44:00      -40.138      -22.006       -8.451        8.028        7.625        7.443       64.445       58.146       55.404        0.117        0.009       45.775        4.664        0.010      332.924        1.903      869.526
11/04/2014  02:45:00      -33.234       -3.268       -2.305        7.894        8.987        6.474       62.308       80.761       41.919        0.065        0.009       33.394        4.449        0.018      332.939        1.926      869.518
11/04/2014  02:46:00      -42.793       -2.871       -5.330       15.989        7.704        7.056      255.652       59.346       49.793        0.112        0.018       42.889        1.137        0.001      332.883        1.837      869.510
11/04/2014  02:47:00      -54.693      -23.317      -14.806        8.457        9.197        7.366       71.514       84.589       54.255        0.198        0.011       59.456        4.441        0.006      332.858        1.798      869.515
11/04/2014  02:48:00      -57.728      -25.012       -5.206       14.545       13.363        8.236      211.568      178.576       67.838        0.222        0.023       62.913        6.501        0.011      332.836        1.759      869.530
11/04/2014  02:49:00      -51.530      -18.798       -3.700       13.696       10.932        7.101      187.583      119.509       50.426        0.169        0.018       54.852        7.059        0.017      332.836        1.760      869.545
11/04/2014  02:50:00      -42.114      -11.730       -3.683       10.378        7.429        6.353      107.695       55.187       40.364        0.106        0.010       43.717        5.355        0.015      332.860        1.799      869.556
11/04/2014  02:51:00      -19.887      -14.969       -3.528        7.580        7.166        6.404       57.455       51.349       41.009        0.039        0.007       24.891        3.696        0.022      332.820        1.735      869.553
11/04/2014  02:52:00      -23.494      -10.457       -3.254        6.149        7.231        7.759       37.804       52.282       60.200        0.041        0.008       25.717        4.878        0.036      332.995        2.020      869.524
11/04/2014  02:53:00      -21.518       -2.529        0.628        7.189        6.504        8.280       51.675       42.301       68.557        0.032        0.008       21.667        5.550        0.066      332.999        2.026      869.496
11/04/2014  02:54:00      -12.781      -14.300       -4.011        8.747       13.995        8.061       76.510      195.861       64.984        0.036        0.017       19.179        5.383        0.079      332.990        2.012      869.465
11/04/2014  02:55:00      -16.767      -16.945        1.544       13.925       12.279        8.272      193.896      150.769       68.428        0.049        0.021       23.838        6.027        0.064      332.964        1.970      869.440
11/04/2014  02:56:00      -52.323      -20.293       -0.836       23.407       11.998       12.975      547.906      143.962      168.342        0.201        0.043       56.121       12.122        0.047      332.885        1.841      869.432
11/04/2014  02:57:00      -69.343      -27.211      -10.107       18.101        9.425       10.375      327.657       88.833      107.642        0.309        0.026       74.491        6.357        0.007      332.808        1.714      869.436
11/04/2014  02:58:00      -73.430      -12.415      -12.957        9.343       12.431        9.887       87.287      154.533       97.744        0.303        0.017       74.472        8.204        0.012      332.805        1.708      869.441
11/04/2014  02:59:00      -82.484      -10.371       -9.518       16.116       12.429       10.798      259.737      154.484      116.607        0.377        0.027       83.133        8.635        0.011      332.809        1.714      869.438
11/04/2014  03:00:00      -79.154      -35.122       -0.201       33.557       19.420       15.530     1126.062      377.153      241.173        0.462        0.087       86.596       16.322        0.036      332.739        1.598      869.433
11/04/2014  03:01:00      -61.682      -38.637        2.165       41.405       22.997       15.355     1714.381      528.875      235.762        0.389        0.124       72.784       17.773        0.060      332.852        1.785      869.424
11/04/2014  03:02:00      -48.986      -41.638        2.208       37.118       27.878       19.032     1377.743      777.209      362.227        0.333        0.126       64.291       18.570        0.083      332.906        1.875      869.413
11/04/2014  03:03:00       11.434      -21.452       19.464       13.323       15.710       11.140      177.506      246.819      124.102        0.076        0.027       24.309        6.104        0.063      332.950        1.945      869.408
11/04/2014  03:04:00      -71.165      -59.232       -2.015       23.189       21.587       14.169      537.726      466.008      200.755        0.489        0.060       92.589       13.684        0.022      332.849        1.780      869.405
11/04/2014  03:05:00      -64.074      -65.576        3.235       46.678       47.869       18.406     2178.793     2291.428      338.791        0.661        0.240       91.683       15.802        0.030      332.849        1.779      869.395
11/04/2014  03:06:00     -106.678      -52.438        1.823       35.844       25.174       20.746     1284.784      633.753      430.417        0.824        0.117      118.870       21.058        0.031      332.759        1.630      869.371
11/04/2014  03:07:00      -47.103      -33.933       15.474       41.199       26.525       18.487     1697.389      703.594      341.782        0.318        0.137       58.052       19.812        0.116      332.801        1.700      869.345
11/04/2014  03:08:00      -50.445      -27.146        0.322       31.929       23.815       18.334     1019.469      567.170      336.125        0.260        0.096       57.285       16.874        0.087      332.846        1.775      869.315
11/04/2014  03:09:00      -44.110      -29.060        0.092       27.820       13.771       11.861      773.948      189.633      140.679        0.195        0.055       52.822       13.485        0.065      332.797        1.696      869.295
11/04/2014  03:10:00      -42.029       -8.820       -4.961       16.324       10.073       11.013      266.476      101.473      121.293        0.118        0.024       42.944       10.861        0.064      332.776        1.660      869.286
11/04/2014  03:11:00      -42.874       -8.519        1.663       14.834       22.659       10.248      220.033      513.412      105.027        0.138        0.042       43.712        8.754        0.040      332.736        1.594      869.289
11/04/2014  03:12:00      -58.576        2.103       -5.432       16.329       10.765       11.143      266.649      115.880      124.168        0.199        0.025       58.614        9.946        0.029      332.701        1.534      869.285
11/04/2014  03:13:00      -57.142      -14.759       -4.490       18.079       14.625       10.940      326.857      213.887      119.680        0.208        0.033       59.017        9.211        0.024      332.725        1.574      869.289
11/04/2014  03:14:00      -99.201      -32.291       -8.702       20.892       18.906       11.759      436.474      357.432      138.280        0.595        0.047      104.324        6.395        0.004      332.695        1.525      869.299
11/04/2014  03:15:00     -112.837      -55.223      -14.293       15.183       14.830        9.952      230.532      219.940       99.051        0.827        0.027      125.625        5.666        0.002      332.614        1.390      869.304
11/04/2014  03:16:00     -141.057      -50.313      -16.452       11.842       17.434        8.856      140.240      303.958       78.423        1.161        0.026      149.761        4.141        0.001      332.539        1.267      869.302
11/04/2014  03:17:00     -120.327      -49.700      -11.368       14.105       24.404       13.114      198.964      595.547      171.971        0.902        0.048      130.188        6.380        0.002      332.501        1.203      869.313
11/04/2014  03:18:00     -128.852      -58.836      -13.111       16.842       27.744       13.565      283.660      769.707      183.997        1.074        0.062      141.649        5.617        0.002      332.483        1.174      869.323
11/04/2014  03:19:00     -111.415      -18.486       -4.915       33.256       23.787       22.761     1105.943      565.823      518.070        0.748        0.109      112.938       21.338        0.036      332.423        1.075      869.341
11/04/2014  03:20:00      -87.098      -13.901       -4.566       36.412       29.908       17.643     1325.821      894.483      311.269        0.517        0.127       88.201       18.902        0.046      332.433        1.092      869.349
11/04/2014  03:21:00      -69.528       -3.798       -1.780       36.434       21.717       18.007     1327.400      471.624      324.247        0.349        0.106       69.632       18.661        0.072      332.427        1.082      869.359
11/04/2014  03:22:00      -89.150        6.295       -9.147       30.203       19.611       16.221      912.234      384.599      263.134        0.482        0.078       89.372       16.845        0.036      332.521        1.237      869.362
11/04/2014  03:23:00      -49.171      -16.028       -1.653       22.885       15.790       10.371      523.729      249.338      107.559        0.178        0.044       51.717       11.616        0.050      332.609        1.383      869.361
11/04/2014  03:24:00      -47.834       -9.792       -9.016       16.963       13.795        7.902      287.756      190.314       62.446        0.150        0.027       48.826        5.051        0.011      332.651        1.452      869.358
11/04/2014  03:25:00      -30.526      -16.478       -5.305       13.399       15.008        7.527      179.520      225.228       56.654        0.085        0.023       34.690        9.215        0.071      332.676        1.492      869.362
11/04/2014  03:26:00      -28.102      -16.809       -5.323       13.295        9.378        9.023      176.767       87.952       81.410        0.072        0.017       32.745        7.350        0.050      332.742        1.603      869.371
11/04/2014  03:27:00      -26.047       -5.511       -7.416        8.467        6.495        5.513       71.682       42.189       30.393        0.045        0.007       26.624        2.824        0.011      332.749        1.614      869.386
11/04/2014  03:28:00      -22.779      -18.194       -2.783       15.427       10.168        7.301      238.006      103.396       53.308        0.063        0.020       29.153        3.296        0.013      332.781        1.667      869.403
11/04/2014  03:29:00      -16.203      -10.334        2.708       15.146       10.309        7.229      229.411      106.285       52.263        0.038        0.019       19.218        8.293        0.186      332.749        1.614      869.419
11/04/2014  03:30:00      -24.559      -14.260        3.466       23.158       12.970       10.394      536.275      168.217      108.044        0.082        0.041       28.399       10.960        0.149      332.716        1.560      869.430
11/04/2014  03:31:00      -78.873      -19.420      -10.079        8.831        9.677        9.074       77.978       93.646       82.330        0.348        0.013       81.228        6.173        0.006      332.669        1.481      869.440
11/04/2014  03:32:00      -93.480      -34.443       -8.840        7.940        9.281        4.469       63.039       86.129       19.971        0.509        0.008       99.623        3.100        0.001      332.636        1.428      869.443
11/04/2014  03:33:00      -65.266      -33.386       -0.802       31.502       11.750       12.647      992.393      138.062      159.955        0.333        0.065       73.310       15.641        0.046      332.660        1.468      869.440
11/04/2014  03:34:00      -49.920      -16.107        0.902       20.080       11.549        9.579      403.207      133.386       91.763        0.169        0.031       52.454       10.028        0.037      332.693        1.522      869.438
11/04/2014  03:35:00      -28.931       -0.704        0.259       17.621        9.514        8.715      310.508       90.516       75.954        0.066        0.024       28.939        9.744        0.113      332.668        1.480      869.433
11/04/2014  03:36:00      -63.402      -12.522       -6.499        8.928        9.818        9.270       79.709       96.387       85.936        0.224        0.013       64.627        4.078        0.004      332.806        1.709      869.444
11/04/2014  03:37:00      -78.426      -24.824      -10.669       11.640       10.883        9.189      135.492      118.437       84.437        0.361        0.017       82.261        4.344        0.003      332.741        1.599      869.467
11/04/2014  03:38:00     -104.055      -27.920      -10.107       14.055       13.918       10.308      197.543      193.717      106.257        0.610        0.025      107.736        5.737        0.003      332.719        1.567      869.484
11/04/2014  03:39:00      -86.726      -25.721       -2.838       15.124       17.724        9.686      228.748      314.144       93.827        0.441        0.032       90.459        7.238        0.006      332.703        1.540      869.488
11/04/2014  03:40:00      -80.015      -15.625       -1.259       18.864       15.129       12.879      355.856      228.886      165.867        0.370        0.038       81.526       12.081        0.022      332.672        1.488      869.473
11/04/2014  03:41:00      -47.771      -18.509        1.062       18.134       12.799        9.704      328.847      163.825       94.163        0.161        0.029       51.231        8.719        0.029      332.668        1.480      869.446
11/04/2014  03:42:00      -42.551      -16.341        3.283       12.544       14.139        9.818      157.340      199.903       96.388        0.127        0.023       45.581        7.452        0.027      332.722        1.570      869.430
11/04/2014  03:43:00      -83.317      -27.443       -4.364        8.465       10.764        7.124       71.654      115.856       50.747        0.398        0.012       87.721        4.225        0.002      332.733        1.589      869.425
11/04/2014  03:44:00      -65.920      -26.296       -1.630       14.137       15.714        8.411      199.844      246.927       70.750        0.278        0.026       70.971        6.052        0.007      332.704        1.540      869.429
11/04/2014  03:45:00      -53.951      -18.853       -4.511       15.366       16.264        6.681      236.123      264.515       44.636        0.192        0.027       57.150        6.469        0.013      332.652        1.455      869.426
11/04/2014  03:46:00      -49.760        4.175       -4.557        9.286        7.474        8.267       86.236       55.855       68.349        0.136        0.011       49.935        5.466        0.012      332.663        1.473      869.410
11/04/2014  03:47:00      -57.638       -4.015       -6.722       17.794       15.550        7.152      316.621      241.796       51.156        0.200        0.030       57.778        5.233        0.008      332.725        1.574      869.391
11/04/2014  03:48:00      -70.930      -22.086       -6.502       17.519       14.225       10.852      306.908      202.338      117.775        0.309        0.031       74.289        7.711        0.011      332.778        1.664      869.370
11/04/2014  03:49:00      -80.943      -28.779       -8.083       11.434       16.345        9.401      130.739      267.174       88.388        0.397        0.024       85.907        4.275        0.002      332.713        1.554      869.344
11/04/2014  03:50:00      -33.487      -21.772        3.808       38.638       17.179       10.018     1492.930      295.124      100.355        0.175        0.094       39.942       13.017        0.106      332.686        1.510      869.317
11/04/2014  03:51:00      -17.248      -11.900        3.901       17.563        9.341        8.282      308.460       87.246       68.599        0.046        0.023       20.955        7.304        0.121      332.650        1.451      869.293
11/04/2014  03:52:00      -25.720       -8.706       -1.538       13.193       14.244       11.294      174.043      202.880      127.557        0.062        0.025       27.154       10.951        0.163      332.694        1.523      869.273
11/04/2014  03:53:00      -19.770        4.557        1.801        8.836        9.114        6.501       78.070       83.061       42.263        0.031        0.010       20.288        3.899        0.037      332.725        1.572      869.259
11/04/2014  03:54:00      -11.649       -5.569        0.495       11.839        5.401        6.592      140.164       29.166       43.457        0.019        0.011       12.912        6.919        0.287      332.721        1.567      869.260
11/04/2014  03:55:00      -40.305      -14.707       -0.624       26.677       13.538       10.382      711.650      183.281      107.794        0.142        0.050       42.905        4.405        0.011      332.734        1.590      869.270
11/04/2014  03:56:00      -63.046      -13.873       -6.705       10.445       10.914        6.474      109.090      119.112       41.914        0.224        0.014       64.554        2.723        0.002      332.744        1.606      869.278
11/04/2014  03:57:00      -76.608      -13.491      -11.379       12.103       13.142        8.510      146.471      172.713       72.422        0.329        0.020       77.786        4.231        0.003      332.774        1.655      869.284
11/04/2014  03:58:00      -81.193      -12.132       -8.644       11.891       13.316        9.328      141.388      177.318       87.017        0.361        0.020       82.095        3.836        0.002      332.773        1.654      869.290
11/04/2014  03:59:00      -78.213      -12.810       -8.452       22.292       16.708       11.785      496.955      279.157      138.875        0.363        0.046       79.255       10.506        0.018      332.732        1.587      869.298
11/04/2014  04:00:00     -100.492      -21.643      -10.953       25.483       16.203       14.423      649.395      262.526      208.012        0.590        0.056      102.796       15.051        0.021      332.584        1.342      869.320
11/04/2014  04:01:00     -128.431      -30.077       -9.149       33.169       23.353       17.398     1100.182      545.381      302.699        0.972        0.097      131.905       15.798        0.014      332.450        1.121      869.351
11/04/2014  04:02:00     -136.783      -32.652      -10.479       26.070       22.495       18.395      679.644      506.014      338.386        1.070        0.076      140.626       15.097        0.012      332.396        1.033      869.372
11/04/2014  04:03:00     -119.316      -31.638       -9.655       24.331       22.152       16.590      592.006      490.708      275.239        0.834        0.068      123.440       14.184        0.013      332.430        1.087      869.383
11/04/2014  04:04:00      -85.710      -22.530       -4.659       23.656       19.697       15.986      559.620      387.985      255.560        0.454        0.060       88.622        8.456        0.009      332.415        1.063      869.382
11/04/2014  04:05:00      -71.944       -0.745       -8.176       17.727       19.385       14.744      314.233      375.765      217.375        0.308        0.045       71.948        9.065        0.016      332.391        1.022      869.366
11/04/2014  04:06:00      -52.992        1.656       -4.031       17.643       12.480       12.953      311.277      155.748      167.767        0.173        0.032       53.018       10.503        0.039      332.421        1.072      869.339
11/04/2014  04:07:00      -53.938      -12.436       -5.377       12.995       15.611       10.644      168.866      243.709      113.304        0.181        0.026       55.353        6.415        0.013      332.491        1.189      869.334
11/04/2014  04:08:00      -69.964      -16.752       -9.816       19.485       14.296       11.282      379.675      204.390      127.281        0.299        0.036       71.942       11.753        0.027      332.535        1.261      869.345
11/04/2014  04:09:00      -81.819        0.325      -11.754       24.564       17.402       10.785      603.379      302.824      116.310        0.393        0.051       81.820       10.665        0.017      332.506        1.214      869.369
11/04/2014  04:10:00      -74.466      -33.573       -9.606       15.289       17.374        8.503      233.753      301.842       72.304        0.369        0.030       81.684        6.615        0.007      332.473        1.158      869.377
11/04/2014  04:11:00      -90.084      -11.574       -4.234       28.984       23.101       12.521      840.088      533.668      156.776        0.490        0.077       90.825        8.482        0.009      332.511        1.220      869.366
11/04/2014  04:12:00      -83.998      -30.841       -6.349       27.097       20.257       11.378      734.223      410.363      129.467        0.466        0.064       89.481       11.303        0.016      332.520        1.237      869.339
11/04/2014  04:13:00      -68.556      -31.723       -0.742       32.120       14.130       18.043     1031.725      199.670      325.562        0.363        0.078       75.540       19.428        0.066      332.527        1.249      869.333
11/04/2014  04:14:00      -64.586      -43.829       -0.174       33.309       20.443       16.512     1109.512      417.928      272.652        0.395        0.090       78.053       19.185        0.060      332.574        1.325      869.333
11/04/2014  04:15:00      -59.173      -20.915        1.174       31.877       11.054       13.015     1016.123      122.182      169.390        0.262        0.065       62.760       16.350        0.068      332.573        1.324      869.353
11/04/2014  04:16:00      -79.312      -19.381       -7.701       16.216       24.882       12.406      262.961      619.099      153.897        0.388        0.052       81.646       10.870        0.018      332.574        1.327      869.370
11/04/2014  04:17:00      -67.184      -38.205       -6.851       21.706       12.778       10.892      471.151      163.273      118.639        0.339        0.038       77.287       10.845        0.020      332.610        1.384      869.379
11/04/2014  04:18:00      -53.697      -31.285       -1.633       14.622       16.922        9.277      213.808      286.361       86.058        0.223        0.029       62.146        6.208        0.010      332.643        1.441      869.369
11/04/2014  04:19:00      -20.342      -23.290       -2.903       14.321        9.309        6.182      205.098       86.652       38.218        0.065        0.016       30.923        3.603        0.014      332.733        1.587      869.340
11/04/2014  04:20:00       17.180       -7.690        7.055       18.664       13.744       12.387      348.357      188.888      153.429        0.055        0.035       18.823       11.432        0.369      332.734        1.589      869.306
11/04/2014  04:21:00       11.972       36.571       35.087       19.280       22.347       17.335      371.728      499.390      300.502        0.194        0.059       38.481       15.415        0.160      332.719        1.565      869.260
11/04/2014  04:22:00       19.161      -30.758       25.796       23.788       52.438       25.302      565.873     2749.773      640.177        0.297        0.198       36.238       27.022        0.556      332.756        1.625      869.227
11/04/2014  04:23:00        9.642      -66.053       16.423       32.065       31.693       29.711     1028.178     1004.433      882.764        0.382        0.146       66.753       14.930        0.050      332.867        1.808      869.227
11/04/2014  04:24:00      -27.057      -25.777       20.087       23.846       34.063       20.281      568.619     1160.265      411.326        0.197        0.107       37.370       20.102        0.289      332.771        1.651      869.280
11/04/2014  04:25:00      -27.000       25.371       -6.615       13.126       15.379       11.049      172.281      236.519      122.077        0.097        0.027       37.049        7.835        0.045      332.728        1.577      869.345
11/04/2014  04:26:00        3.681       26.856       -4.831       10.488        8.990       11.373      110.008       80.821      129.338        0.054        0.016       27.107        8.541        0.099      332.744        1.608      869.402
11/04/2014  04:27:00      -35.574       -8.777        3.252       20.198       11.535        9.253      407.969      133.061       85.611        0.099        0.031       36.641       10.292        0.079      332.775        1.659      869.431
11/04/2014  04:28:00      -24.813        1.291       -2.074       10.894        7.170        7.462      118.671       51.410       55.676        0.042        0.011       24.847        5.814        0.055      332.689        1.515      869.449
11/04/2014  04:29:00      -15.083        8.818       -0.335        8.790        8.256        5.164       77.267       68.169       26.668        0.024        0.009       17.471        4.933        0.080      332.745        1.606      869.464
11/04/2014  04:30:00      -21.095       -6.383        1.527       13.966        6.723       10.397      195.037       45.196      108.106        0.042        0.017       22.040       10.115        0.211      332.775        1.656      869.464
11/04/2014  04:31:00       -9.971       -8.928       -2.392        9.851        6.445        4.235       97.039       41.535       17.937        0.017        0.008       13.384        4.343        0.105      332.818        1.731      869.456
11/04/2014  04:32:00      -40.549       -3.633       -0.724       15.888        8.281        4.964      252.420       68.569       24.637        0.100        0.017       40.711        6.295        0.024      332.802        1.703      869.462
11/04/2014  04:33:00      -60.036      -15.395       -1.431       19.114       13.928       10.081      365.336      193.984      101.626        0.225        0.033       61.978        7.319        0.014      332.838        1.761      869.467
11/04/2014  04:34:00     -101.313      -36.453       -7.401       15.845       17.761       12.124      251.049      315.443      146.992        0.618        0.036      107.672       10.604        0.010      332.747        1.610      869.483
11/04/2014  04:35:00      -76.856      -18.155        0.480       31.380       19.765       15.345      984.686      390.673      235.466        0.392        0.081       78.972       16.942        0.046      332.693        1.524      869.494
11/04/2014  04:36:00      -60.863      -25.579       -1.978       30.305       24.271       10.398      918.406      589.094      108.117        0.299        0.081       66.020        8.655        0.017      332.720        1.567      869.512
11/04/2014  04:37:00      -63.791      -23.317        2.772       32.434       31.421       14.705     1051.962      987.249      216.239        0.344        0.113       67.919       19.512        0.083      332.712        1.553      869.512
11/04/2014  04:38:00      -47.164      -15.599        2.703       35.103       22.723       14.072     1232.235      516.351      198.032        0.221        0.097       49.677       16.045        0.104      332.672        1.488      869.501
11/04/2014  04:39:00        5.736      -24.082       16.228       31.398       25.985       19.946      985.829      675.231      397.833        0.147        0.103       24.756       14.472        0.342      332.693        1.521      869.490
11/04/2014  04:40:00        7.009       -6.843       16.306       17.251       11.193        9.508      297.585      125.293       90.405        0.044        0.026        9.796       10.364        1.119      332.678        1.498      869.468
11/04/2014  04:41:00      -42.728       -4.726        0.266       17.288        9.961        8.181      298.870       99.221       66.937        0.116        0.023       42.989        8.239        0.037      332.782        1.669      869.452
11/04/2014  04:42:00        1.025        5.210        2.290        9.933        8.105        6.232       98.667       65.698       38.832        0.012        0.010        5.309        2.359        0.197      332.698        1.530      869.458
11/04/2014  04:43:00      -26.620        8.649       -0.292       22.871        7.084        7.661      523.076       50.187       58.696        0.071        0.032       27.990        9.786        0.122      332.703        1.538      869.481
11/04/2014  04:44:00      -66.068        3.917       -5.228       10.852       12.090        6.312      117.761      146.165       39.844        0.236        0.015       66.184        4.768        0.005      332.740        1.600      869.511
11/04/2014  04:45:00      -77.932      -13.801       -9.779       18.301       14.086       11.242      334.930      198.426      126.394        0.351        0.033       79.145        9.965        0.016      332.550        1.286      869.531
11/04/2014  04:46:00      -56.564      -14.560       -4.503       19.511       15.266        9.631      380.667      233.053       92.759        0.207        0.035       58.407        7.108        0.015      332.457        1.133      869.533
11/04/2014  04:47:00      -27.080      -13.421       -2.984       12.935       14.200        9.196      167.318      201.640       84.562        0.069        0.023       30.223        7.514        0.062      332.460        1.137      869.517
11/04/2014  04:48:00      -32.513      -24.767       -7.362       10.777        8.487       10.553      116.151       72.021      111.375        0.101        0.015       40.871        7.871        0.037      332.516        1.228      869.508
11/04/2014  04:49:00       -3.745      -22.029       -4.866       22.977       12.015       14.297      527.956      144.357      204.410        0.070        0.044       22.345       14.348        0.412      332.566        1.311      869.492
11/04/2014  04:50:00       -0.542      -19.721        8.417        9.272       12.376       10.398       85.961      153.155      108.123        0.040        0.017       19.728        5.085        0.066      332.560        1.301      869.487
11/04/2014  04:51:00      -23.648       -7.215       -0.539       11.647        9.506        6.650      135.645       90.355       44.223        0.044        0.014       24.724        5.464        0.049      332.496        1.196      869.489
11/04/2014  04:52:00      -20.683       -2.811        2.191        7.133        5.652        6.052       50.874       31.942       36.621        0.028        0.006       20.873        3.193        0.023      332.458        1.134      869.496
11/04/2014  04:53:00      -27.858        8.035       -3.857        6.970        5.595        6.230       48.586       31.299       38.807        0.049        0.006       28.993        2.763        0.009      332.494        1.193      869.507
11/04/2014  04:54:00      -28.561       -2.581       -3.360       12.145       10.121        6.501      147.495      102.437       42.266        0.056        0.015       28.677        4.592        0.026      332.517        1.231      869.507
11/04/2014  04:55:00      -52.082       -5.637       -5.241        9.798        7.203        8.344       96.003       51.888       69.620        0.149        0.011       52.387        6.209        0.014      332.462        1.140      869.495
11/04/2014  04:56:00      -67.415      -13.077       -7.386        9.721        7.899        6.312       94.490       62.402       39.842        0.248        0.010       68.672        3.919        0.003      332.446        1.113      869.466
11/04/2014  04:57:00      -73.740      -13.165       -8.178       15.378        9.867        7.495      236.480       97.363       56.173        0.303        0.020       74.906        7.194        0.009      332.438        1.100      869.448
11/04/2014  04:58:00      -53.028       -2.578       -4.092       25.943       13.893       12.636      673.035      193.016      159.665        0.193        0.051       53.090       11.114        0.044      332.394        1.026      869.431
11/04/2014  04:59:00      -67.313      -13.600        1.360       24.775       13.652       10.475      613.814      186.380      109.729        0.281        0.045       68.673       11.747        0.029      332.400        1.038      869.418
11/04/2014  05:00:00      -59.050      -22.929        1.474       18.815       16.026       10.872      353.990      256.835      118.193        0.237        0.036       63.345        9.252        0.021      332.443        1.108      869.404
11/04/2014  05:01:00      -21.501      -10.575        4.664       24.076       12.876       12.627      579.644      165.799      159.433        0.075        0.045       23.961       14.396        0.361      332.448        1.116      869.406
11/04/2014  05:02:00      -36.423        6.259        1.431        9.788        9.036        9.275       95.808       81.647       86.032        0.082        0.013       36.957        4.830        0.017      332.533        1.257      869.414
11/04/2014  05:03:00      -34.047       -4.775        1.089        9.602        7.447        6.610       92.192       55.461       43.689        0.069        0.010       34.380        1.536        0.002      332.561        1.302      869.447
11/04/2014  05:04:00      -30.717      -10.119        0.499        8.118        6.306        5.554       65.900       39.764       30.847        0.059        0.007       32.341        3.625        0.013      332.612        1.387      869.471
11/04/2014  05:05:00      -43.918       -9.054        0.944       14.705        7.315        5.323      216.243       53.513       28.337        0.115        0.015       44.842        5.799        0.017      332.568        1.314      869.501
11/04/2014  05:06:00      -64.221      -15.772       -6.316        7.469        8.296        5.728       55.782       68.821       32.808        0.229        0.008       66.130        3.194        0.002      332.528        1.251      869.535
11/04/2014  05:07:00      -71.152      -11.744       -7.110        9.032       12.112        8.090       81.579      146.698       65.445        0.277        0.015       72.115        2.991        0.002      332.495        1.193      869.567
11/04/2014  05:08:00      -72.197      -12.869      -11.280       22.128       14.148       10.409      489.663      200.163      108.355        0.315        0.040       73.335        6.532        0.008      332.396        1.032      869.600
11/04/2014  05:09:00     -101.241       -4.370       -6.796       20.269       11.287       13.932      410.817      127.406      194.093        0.552        0.037      101.335       11.198        0.012      332.273        0.829      869.622
11/04/2014  05:10:00      -79.653      -12.405       -5.501       27.820       19.501       15.049      773.966      380.295      226.473        0.395        0.069       80.613       12.041        0.022      332.265        0.815      869.632
11/04/2014  05:11:00      -95.532      -11.120      -10.089       24.160       17.350       16.217      583.689      301.031      262.989        0.525        0.057       96.177       13.537        0.020      332.236        0.768      869.618
11/04/2014  05:12:00      -83.934      -22.569       -1.523       24.972       26.403       17.288      623.591      697.096      298.892        0.459        0.081       86.916       13.264        0.023      332.195        0.700      869.600
11/04/2014  05:13:00      -80.881      -33.662        1.169       25.192       23.317       16.091      634.639      543.691      258.905        0.456        0.072       87.607       11.782        0.018      332.184        0.681      869.583
11/04/2014  05:14:00     -108.251      -24.547      -10.315       29.210       21.885       16.612      853.241      478.968      275.949        0.702        0.080      110.999       13.473        0.015      332.124        0.582      869.589
11/04/2014  05:15:00      -75.877      -13.009       -3.130       36.107       20.862       14.160     1303.737      435.221      200.500        0.394        0.097       76.984       15.637        0.041      332.113        0.565      869.607
11/04/2014  05:16:00      -63.083        0.438       -1.916       28.859       27.517       17.177      832.816      757.190      295.040        0.293        0.094       63.085       15.334        0.059      332.106        0.554      869.629
11/04/2014  05:17:00      -64.803      -14.096       -4.138       40.547       27.687       16.094     1644.064      766.571      259.008        0.354        0.133       66.319       19.816        0.089      332.128        0.591      869.652
11/04/2014  05:18:00      -58.386       -9.468      -11.377       27.920       29.334       17.964      779.542      860.468      322.716        0.279        0.098       59.149        9.327        0.025      332.160        0.643      869.665
11/04/2014  05:19:00     -118.953       21.628       -5.648       51.739       35.561       21.204     2676.876     1264.569      449.602        0.952        0.220      120.904       17.318        0.021      332.226        0.751      869.665
11/04/2014  05:20:00      -67.171      -21.801       -0.027       39.371       18.714       16.355     1550.058      350.218      267.493        0.358        0.108       70.620       16.973        0.058      332.226        0.751      869.659
11/04/2014  05:21:00      -45.309      -17.071       -4.351       31.318       26.004       16.678      980.844      676.186      278.163        0.215        0.097       48.418       12.453        0.066      332.183        0.681      869.651
11/04/2014  05:22:00      -62.721      -26.889        1.143       17.367       21.187       14.066      301.626      448.909      197.853        0.280        0.047       68.242        5.625        0.007      332.290        0.857      869.662
11/04/2014  05:23:00      -35.849      -32.471       -7.556       32.208       19.103       13.625     1037.341      364.906      185.644        0.199        0.079       48.368        6.319        0.017      332.328        0.918      869.697
11/04/2014  05:24:00      -44.609      -22.952        1.275       30.474       28.021       14.463      928.637      785.172      209.187        0.222        0.096       50.168       12.645        0.064      332.270        0.823      869.733
11/04/2014  05:25:00      -41.456      -30.437       -3.158       38.584       18.555       10.987     1488.722      344.291      120.716        0.230        0.098       51.430        8.432        0.027      332.290        0.858      869.772
11/04/2014  05:26:00      -14.073      -13.398        9.998       24.786       16.146       13.114      614.352      260.709      171.975        0.076        0.052       19.431        9.718        0.250      332.277        0.835      869.799
11/04/2014  05:27:00      -63.162      -31.720       -0.978       44.719       26.675       18.188     1999.763      711.579      330.809        0.402        0.152       70.680       20.920        0.088      332.280        0.839      869.809
11/04/2014  05:28:00     -124.982      -31.558      -11.625       28.057       19.597       19.374      787.180      384.052      375.350        0.915        0.077      128.904       18.644        0.021      332.234        0.764      869.813
11/04/2014  05:29:00     -101.200      -44.388       -9.899       29.205       40.695       19.522      852.922     1656.106      381.125        0.760        0.145      110.507       12.879        0.014      332.182        0.678      869.796
11/04/2014  05:30:00     -128.282       -2.427      -10.329       49.503       27.730       25.696     2450.517      768.981      660.269        1.022        0.194      128.305       29.168        0.052      332.222        0.745      869.783
11/04/2014  05:31:00     -111.677       -3.650       -5.613       45.912       28.147       17.170     2107.895      792.274      294.815        0.786        0.160      111.737       20.646        0.034      332.245        0.784      869.767
11/04/2014  05:32:00      -96.512      -28.574       -7.264       25.507       24.265       16.346      650.631      588.799      267.182        0.584        0.075      100.652       14.798        0.022      332.285        0.849      869.766
11/04/2014  05:33:00      -47.125      -17.855       -1.959       38.295       31.519       26.575     1466.539      993.475      706.214        0.285        0.158       50.394       20.304        0.162      332.291        0.858      869.758
11/04/2014  05:34:00      -78.241       -9.486       -4.722       25.752       26.504       20.747      663.159      702.482      430.441        0.401        0.090       78.814       12.987        0.027      332.293        0.860      869.730
11/04/2014  05:35:00      -65.910      -42.705       -9.289       44.505       20.552       19.271     1980.653      422.404      371.376        0.451        0.139       78.535       22.116        0.079      332.265        0.816      869.689
11/04/2014  05:36:00      -36.611      -15.120       -5.784       19.793       17.336       11.720      391.763      300.529      137.366        0.122        0.041       39.610        8.938        0.051      332.360        0.972      869.651
11/04/2014  05:37:00      -39.761      -38.298       -6.030       26.729       25.320       15.341      714.432      641.112      235.360        0.234        0.080       55.206        6.964        0.016      332.359        0.970      869.637
11/04/2014  05:38:00      -65.187      -36.488       -1.328       27.156       26.695       10.361      737.459      712.640      107.341        0.357        0.078       74.704        9.232        0.015      332.273        0.828      869.639
11/04/2014  05:39:00      -89.428      -37.309      -11.652       27.894       22.386       13.297      778.095      501.119      176.812        0.549        0.073       96.899        9.179        0.009      332.289        0.855      869.638
11/04/2014  05:40:00      -71.386      -50.189        4.469       42.526       27.050       19.980     1808.451      731.680      399.195        0.529        0.147       87.263       20.438        0.055      332.285        0.847      869.627
11/04/2014  05:41:00      -83.358      -51.753        0.594       47.977       32.254       19.942     2301.805     1040.293      397.677        0.668        0.187       98.117       17.037        0.030      332.253        0.796      869.621
11/04/2014  05:42:00     -101.073      -28.141       -5.598       22.084       19.180       13.639      487.703      367.880      186.016        0.604        0.052      104.918        7.506        0.005      332.298        0.868      869.619
11/04/2014  05:43:00      -77.255      -39.825        4.305       36.437       24.736       14.822     1327.653      611.850      219.678        0.487        0.108       86.916       11.178        0.017      332.295        0.865      869.622
11/04/2014  05:44:00      -33.248      -38.977        6.936       34.114       22.618       17.401     1163.755      511.583      302.811        0.233        0.099       51.232       13.512        0.070      332.347        0.949      869.626
11/04/2014  05:45:00      -65.998      -53.680       -2.984       21.971       14.608       11.685      482.739      213.384      136.550        0.404        0.042       85.073        7.596        0.008      332.359        0.970      869.632
11/04/2014  05:46:00      -52.602      -43.816       -0.429       27.548       22.248       16.593      758.892      494.952      275.328        0.311        0.076       68.461       16.040        0.055      332.367        0.983      869.635
11/04/2014  05:47:00      -49.496      -35.789        0.877       34.351       19.558       18.233     1179.973      382.504      332.453        0.281        0.095       61.080       15.191        0.062      332.323        0.911      869.644
11/04/2014  05:48:00      -18.028      -32.789        7.356       26.612       19.215       15.845      708.197      369.205      251.057        0.139        0.066       37.418       12.117        0.105      332.370        0.988      869.660
11/04/2014  05:49:00      -39.131      -26.712        4.511       20.634       19.498       13.942      425.771      380.157      194.368        0.163        0.050       47.379        8.918        0.035      332.344        0.945      869.659
11/04/2014  05:50:00      -20.467      -31.735        1.109       22.241       13.404       11.891      494.658      179.670      141.391        0.112        0.041       37.762       12.178        0.104      332.407        1.048      869.647
11/04/2014  05:51:00      -25.538      -17.720       -1.610       13.629        8.523        7.264      185.756       72.636       52.769        0.064        0.016       31.084        5.786        0.035      332.447        1.115      869.630
11/04/2014  05:52:00      -31.100      -11.584        0.174       20.878       11.788        8.997      435.907      138.962       80.955        0.088        0.033       33.187        7.128        0.046      332.524        1.243      869.627
11/04/2014  05:53:00      -11.004        3.285        7.745        8.869        9.605        6.667       78.662       92.256       44.453        0.020        0.011       11.483        4.562        0.158      332.446        1.115      869.623
11/04/2014  05:54:00       18.620       16.462        3.797       13.593        9.746        6.075      184.776       94.975       36.909        0.047        0.016       24.854        5.260        0.045      332.462        1.138      869.629
11/04/2014  05:55:00       27.400       30.393       -0.709       10.341        8.295        6.932      106.932       68.803       48.059        0.095        0.011       40.920        5.254        0.016      332.416        1.063      869.645
11/04/2014  05:56:00        9.648       17.065        2.819       12.242       13.288       11.094      149.854      176.573      123.081        0.042        0.022       19.603        7.736        0.156      332.384        1.011      869.679
11/04/2014  05:57:00       18.028       37.133       -5.763       11.310       20.226       11.852      127.908      409.086      140.460        0.121        0.034       41.278       14.284        0.120      332.270        0.824      869.720
11/04/2014  05:58:00       14.753       21.855       -6.424        4.695        7.733        3.252       22.047       59.795       10.578        0.041        0.005       26.368        1.731        0.004      332.311        0.889      869.745
11/04/2014  05:59:00       18.897       17.843       -1.835       10.496       10.319        6.389      110.171      106.486       40.818        0.047        0.013       25.990        3.128        0.014      332.376        0.997      869.757
11/04/2014  06:00:00       22.073       13.546       10.219       16.586        8.404       11.747      275.079       70.630      137.985        0.063        0.024       25.898        7.611        0.086      332.345        0.945      869.765
11/04/2014  06:01:00       34.757       19.202        8.842        8.559        7.295        8.773       73.262       53.220       76.969        0.093        0.010       39.709        5.141        0.017      332.365        0.979      869.782
11/04/2014  06:02:00       26.456       26.462        6.899        6.214        7.737        9.700       38.617       59.859       94.097        0.082        0.010       37.419        3.430        0.008      332.317        0.899      869.800
11/04/2014  06:03:00       30.648       30.123        7.689        5.788        5.519        6.713       33.501       30.462       45.065        0.101        0.005       42.973        4.575        0.011      332.311        0.888      869.819
11/04/2014  06:04:00       23.703       20.462        1.065       11.734       11.317       10.089      137.691      128.080      101.788        0.067        0.018       31.313        9.483        0.092      332.407        1.049      869.849
11/04/2014  06:05:00       21.344       22.136       -0.467       17.198        9.973        8.112      295.768       99.469       65.809        0.070        0.023       30.750        5.979        0.038      332.339        0.935      869.884
11/04/2014  06:06:00       20.599       47.403       -6.835       12.488       25.275       10.974      155.951      638.830      120.422        0.182        0.046       51.685       14.282        0.076      332.293        0.860      869.918
11/04/2014  06:07:00        2.723       62.033       -9.024       13.642       10.157        8.407      186.117      103.174       70.673        0.215        0.018       62.093        5.552        0.008      332.279        0.838      869.944
11/04/2014  06:08:00        2.049       64.962      -12.221        5.118       11.292        5.875       26.196      127.505       34.517        0.228        0.009       64.995        5.494        0.007      332.360        0.973      869.969
11/04/2014  06:09:00       -4.299       79.377      -11.623       13.833       13.462        8.853      191.340      181.215       78.384        0.345        0.023       79.493        5.959        0.006      332.343        0.943      869.982
11/04/2014  06:10:00        8.556       72.485       -9.133       12.242       16.202       13.552      149.869      262.518      183.649        0.300        0.030       72.988        9.462        0.017      332.399        1.038      869.971
11/04/2014  06:11:00       19.963       41.821       -3.251       13.306       21.497       12.049      177.036      462.134      145.183        0.147        0.039       46.342        8.947        0.037      332.345        0.945      869.944
11/04/2014  06:12:00       48.875       35.321        9.764       10.278       12.073       12.474      105.636      145.746      155.598        0.207        0.020       60.302        8.768        0.021      332.487        1.182      869.920
11/04/2014  06:13:00       49.312       37.858       19.768       10.823        9.816        8.586      117.136       96.344       73.717        0.227        0.014       62.168        6.607        0.011      332.479        1.168      869.920
11/04/2014  06:14:00       50.456       26.118        2.534        8.166        8.614        5.997       66.680       74.197       35.969        0.171        0.009       56.815        4.308        0.006      332.497        1.197      869.926
11/04/2014  06:15:00       37.032        9.567        2.623       10.351        7.013        7.883      107.149       49.180       62.149        0.084        0.011       38.248        6.365        0.028      332.436        1.097      869.930
11/04/2014  06:16:00       32.467       15.646        4.231        6.905        5.828        4.953       47.679       33.971       24.533        0.071        0.005       36.040        2.356        0.004      332.441        1.105      869.927
11/04/2014  06:17:00       26.882        9.430       -1.292        5.207        5.409        3.813       27.116       29.255       14.537        0.044        0.004       28.488        1.376        0.002      332.481        1.170      869.928
11/04/2014  06:18:00        8.214       -0.155        5.834        8.892       10.328        6.871       79.064      106.678       47.207        0.017        0.012        8.216        4.787        0.340      332.479        1.167      869.931
11/04/2014  06:19:00        8.061        1.387        3.504       10.796        5.749        5.560      116.543       33.052       30.909        0.013        0.009        8.180        4.965        0.368      332.445        1.111      869.943
11/04/2014  06:20:00       13.110       13.871       21.139       10.315       10.961       12.018      106.402      120.150      144.435        0.059        0.019       19.086        9.089        0.227      332.399        1.034      869.952
11/04/2014  06:21:00       36.213       -3.727        9.177       20.922       10.228        9.787      437.728      104.611       95.776        0.102        0.032       36.404        5.462        0.023      332.576        1.329      869.970
11/04/2014  06:22:00      -22.672        8.249       -1.468       18.818       11.916        8.686      354.118      141.985       75.440        0.058        0.029       24.126        5.946        0.061      332.462        1.140      869.998
11/04/2014  06:23:00      -46.276      -19.162       -2.271       13.172       14.086        9.734      173.502      198.427       94.756        0.149        0.023       50.086        6.436        0.017      332.326        0.916      870.039
11/04/2014  06:24:00      -53.244      -10.672       -4.795       14.247       14.731        9.881      202.980      216.990       97.642        0.174        0.026       54.303        6.145        0.013      332.290        0.855      870.084
11/04/2014  06:25:00      -30.556      -16.246       -2.815        9.687       11.684        7.696       93.845      136.526       59.221        0.075        0.014       34.607        3.465        0.010      332.288        0.852      870.100
11/04/2014  06:26:00      -10.150      -10.384       -4.152        6.581        5.473        7.995       43.307       29.949       63.915        0.018        0.007       14.521        3.732        0.066      332.332        0.926      870.070
11/04/2014  06:27:00      -11.925        8.289        8.641       16.766       13.182        8.565      281.098      173.767       73.359        0.041        0.026       14.523        6.214        0.183      332.423        1.076      870.032
11/04/2014  06:28:00        0.453       11.023       21.261       11.460       10.440       10.320      131.334      108.991      106.512        0.046        0.017       11.032        6.933        0.395      332.330        0.921      870.018
11/04/2014  06:29:00        1.014        7.528       18.703       12.013       12.037       13.015      144.322      144.900      169.403        0.043        0.023        7.596        8.766        1.332      332.347        0.950      870.024
11/04/2014  06:30:00      -13.667        0.600        5.570       10.459        7.694       10.555      109.390       59.203      111.409        0.025        0.014       13.680        6.896        0.254      332.393        1.026      870.030
11/04/2014  06:31:00      -34.970      -13.773       -7.848       12.793        7.877        9.043      163.657       62.041       81.780        0.089        0.015       37.584        5.985        0.025      332.431        1.089      870.032
11/04/2014  06:32:00      -39.556      -18.950       -5.707       10.323       10.046        7.100      106.556      100.924       50.411        0.111        0.013       43.861        5.150        0.014      332.398        1.035      870.040
11/04/2014  06:33:00      -42.803      -19.970       -1.674       16.765       12.073       10.249      281.078      145.758      105.049        0.138        0.027       47.233        7.246        0.024      332.441        1.106      870.040
11/04/2014  06:34:00      -56.551      -37.377       -5.034       14.541       19.647        8.767      211.429      385.997       76.863        0.265        0.034       67.787        3.800        0.003      332.449        1.118      870.064
11/04/2014  06:35:00      -54.166      -34.861        0.031       19.264       19.207       13.885      371.119      368.923      192.790        0.254        0.047       64.414       10.844        0.028      332.380        1.004      870.087
11/04/2014  06:36:00      -35.518      -19.033       -0.808       24.864       21.391       13.694      618.204      457.588      187.518        0.144        0.063       40.296       10.553        0.069      332.386        1.015      870.112
11/04/2014  06:37:00      -16.985      -10.319       -4.950       10.199       12.401       11.281      104.015      153.782      127.254        0.040        0.019       19.874        5.758        0.084      332.462        1.140      870.126
11/04/2014  06:38:00       -3.456       -0.763        2.803       12.040       14.158        8.402      144.961      200.435       70.590        0.022        0.021        3.539        7.407        4.381      332.484        1.176      870.131
11/04/2014  06:39:00      -23.312       18.693        4.868       19.147       10.481       10.672      366.623      109.856      113.887        0.075        0.030       29.881        7.106        0.057      332.379        1.002      870.115
11/04/2014  06:40:00        7.200        6.968        4.464        9.785        8.230        8.561       95.747       67.736       73.284        0.018        0.012       10.019        3.552        0.126      332.413        1.058      870.110
11/04/2014  06:41:00       -4.436       22.268       -6.696        6.666       13.419        9.161       44.435      180.066       83.925        0.043        0.015       22.706        5.919        0.068      332.531        1.254      870.136
11/04/2014  06:42:00      -12.903       34.837       -4.592       15.341       14.832        7.676      235.334      219.986       58.914        0.096        0.026       37.150        1.608        0.002      332.556        1.296      870.183
11/04/2014  06:43:00      -24.727       22.491       -9.193       16.564       14.281        8.360      274.355      203.936       69.891        0.087        0.027       33.425        1.251        0.001      332.593        1.357      870.240
11/04/2014  06:44:00      -23.169       15.102       -6.717       22.051       12.985        8.534      486.265      168.606       72.822        0.077        0.036       27.657        9.288        0.113      332.611        1.385      870.280
11/04/2014  06:45:00      -35.887        9.188       -2.409       24.271       10.587        8.941      589.089      112.095       79.944        0.108        0.039       37.045       10.534        0.081      332.600        1.368      870.289
11/04/2014  06:46:00      -60.971       -2.675       -4.462       15.348       11.961        8.730      235.555      143.069       76.205        0.210        0.023       61.029        7.608        0.016      332.567        1.315      870.287
11/04/2014  06:47:00      -83.064       -8.934       -8.975       16.955       10.333       10.257      287.475      106.777      105.202        0.378        0.025       83.543        8.087        0.009      332.597        1.362      870.279
11/04/2014  06:48:00      -85.133       -8.136      -11.283       21.376       11.725       13.174      456.948      137.484      173.566        0.410        0.038       85.521       13.582        0.025      332.615        1.393      870.275
11/04/2014  06:49:00      -58.453       -7.421       -4.341       27.130       17.739       15.248      736.019      314.671      232.499        0.239        0.064       58.922       14.850        0.064      332.603        1.373      870.278
11/04/2014  06:50:00      -40.646        6.554       -8.916       20.084       20.753       12.798      403.384      430.681      163.799        0.139        0.050       41.171        9.842        0.057      332.571        1.321      870.287
11/04/2014  06:51:00      -59.172       35.312       -8.322       17.256       16.692       13.494      297.756      278.629      182.098        0.279        0.038       68.908       11.571        0.028      332.610        1.385      870.298
11/04/2014  06:52:00      -40.857       44.037       -9.977       17.596       24.160       14.891      309.607      583.713      221.735        0.241        0.056       60.071       11.373        0.036      332.711        1.553      870.329
11/04/2014  06:53:00      -21.103       51.768        0.603       28.670       26.316       18.671      821.970      692.551      348.613        0.249        0.093       55.904       16.316        0.085      332.815        1.723      870.349
11/04/2014  06:54:00      -14.995       54.647        1.787       20.266       31.196       18.443      410.697      973.194      340.135        0.247        0.086       56.667       18.233        0.104      332.816        1.726      870.342
11/04/2014  06:55:00       20.949       48.880        7.789       24.028       27.876       20.566      577.357      777.084      422.961        0.233        0.089       53.180       19.241        0.131      332.858        1.797      870.338
11/04/2014  06:56:00       17.154       90.094      -10.056       17.038       25.411       14.379      290.309      645.715      206.761        0.483        0.057       91.713       14.243        0.024      332.734        1.590      870.340
11/04/2014  06:57:00       14.842       65.967      -11.747       19.613       42.248       19.559      384.673     1784.852      382.563        0.363        0.128       67.616       24.563        0.132      332.731        1.585      870.350
11/04/2014  06:58:00       -0.800       91.110      -11.233       13.795       18.844       10.296      190.294      355.085      106.012        0.454        0.033       91.113        8.005        0.008      332.691        1.516      870.376
11/04/2014  06:59:00       11.768       46.758       -0.537       19.704       23.036       17.148      388.265      530.662      294.048        0.177        0.061       48.216       15.113        0.098      332.725        1.575      870.399
11/04/2014  07:00:00        7.639       41.885       -0.363       11.711       17.021       10.507      137.154      289.725      110.397        0.117        0.027       42.576        9.739        0.052      332.756        1.625      870.406
11/04/2014  07:01:00       22.898       28.176        0.062       14.844       15.098       11.097      220.356      227.953      123.143        0.094        0.029       36.307        9.421        0.067      332.786        1.677      870.425
11/04/2014  07:02:00       58.662       29.445       -1.088       22.586       14.312       13.990      510.111      204.847      195.731        0.261        0.046       65.637       12.743        0.038      332.774        1.657      870.453
11/04/2014  07:03:00       41.736       38.305       18.155       22.295       16.889       19.028      497.086      285.231      362.068        0.234        0.057       56.649        8.107        0.020      332.825        1.739      870.479
11/04/2014  07:04:00       72.001       34.985        7.502       25.996       19.816       19.098      675.787      392.694      364.745        0.395        0.072       80.051       13.210        0.027      332.787        1.677      870.518
11/04/2014  07:05:00       30.337       19.577        9.198       22.577       20.587       18.618      509.720      423.826      346.635        0.133        0.064       36.105       11.527        0.102      332.808        1.713      870.544
11/04/2014  07:06:00       32.521       41.267       -8.775       15.098       20.503       13.927      227.937      420.358      193.973        0.184        0.042       52.542       12.430        0.056      332.769        1.647      870.575
11/04/2014  07:07:00       37.009       51.614       -8.642       23.988       13.956       10.994      575.411      194.778      120.876        0.250        0.045       63.511        9.776        0.024      332.772        1.652      870.590
11/04/2014  07:08:00       53.598       41.188        5.702       27.947       18.687       13.851      781.038      349.191      191.837        0.296        0.066       67.596        7.781        0.013      332.783        1.672      870.591
11/04/2014  07:09:00       38.011       32.681       -1.678       20.504       13.997        9.189      420.429      195.909       84.433        0.161        0.035       50.129        6.020        0.014      332.797        1.695      870.599
11/04/2014  07:10:00       22.784       32.316       -6.739       14.282       14.185       10.846      203.966      201.203      117.637        0.107        0.026       39.541        9.423        0.057      332.832        1.753      870.622
11/04/2014  07:11:00       29.695       35.396        1.587       21.926       23.174       16.405      480.761      537.051      269.140        0.171        0.064       46.202       13.517        0.086      332.829        1.748      870.643
11/04/2014  07:12:00       31.180       44.480       -6.874       17.310       17.618       14.998      299.637      310.381      224.927        0.192        0.042       54.320       11.561        0.045      332.836        1.759      870.671
11/04/2014  07:13:00       41.479       32.453        1.245       17.508       12.449       15.454      306.526      154.984      238.829        0.174        0.035       52.666        9.679        0.034      332.852        1.786      870.682
11/04/2014  07:14:00       55.011       52.058        7.074       14.079       18.163       18.282      198.213      329.901      334.224        0.332        0.043       75.738       10.697        0.020      332.825        1.742      870.680
11/04/2014  07:15:00       61.225       50.444        5.862       17.659       21.513       18.840      311.834      462.820      354.935        0.373        0.056       79.329       16.342        0.042      332.813        1.722      870.701
11/04/2014  07:16:00       51.823       44.655        2.485       15.034       10.492       11.556      226.023      110.083      133.545        0.258        0.023       68.408        5.185        0.006      332.798        1.696      870.720
11/04/2014  07:17:00       42.216       34.507        5.953       11.715       14.705       17.185      137.248      216.233      295.338        0.183        0.032       54.525       10.078        0.034      332.841        1.767      870.736
11/04/2014  07:18:00       35.018       39.896        2.492       11.509       16.349       12.077      132.462      267.278      145.843        0.168        0.027       53.084        9.873        0.035      332.880        1.832      870.755
11/04/2014  07:19:00       48.605       46.832       20.556       17.608       17.628       17.608      310.038      310.760      310.052        0.295        0.047       67.496       10.601        0.025      332.953        1.951      870.767
11/04/2014  07:20:00       43.018       40.900       32.485       24.948       22.287       22.907      622.412      496.727      524.728        0.311        0.082       59.358       17.415        0.086      332.990        2.011      870.774
11/04/2014  07:21:00       52.790       29.537       15.194       17.010       17.848       19.763      289.329      318.545      390.576        0.244        0.050       60.492       13.901        0.053      332.959        1.961      870.803
11/04/2014  07:22:00       47.100       33.017       26.808       20.619       13.080       15.507      425.131      171.093      240.459        0.243        0.042       57.520       10.892        0.036      332.990        2.014      870.825
11/04/2014  07:23:00       37.874       22.708       11.189       17.986       13.162       16.404      323.509      173.246      269.089        0.142        0.038       44.160       11.657        0.070      332.953        1.951      870.848
11/04/2014  07:24:00       38.209       30.190       13.664       11.150        7.979        8.217      124.329       63.666       67.523        0.141        0.013       48.696        3.777        0.006      332.935        1.922      870.889
11/04/2014  07:25:00       43.781       39.729       16.689        7.431        9.264       11.804       55.222       85.815      139.339        0.203        0.014       59.120        8.603        0.021      332.924        1.903      870.934
11/04/2014  07:26:00       53.985       42.885        8.808       10.474        6.373       12.497      109.712       40.614      156.164        0.257        0.015       68.946        6.396        0.009      332.963        1.968      870.965
11/04/2014  07:27:00       45.971       29.249        6.446       15.463       12.454       14.328      239.105      155.113      205.305        0.180        0.030       54.487        8.948        0.027      333.045        2.102      870.996
11/04/2014  07:28:00       55.366       52.884       26.321       21.868       15.786       18.719      478.219      249.188      350.392        0.382        0.054       76.565       12.402        0.026      333.081        2.161      871.009
11/04/2014  07:29:00       62.523       37.096       17.903       20.719       21.911       18.982      429.264      480.108      360.297        0.344        0.063       72.700       14.430        0.039      333.120        2.225      871.032
11/04/2014  07:30:00       54.381       38.448       22.058       18.934       14.785       18.932      358.486      218.600      358.411        0.293        0.047       66.600       13.278        0.040      333.162        2.296      871.038
11/04/2014  07:31:00       22.734       38.735       34.763       17.527       15.698       11.464      307.203      246.413      131.435        0.196        0.034       44.913        6.692        0.022      333.231        2.409      871.046
11/04/2014  07:32:00       24.822      -25.676       13.234       22.059       37.928       26.218      486.610     1438.562      687.394        0.203        0.131       35.712       30.084        0.710      333.341        2.591      871.030
11/04/2014  07:33:00       52.342      -53.171      -15.292       17.831       23.047       15.417      317.936      531.153      237.673        0.344        0.054       74.611        4.721        0.004      333.274        2.482      871.014
11/04/2014  07:34:00        9.531      -28.931       10.072       28.040       51.510       22.971      786.266     2653.305      527.652        0.250        0.198       30.461       23.050        0.573      333.340        2.591      870.995
11/04/2014  07:35:00       40.692      -39.473        9.730       32.263       31.717       31.107     1040.919     1005.957      967.642        0.316        0.151       56.691       26.391        0.217      333.331        2.576      870.986
11/04/2014  07:36:00       22.061      -17.964       18.151       17.504       48.310       17.079      306.403     2333.876      291.706        0.203        0.147       28.450       20.927        0.541      333.331        2.575      870.990
11/04/2014  07:37:00        0.136       12.547       35.692       19.116       25.467       16.131      365.421      648.552      260.208        0.135        0.064       12.547       16.511        1.731      333.430        2.740      870.993
11/04/2014  07:38:00       17.553       35.730       36.864       24.367       41.098       25.556      593.749     1689.014      653.132        0.294        0.147       39.809       27.408        0.474      333.364        2.629      870.994
11/04/2014  07:39:00       20.943       53.631       53.681       28.545       26.900       21.262      814.794      723.596      452.069        0.409        0.100       57.575       10.652        0.034      333.353        2.611      870.988
11/04/2014  07:40:00       16.605        7.701       27.453       25.310       33.227       23.806      640.621     1104.012      566.717        0.170        0.116       18.304       20.679        1.276      333.368        2.636      871.002
11/04/2014  07:41:00       18.578        7.296       14.429       29.257       23.005       16.650      855.943      529.217      277.219        0.113        0.083       19.959       12.696        0.405      333.346        2.600      871.020
11/04/2014  07:42:00       45.633       -9.584        1.782       23.909       27.009       16.777      571.622      729.463      281.460        0.188        0.079       46.628        6.203        0.018      333.235        2.416      871.045
11/04/2014  07:43:00       31.997       51.610        1.721       17.024       33.603       17.827      289.825     1129.139      317.812        0.271        0.087       60.724       19.824        0.107      333.271        2.476      871.042
11/04/2014  07:44:00       22.406       47.937        3.640       29.568       29.844       22.982      874.251      890.658      528.171        0.255        0.115       52.915       21.650        0.167      333.262        2.461      871.050
11/04/2014  07:45:00       49.915       47.793       -2.952       21.232       13.859       15.310      450.819      192.083      234.397        0.283        0.044       69.106       10.082        0.021      333.227        2.403      871.042
11/04/2014  07:46:00       52.851       42.517        4.643       12.193       11.360        9.827      148.669      129.045       96.564        0.250        0.019       67.830        3.820        0.003      333.279        2.490      871.029
11/04/2014  07:47:00       36.297       33.952        2.951       18.504       14.531       15.029      342.405      211.139      225.862        0.163        0.039       49.701        4.533        0.008      333.313        2.545      871.025
11/04/2014  07:48:00       47.804       31.734       11.688        9.866        9.353       10.750       97.331       87.479      115.566        0.186        0.015       57.378        4.834        0.007      333.342        2.595      871.022
11/04/2014  07:49:00       33.419       45.759        0.497       11.969       15.184        9.428      143.250      230.558       88.881        0.184        0.023       56.663        6.562        0.013      333.359        2.624      871.004
11/04/2014  07:50:00       40.621       43.387       -0.777       15.277       18.026       14.214      233.392      324.941      202.043        0.215        0.038       59.435       11.040        0.035      333.415        2.715      870.996
11/04/2014  07:51:00       39.486       27.392       12.541       30.017       29.363       29.998      901.007      862.160      899.872        0.256        0.133       48.057       16.980        0.125      333.541        2.923      870.978
11/04/2014  07:52:00       61.183       52.959       53.074       53.117       22.862       21.411     2821.378      522.659      458.420        0.658        0.190       80.919       24.656        0.093      333.589        3.003      870.966
11/04/2014  07:53:00       76.981       59.659       47.742       38.408       27.201       33.882     1475.181      739.912     1147.965        0.756        0.168       97.393       23.223        0.057      333.527        2.900      870.974
11/04/2014  07:54:00      107.662       62.429       27.243       25.869       18.857       24.793      669.192      355.585      614.672        0.893        0.082      124.453       15.210        0.015      333.374        2.646      870.976
11/04/2014  07:55:00       98.633       62.615       30.529       23.228       21.346       24.488      539.524      455.640      599.651        0.809        0.080      116.829       13.961        0.014      333.427        2.733      870.983
11/04/2014  07:56:00       48.471       36.891       23.078       26.046       21.573       30.120      678.376      465.396      907.223        0.315        0.103       60.913       14.484        0.057      333.606        3.030      870.988
11/04/2014  07:57:00       30.870       38.337        5.422       24.108       23.303       22.757      581.210      543.007      517.887        0.205        0.082       49.220       16.087        0.107      333.581        2.989      870.991
11/04/2014  07:58:00       61.410       56.329       32.253       25.680       25.266       23.397      659.441      638.356      547.427        0.491        0.092       83.331       14.927        0.032      333.605        3.029      871.006
11/04/2014  07:59:00       49.425       50.285       50.477       32.715       37.218       21.927     1070.245     1385.145      480.814        0.523        0.147       70.508       12.074        0.029      333.647        3.097      871.020
11/04/2014  08:00:00       51.325       49.075       39.134       41.700       25.042       23.732     1738.880      627.122      563.213        0.475        0.146       71.011       17.925        0.064      333.688        3.167      871.031
11/04/2014  08:01:00       41.904       53.059       51.070       36.312       28.346       30.683     1318.590      803.523      941.444        0.512        0.153       67.611       27.829        0.169      333.682        3.158      871.039
11/04/2014  08:02:00       45.076       38.258       50.307       50.448       40.322       33.869     2544.961     1625.892     1147.085        0.567        0.266       59.123       28.437        0.231      333.647        3.099      871.017
11/04/2014  08:03:00       89.874       71.641       40.140       53.696       33.638       39.440     2883.244     1131.533     1555.502        1.019        0.279      114.934       37.153        0.104      333.568        2.968      870.992
11/04/2014  08:04:00      103.562       73.850       39.820       44.307       24.239       31.958     1963.104      587.525     1021.315        1.067        0.179      127.197       28.121        0.049      333.534        2.911      870.951
11/04/2014  08:05:00       53.515       68.179       65.701       50.669       29.504       30.869     2567.367      870.476      952.922        0.811        0.220       86.673       29.117        0.113      333.707        3.199      870.929
11/04/2014  08:06:00       79.740       55.631       28.867       35.130       34.627       29.537     1234.090     1199.040      872.438        0.680        0.165       97.228       23.618        0.059      333.657        3.115      870.916
11/04/2014  08:07:00       64.683        6.458       35.733       38.845       24.052       23.903     1508.957      578.479      571.348        0.408        0.133       65.004       25.527        0.154      333.852        3.438      870.932
11/04/2014  08:08:00       18.591        8.921       15.303       32.431       30.225       27.847     1051.798      913.554      775.452        0.170        0.137       20.621       22.157        1.155      334.108        3.863      870.940
11/04/2014  08:09:00       61.637       62.684       41.988       43.992       29.701       34.753     1935.269      882.146     1207.762        0.676        0.201       87.912       33.880        0.149      333.905        3.527      870.966
11/04/2014  08:10:00       21.228       41.925       53.554       37.999       28.484       24.391     1443.888      811.357      594.919        0.396        0.143       46.993       19.215        0.167      334.178        3.979      870.981
11/04/2014  08:11:00       96.170       73.744       44.169       37.192       26.029       30.429     1383.230      677.483      925.914        0.981        0.149      121.189       27.329        0.051      333.836        3.412      871.006
11/04/2014  08:12:00       43.550       35.744       17.102       43.587       31.592       27.074     1899.848      998.049      732.983        0.355        0.182       56.341       24.672        0.192      334.218        4.048      871.002
11/04/2014  08:13:00       20.514       56.025       25.254       36.135       29.291       36.462     1305.715      857.952     1329.513        0.384        0.175       59.662       28.685        0.231      334.318        4.211      871.023
11/04/2014  08:14:00      109.736       66.095       25.302       42.829       30.090       36.323     1834.326      905.421     1319.327        1.055        0.203      128.104       19.811        0.024      334.001        3.685      871.037
11/04/2014  08:15:00       96.055       82.536       13.735       50.050       38.692       41.636     2505.038     1497.053     1733.572        1.098        0.287      126.644       23.292        0.034      333.826        3.396      871.049
11/04/2014  08:16:00       64.045       49.813        8.102       36.231       41.140       34.381     1312.656     1692.459     1182.043        0.542        0.209       81.136       26.378        0.106      334.040        3.750      871.068
11/04/2014  08:17:00       23.470       67.574       -7.071       39.868       44.988       35.233     1589.454     2023.914     1241.348        0.501        0.243       71.534       28.421        0.158      334.019        3.716      871.086
11/04/2014  08:18:00       68.515       48.121        4.826       34.156       28.609       25.316     1166.639      818.447      640.914        0.483        0.131       83.725       15.539        0.034      334.050        3.767      871.127
11/04/2014  08:19:00       24.082        3.536       13.027       31.998       18.186       21.715     1023.848      330.719      471.531        0.129        0.091       24.340       16.745        0.473      334.248        4.095      871.157
11/04/2014  08:20:00       85.488       28.635        2.314       49.126       31.329       22.130     2413.382      981.518      489.739        0.601        0.194       90.156       12.515        0.019      334.171        3.968      871.184
11/04/2014  08:21:00       52.990       24.619        0.750       33.614       33.070       27.798     1129.915     1093.642      772.744        0.320        0.150       58.430       10.658        0.033      334.067        3.796      871.208
11/04/2014  08:22:00       17.330       72.230        8.760       22.114       32.161       27.477      489.022     1034.309      754.970        0.394        0.114       74.280       16.234        0.048      334.292        4.169      871.211
11/04/2014  08:23:00       23.048       33.346       -5.426       24.634       27.127       16.457      606.813      735.877      270.820        0.164        0.081       40.536       11.652        0.083      334.324        4.221      871.212
11/04/2014  08:24:00       -8.851        8.862       32.283       13.672       17.256       19.201      186.927      297.771      368.670        0.103        0.043       12.525        8.213        0.430      334.661        4.780      871.213
11/04/2014  08:25:00       18.450       18.678       48.418       26.594       28.555       18.342      707.255      815.375      336.417        0.245        0.093       26.254       16.403        0.390      334.417        4.377      871.197
11/04/2014  08:26:00       59.805       61.191       56.101       32.966       33.384       24.599     1086.788     1114.487      605.096        0.664        0.140       85.562       20.490        0.057      334.246        4.092      871.172
11/04/2014  08:27:00       59.291       47.335       40.034       30.944       29.975       30.595      957.557      898.508      936.025        0.507        0.140       75.869       27.805        0.134      334.127        3.895      871.159
11/04/2014  08:28:00       -2.504        8.031       22.484       12.150       20.752       14.871      147.619      430.626      221.150        0.069        0.040        8.412       12.434        2.185      334.601        4.682      871.142
11/04/2014  08:29:00       -4.185       22.078       46.121       14.691       30.134       23.456      215.827      908.035      550.197        0.215        0.084       22.471       21.622        0.926      334.806        5.020      871.151
11/04/2014  08:30:00       -1.940        6.250       22.639       24.889       51.016       25.103      619.470     2602.623      630.154        0.220        0.193        6.544       23.956       13.401      334.691        4.831      871.174
11/04/2014  08:31:00       27.523       58.778       -1.355       33.024       37.122       25.049     1090.568     1378.064      627.467        0.365        0.155       64.903       20.696        0.102      334.522        4.550      871.186
11/04/2014  08:32:00       80.361       55.475       11.965       23.223       19.453       25.546      539.316      378.410      652.575        0.562        0.079       97.649        7.266        0.006      334.268        4.129      871.188
11/04/2014  08:33:00       27.181        8.914       -8.681       15.766       24.256       17.443      248.556      588.368      304.269        0.102        0.057       28.605        8.801        0.095      334.306        4.191      871.190
11/04/2014  08:34:00       35.695       29.261        2.753       25.852       15.167       23.043      668.305      230.031      530.966        0.178        0.071       46.156       13.159        0.081      334.435        4.406      871.199
11/04/2014  08:35:00       65.153       46.706       -0.609       30.001       20.851       21.499      900.064      434.755      462.217        0.411        0.090       80.165       12.526        0.024      334.456        4.440      871.212
11/04/2014  08:36:00       58.977       18.166       -0.305       33.360       27.562       24.587     1112.920      759.670      604.533        0.314        0.124       61.712       14.863        0.058      334.387        4.327      871.237
11/04/2014  08:37:00        7.920       11.159       16.806       23.677       30.827       21.729      560.609      950.291      472.165        0.123        0.099       13.684       13.204        0.931      334.912        5.197      871.263
11/04/2014  08:38:00       -4.575       60.383       -2.075       17.897       29.251       19.259      320.316      855.642      370.928        0.261        0.077       60.556       16.284        0.072      334.536        4.573      871.269
11/04/2014  08:39:00       38.429       32.438       -6.176       16.661       22.666       17.589      277.591      513.746      309.381        0.183        0.055       50.289       10.243        0.041      334.514        4.536      871.264
11/04/2014  08:40:00        0.853       68.583      -14.583       33.522       46.503       14.419     1123.720     2162.563      207.913        0.420        0.175       68.589       11.602        0.029      334.273        4.136      871.263
11/04/2014  08:41:00        0.858       83.213       -7.099       17.049       33.930       18.244      290.669     1151.261      332.840        0.437        0.089       83.218       18.867        0.051      334.454        4.438      871.260
11/04/2014  08:42:00      -11.976       50.627       -1.236       13.338       33.938       19.833      177.905     1151.754      393.338        0.222        0.086       52.024       17.497        0.113      334.587        4.658      871.267
11/04/2014  08:43:00        1.923       39.317        5.648       22.776       38.418       22.289      518.760     1475.966      496.802        0.204        0.125       39.364       21.733        0.305      334.810        5.027      871.279
11/04/2014  08:44:00       23.826       22.906       13.549       30.062       22.433       21.614      903.736      503.237      467.183        0.157        0.094       33.051       19.182        0.337      334.924        5.218      871.306
11/04/2014  08:45:00       20.528       37.270       -2.371       21.588       43.832       16.967      466.046     1921.267      287.880        0.225        0.134       42.549       18.304        0.185      334.683        4.818      871.333
11/04/2014  08:46:00       17.195       56.643        3.350       18.000       45.358       21.703      323.996     2057.351      471.018        0.318        0.143       59.195       11.544        0.038      334.851        5.097      871.364
11/04/2014  08:47:00       75.638       55.007       -0.391       24.767       23.920       18.837      613.394      572.145      354.814        0.514        0.077       93.525       15.323        0.027      334.578        4.644      871.391
11/04/2014  08:48:00       70.349       41.118       -7.328       14.545       17.192       10.571      211.544      295.571      111.748        0.366        0.031       81.485        5.036        0.004      334.423        4.388      871.399
11/04/2014  08:49:00       45.571       51.498       -5.324       29.810       38.742       21.670      888.624     1500.943      469.581        0.381        0.143       68.766       20.552        0.089      334.572        4.633      871.395
11/04/2014  08:50:00       -2.463       -3.243        0.176       22.741       17.641       14.386      517.148      311.219      206.965        0.053        0.052        4.073        8.682        4.545      334.900        5.179      871.391
11/04/2014  08:51:00       24.531       19.136       28.848       24.754       23.251       20.236      612.739      540.589      409.511        0.168        0.078       31.112       11.731        0.142      335.084        5.484      871.394
11/04/2014  08:52:00       -8.867       18.477       10.260       26.423       18.259       18.538      698.189      333.392      343.641        0.095        0.069       20.494       14.190        0.479      335.056        5.437      871.405
11/04/2014  08:53:00      -55.929       17.450       -3.880       21.872       15.609       15.483      478.386      243.646      239.708        0.220        0.048       58.589        7.220        0.015      334.731        4.896      871.422
11/04/2014  08:54:00      -43.095        9.001       -4.192       20.405       16.747       16.524      416.374      280.478      273.042        0.146        0.048       44.025        6.886        0.024      334.731        4.899      871.434
11/04/2014  08:55:00      -33.381       34.509        2.446       26.514       34.868       19.475      703.016     1215.758      379.261        0.230        0.115       48.012       16.398        0.117      335.087        5.488      871.452
11/04/2014  08:56:00      -30.687       63.159        0.730       28.380       25.519       24.047      805.441      651.217      578.278        0.348        0.102       70.219       17.871        0.065      335.175        5.634      871.473
11/04/2014  08:57:00       25.859       19.166       18.865       31.777       18.709       22.523     1009.801      350.026      507.291        0.163        0.093       32.187       11.508        0.128      335.347        5.921      871.481
11/04/2014  08:58:00       29.585       37.264       12.592       25.777       22.376       24.497      664.472      500.688      600.126        0.209        0.088       47.581       14.536        0.093      335.092        5.498      871.473
11/04/2014  08:59:00      -13.885       78.165      -10.977       31.402       43.408       24.922      986.070     1884.279      621.108        0.496        0.175       79.389       18.693        0.055      334.953        5.266      871.464
11/04/2014  09:00:00       12.278       59.329        3.794       31.829       41.461       25.008     1013.055     1719.030      625.419        0.352        0.168       60.586       24.530        0.164      335.111        5.529      871.462
11/04/2014  09:01:00        4.901       84.655      -12.840       24.695       52.697       23.500      609.847     2776.926      552.270        0.565        0.197       84.796       13.206        0.024      334.868        5.125      871.473
11/04/2014  09:02:00       -3.082       18.085       19.636       21.799       33.365       25.338      475.175     1113.190      641.998        0.148        0.112       18.346       23.038        1.577      335.394        5.999      871.495
11/04/2014  09:03:00       -7.321       30.479        7.535       19.030       38.965       19.426      362.145     1518.307      377.350        0.165        0.113       31.346       25.842        0.680      335.388        5.990      871.512
11/04/2014  09:04:00       -8.298       -0.112        9.644       22.416       28.873       21.951      502.495      833.666      481.849        0.099        0.091        8.299       17.566        4.481      335.498        6.173      871.532
11/04/2014  09:05:00      -43.022      -52.412       -2.684       18.701       22.426       10.993      349.726      502.917      120.853        0.279        0.049       67.808       12.853        0.036      334.876        5.138      871.540
11/04/2014  09:06:00       -5.713      -22.393      -14.008       12.869       30.289       13.939      165.618      917.439      194.302        0.100        0.064       23.110       16.015        0.480      335.069        5.458      871.553
11/04/2014  09:07:00      -32.067       27.673      -18.130       19.632       26.359       16.080      385.433      694.814      258.554        0.173        0.067       42.357       16.226        0.147      335.013        5.365      871.551
11/04/2014  09:08:00        2.011       32.232       -3.654       26.455       29.341       27.316      699.853      860.905      746.164        0.168        0.115       32.294       23.800        0.543      335.297        5.837      871.542
11/04/2014  09:09:00      -26.989      -15.572      -40.048       30.293       24.897       19.141      917.690      619.842      366.368        0.224        0.095       31.160        4.868        0.024      335.277        5.803      871.536
11/04/2014  09:10:00      -33.043       -7.287       -4.919       39.068       15.543       20.234     1526.304      241.593      409.416        0.167        0.109       33.837        7.961        0.055      335.294        5.832      871.535
11/04/2014  09:11:00      -52.654      -32.668        0.903       45.318       25.620       21.580     2053.681      656.398      465.711        0.351        0.159       61.965       21.460        0.120      335.287        5.821      871.516
11/04/2014  09:12:00       -5.729      -54.120        5.124       31.611       22.342       24.331      999.243      499.158      592.017        0.254        0.105       54.423       21.406        0.155      335.307        5.855      871.505
11/04/2014  09:13:00       13.948      -35.846        1.100       13.042       15.793       12.854      170.083      249.431      165.216        0.103        0.029       38.464        8.209        0.046      335.171        5.626      871.484
11/04/2014  09:14:00      -16.330      -38.783       -7.478       15.517       17.776       13.699      240.779      315.994      187.673        0.129        0.037       42.080        5.720        0.018      335.217        5.703      871.463
11/04/2014  09:15:00       -1.784      -53.013        8.523       18.280       31.041       24.232      334.158      963.530      587.214        0.239        0.094       53.043       19.603        0.137      335.364        5.949      871.472
11/04/2014  09:16:00      -72.996      -20.389        4.342       29.761       30.891       16.896      885.714      954.234      285.481        0.394        0.106       75.790       15.972        0.044      335.294        5.832      871.470
11/04/2014  09:17:00      -27.499      -30.634       -1.532       24.471       31.472       23.051      598.839      990.506      531.361        0.191        0.106       41.166       24.017        0.340      335.420        6.044      871.478
11/04/2014  09:18:00      -62.663      -16.105       -4.679       31.670       23.359       18.817     1003.015      545.665      354.075        0.305        0.095       64.700       16.286        0.063      335.368        5.954      871.465
11/04/2014  09:19:00      -28.588       10.967       21.407       44.654       23.776       20.402     1994.019      565.297      416.249        0.219        0.149       30.619       24.255        0.627      336.013        7.030      871.451
11/04/2014  09:20:00      -21.619        7.960       11.001       54.896       47.749       19.340     3013.526     2279.972      374.046        0.316        0.283       23.038       18.345        0.634      335.816        6.702      871.435
11/04/2014  09:21:00      -38.839      -87.442        2.668       29.088       34.878       24.312      846.112     1216.488      591.067        0.591        0.133       95.679       19.319        0.041      335.458        6.105      871.427
11/04/2014  09:22:00      -18.589      -40.547        1.375       14.974       32.087       17.607      224.227     1029.575      310.020        0.178        0.078       44.606       16.148        0.131      335.473        6.130      871.415
11/04/2014  09:23:00      -64.343      -54.551       -6.245       22.474       26.890       15.913      505.093      723.057      253.209        0.432        0.074       84.355       11.424        0.018      335.443        6.080      871.408
11/04/2014  09:24:00      -77.805      -30.667       -3.904       25.644       30.748       17.801      657.616      945.447      316.861        0.446        0.096       83.630       11.086        0.018      335.435        6.066      871.416
11/04/2014  09:25:00      -62.568      -55.498       -2.672       33.016       35.235       20.047     1090.076     1241.508      401.870        0.487        0.137       83.634       20.309        0.059      335.570        6.291      871.417
11/04/2014  09:26:00      -83.700      -93.587      -12.970       28.812       33.972       21.143      830.132     1154.091      447.046        0.918        0.122      125.555       13.612        0.012      335.456        6.101      871.414
11/04/2014  09:27:00      -89.148      -69.565       -5.989       44.986       29.742       27.242     2023.696      884.597      742.119        0.824        0.183      113.078       27.616        0.060      335.461        6.109      871.389
11/04/2014  09:28:00     -133.272      -42.254      -13.410       45.224       21.451       19.988     2045.222      460.138      399.515        1.132        0.145      139.810       20.670        0.022      335.436        6.066      871.370
11/04/2014  09:29:00      -69.817      -35.185        4.400       38.971       30.758       22.613     1518.770      946.043      511.335        0.455        0.149       78.182       19.616        0.063      335.568        6.288      871.363
11/04/2014  09:30:00      -29.724      -18.919       -6.381       21.200       15.715        9.130      449.426      246.966       83.357        0.103        0.039       35.234        3.593        0.010      335.661        6.445      871.356
11/04/2014  09:31:00      -48.246      -46.701       -1.347       43.006       28.907       20.477     1849.511      835.586      419.307        0.381        0.155       67.146       24.554        0.134      335.672        6.461      871.369
11/04/2014  09:32:00      -32.232      -30.570       -0.892       11.259       18.282       11.740      126.764      334.215      137.839        0.129        0.030       44.424        5.294        0.014      335.545        6.249      871.381
11/04/2014  09:33:00       -7.638      -24.256       -1.378       12.387       31.143       17.641      153.447      969.890      311.213        0.104        0.072       25.430       16.993        0.447      335.740        6.576      871.375
11/04/2014  09:34:00       10.650       32.485       53.469       29.091       22.149       12.070      846.287      490.570      145.695        0.275        0.074       34.186       12.800        0.140      336.047        7.087      871.368
11/04/2014  09:35:00       16.724        6.588       35.298       28.767       35.006       30.341      827.554     1225.386      920.588        0.227        0.149       17.975       26.934        2.245      335.910        6.859      871.356
11/04/2014  09:36:00       76.768      -15.928       12.438       29.116       28.044       27.264      847.742      786.458      743.344        0.434        0.119       78.403       21.739        0.077      335.792        6.662      871.349
11/04/2014  09:37:00       -1.658       -2.955       20.024       19.585       10.795       16.419      383.570      116.526      269.583        0.059        0.038        3.389       13.430       15.707      336.361        7.609      871.355
11/04/2014  09:38:00      -36.840        2.771        7.385       19.790       23.491       14.917      391.650      551.842      222.523        0.129        0.058       36.944       11.735        0.101      336.064        7.114      871.356
11/04/2014  09:39:00        3.895       12.887       10.931       17.339       23.597       14.479      300.627      556.817      209.651        0.068        0.053       13.463       12.925        0.922      336.378        7.640      871.341
11/04/2014  09:40:00       -8.255       29.878        9.638       27.323       24.628       36.392      746.524      606.521     1324.356        0.187        0.134       30.998       17.758        0.328      336.201        7.345      871.336
11/04/2014  09:41:00      -18.601       -6.430       -4.410       23.287       20.304       12.650      542.286      412.235      160.025        0.076        0.056       19.681        7.840        0.159      336.001        7.011      871.338
11/04/2014  09:42:00       26.041       57.898       68.416       41.011       45.694       30.705     1681.922     2087.964      942.826        0.671        0.236       63.485       25.531        0.162      336.272        7.462      871.316
11/04/2014  09:43:00       -4.198       26.751       45.916       21.067       32.457       18.501      443.798     1053.466      342.273        0.234        0.092       27.079       13.838        0.261      336.527        7.888      871.330
11/04/2014  09:44:00      -27.432       -5.068       25.623       28.534       33.686       24.119      814.207     1134.744      581.743        0.198        0.127       27.896       25.143        0.812      336.511        7.862      871.351
11/04/2014  09:45:00       -5.899       21.299       46.769       13.189       21.989       16.464      173.961      483.521      271.062        0.180        0.046       22.101       12.827        0.337      336.672        8.132      871.374
11/04/2014  09:46:00       -1.519       -7.346       19.082       30.167       35.818       27.668      910.024     1282.964      765.525        0.169        0.148        7.501       20.351        7.361      336.466        7.786      871.386
11/04/2014  09:47:00       15.572      -17.516        4.230       39.295       64.605       36.024     1544.064     4173.806     1297.750        0.379        0.351       23.437       29.887        1.626      336.322        7.546      871.385
11/04/2014  09:48:00       37.708      -32.085        9.826       30.889       49.767       29.303      954.103     2476.796      858.660        0.342        0.214       49.510       18.789        0.144      336.249        7.425      871.371
11/04/2014  09:49:00       30.329       89.141      100.226       57.040       57.101       37.015     3253.553     3260.519     1370.084        1.340        0.394       94.159       38.982        0.171      336.233        7.396      871.356
11/04/2014  09:50:00      110.260      102.745       58.204       47.974       47.490       42.347     2301.521     2255.335     1793.278        1.622        0.318      150.711       31.577        0.044      335.836        6.732      871.357
11/04/2014  09:51:00      125.981       77.595       27.988       65.323       30.443       46.077     4267.039      926.774     2123.117        1.499        0.366      147.960       35.062        0.056      335.903        6.845      871.346
11/04/2014  09:52:00       88.228       80.882       32.026       58.037       44.045       51.177     3368.292     1939.953     2619.041        1.164        0.396      119.691       31.146        0.068      336.207        7.352      871.332
11/04/2014  09:53:00      106.293      142.404      111.374       75.677       61.255       52.016     5726.933     3752.183     2705.680        2.808        0.609      177.699       39.666        0.050      336.112        7.193      871.312
11/04/2014  09:54:00      131.686       84.801       19.713       40.046       49.194       37.244     1603.659     2420.005     1387.082        1.516        0.271      156.628       22.117        0.020      335.943        6.913      871.321
11/04/2014  09:55:00       56.841       61.406       56.727       77.753       52.731       61.377     6045.601     2780.587     3767.172        1.140        0.630       83.676       52.609        0.395      336.291        7.493      871.311
11/04/2014  09:56:00       20.949      124.495      127.696       38.901       49.318       34.445     1513.273     2432.284     1186.428        1.869        0.257      126.246       33.753        0.071      336.080        7.142      871.289
11/04/2014  09:57:00       80.264       83.045       39.879       46.557       45.611       45.865     2167.544     2080.389     2103.622        1.064        0.318      115.494       30.112        0.068      336.169        7.289      871.261
11/04/2014  09:58:00      123.446       94.774       32.123       39.634       28.853       33.194     1570.848      832.480     1101.867        1.438        0.175      155.631       16.362        0.011      335.994        6.998      871.226
11/04/2014  09:59:00      143.917       74.215       21.741       35.640       39.965       45.691     1270.192     1597.231     2087.631        1.582        0.248      161.926       16.741        0.011      336.065        7.116      871.204
11/04/2014  10:00:00      123.528       78.397        6.541       42.932       43.655       41.728     1843.117     1905.766     1741.263        1.347        0.275      146.305       25.828        0.031      336.189        7.325      871.205
11/04/2014  10:01:00       78.388       49.057       21.344       55.848       48.117       34.875     3118.999     2315.241     1216.256        0.783        0.333       92.473       22.087        0.057      336.338        7.574      871.225
11/04/2014  10:02:00      114.487       73.732       20.887       58.698       41.281       34.830     3445.437     1704.155     1213.122        1.267        0.318      136.175       26.450        0.038      336.265        7.451      871.256
11/04/2014  10:03:00       71.131       63.628       30.381       53.554       33.352       30.811     2868.075     1112.367      949.316        0.748        0.246       95.437       21.327        0.050      336.405        7.684      871.297
11/04/2014  10:04:00       99.332       71.250       -4.622       33.864       29.636       27.649     1146.763      878.321      764.465        0.888        0.139      122.243       19.053        0.024      336.159        7.273      871.320
11/04/2014  10:05:00       76.634       62.534        4.387       42.693       33.815       31.444     1822.732     1143.484      988.738        0.688        0.198       98.910       16.367        0.027      336.368        7.623      871.313
11/04/2014  10:06:00       78.325      100.896       63.525       53.444       47.433       44.809     2856.254     2249.905     2007.823        1.373        0.356      127.729       38.002        0.089      336.439        7.742      871.294
11/04/2014  10:07:00      116.587       97.923        9.408       45.065       42.015       41.715     2030.873     1765.240     1740.157        1.440        0.277      152.254       18.318        0.014      336.140        7.241      871.285
11/04/2014  10:08:00      136.629       88.683       19.359       41.378       28.760       36.500     1712.127      827.126     1332.277        1.539        0.194      162.887       16.370        0.010      336.178        7.304      871.292
11/04/2014  10:09:00      117.738       99.419       33.956       39.218       29.388       41.649     1538.068      863.658     1734.673        1.452        0.207      154.099       24.373        0.025      336.177        7.303      871.285
11/04/2014  10:10:00       90.433       76.278       50.806       67.581       43.305       45.665     4567.254     1875.294     2085.331        1.255        0.426      118.307       41.698        0.124      336.339        7.574      871.280
11/04/2014  10:11:00       42.678       76.044       76.147       60.507       50.873       32.604     3661.149     2588.046     1063.024        1.036        0.366       87.201       33.344        0.146      336.552        7.930      871.269
11/04/2014  10:12:00       61.477       50.857       58.081       73.832       49.644       43.310     5451.186     2464.538     1875.741        0.976        0.490       79.786       34.116        0.183      336.570        7.960      871.260
11/04/2014  10:13:00       93.759      109.363      101.181       59.486       41.147       41.337     3538.615     1693.099     1708.726        1.896        0.347      144.052       28.283        0.039      336.250        7.425      871.257
11/04/2014  10:14:00       89.511       72.236       74.619       45.909       40.624       46.984     2107.677     1650.347     2207.469        1.238        0.298      115.023       24.740        0.046      336.283        7.480      871.262
11/04/2014  10:15:00       96.022       55.245       31.327       55.252       30.430       37.719     3052.743      925.983     1422.729        0.933        0.270      110.780       26.952        0.059      336.315        7.534      871.280
11/04/2014  10:16:00       87.880       65.788       11.029       64.002       50.138       32.156     4096.214     2513.772     1033.987        0.991        0.382      109.777       16.632        0.023      336.378        7.640      871.274
11/04/2014  10:17:00      132.560       74.803       17.217       63.516       49.050       41.873     4034.235     2405.943     1753.342        1.583        0.410      152.209       33.312        0.048      336.238        7.405      871.282
11/04/2014  10:18:00      136.272       93.523        3.301       28.644       28.039       31.958      820.505      786.210     1021.334        1.498        0.131      165.277        7.479        0.002      336.147        7.253      871.280
11/04/2014  10:19:00      100.500       62.330       12.431       41.351       37.645       31.351     1709.896     1417.136      982.909        0.912        0.205      118.260       19.626        0.028      336.335        7.568      871.277
11/04/2014  10:20:00       84.197       59.549       -3.693       40.319       31.128       28.714     1625.616      968.975      824.480        0.703        0.171      103.127       13.192        0.016      336.350        7.593      871.287
11/04/2014  10:21:00       88.437       69.166       13.449       56.392       63.013       41.809     3180.004     3970.582     1747.998        1.084        0.445      112.272       32.531        0.084      336.541        7.913      871.298
11/04/2014  10:22:00       80.812       34.356       18.083       48.176       43.202       32.412     2320.938     1866.419     1050.552        0.664        0.262       87.812       20.381        0.054      336.410        7.693      871.328
11/04/2014  10:23:00        7.147       22.991       10.549       27.735       38.137       20.363      769.220     1454.467      414.670        0.166        0.132       24.076       16.020        0.443      336.722        8.216      871.344
11/04/2014  10:24:00       20.709        4.601       12.020       28.308       25.226       29.417      801.319      636.340      865.371        0.145        0.115       21.214       13.565        0.409      336.783        8.316      871.320
11/04/2014  10:25:00       -1.962      -36.009        4.811       22.324       32.588       21.551      498.376     1061.945      464.460        0.167        0.101       36.062       17.635        0.239      336.795        8.338      871.297
11/04/2014  10:26:00       45.516      -65.435       -3.178       33.551       25.644       27.692     1125.646      657.616      766.835        0.446        0.128       79.709       25.703        0.104      336.387        7.654      871.281
11/04/2014  10:27:00       17.689        9.151       43.047       22.680       41.539       22.979      514.393     1725.461      528.056        0.251        0.138       19.916       22.456        1.271      337.074        8.802      871.267
11/04/2014  10:28:00       41.274       16.917       47.510       39.751       58.347       36.418     1580.129     3404.381     1326.292        0.528        0.316       44.606       38.524        0.746      336.902        8.513      871.295
11/04/2014  10:29:00       13.499       47.424       72.668       25.855       70.580       34.863      668.460     4981.482     1215.451        0.729        0.343       49.307       43.718        0.786      337.003        8.684      871.319
11/04/2014  10:30:00       71.177       80.829       77.139       76.478       46.255       29.656     5848.877     2139.525      879.449        1.321        0.443      107.701       20.442        0.036      336.593        7.997      871.354
11/04/2014  10:31:00       22.471       47.646       72.990       22.553       33.734       16.049      508.619     1138.005      257.581        0.500        0.095       52.679       17.207        0.107      336.863        8.449      871.367
11/04/2014  10:32:00       54.576        9.255       44.214       43.752       39.233       29.183     1914.239     1539.231      851.653        0.466        0.215       55.356       31.092        0.315      336.676        8.139      871.374
11/04/2014  10:33:00       75.906       32.967       21.196       60.479       56.358       38.712     3657.759     3176.265     1498.611        0.781        0.417       82.756       32.277        0.152      336.801        8.347      871.375
11/04/2014  10:34:00      104.454       79.795       10.398       52.058       49.302       32.120     2710.014     2430.733     1031.725        1.178        0.309      131.445       22.314        0.029      336.627        8.056      871.358
11/04/2014  10:35:00       67.680       54.678       38.832       58.153       54.350       53.006     3381.818     2953.971     2809.615        0.911        0.457       87.007       38.044        0.191      336.861        8.447      871.360
11/04/2014  10:36:00       77.963       53.142       36.248       38.772       36.431       34.912     1503.239     1327.206     1218.830        0.713        0.202       94.352       25.686        0.074      336.572        7.963      871.351
11/04/2014  10:37:00       96.583      -23.123       18.782       50.863       45.121       30.773     2587.049     2035.918      946.995        0.789        0.278       99.313       31.656        0.102      336.553        7.933      871.331
11/04/2014  10:38:00        2.133      -34.520       15.204       47.871       59.190       27.416     2291.672     3503.447      751.645        0.399        0.327       34.585       15.323        0.196      336.990        8.662      871.319
11/04/2014  10:39:00       40.414      -79.638       -4.990       15.910       56.599       16.367      253.128     3203.457      267.870        0.586        0.186       89.306       10.527        0.014      336.482        7.813      871.300
11/04/2014  10:40:00      -11.733      -38.405       10.992       31.028       33.976       22.777      962.738     1154.400      518.800        0.218        0.132       40.158       16.170        0.162      337.034        8.736      871.297
11/04/2014  10:41:00       31.320      -79.648       -2.781       43.238       35.889       25.192     1869.499     1288.007      634.621        0.556        0.190       85.585       14.925        0.030      336.746        8.254      871.291
11/04/2014  10:42:00       42.726     -107.213      -23.354       26.067       34.952       28.319      679.476     1221.668      801.941        0.828        0.135      115.413       22.194        0.037      336.826        8.388      871.277
11/04/2014  10:43:00       42.682      -25.827       26.416       42.156       50.391       31.284     1777.143     2539.207      978.702        0.424        0.265       49.887       24.846        0.248      337.249        9.095      871.249
11/04/2014  10:44:00       41.587      -63.279        9.992       39.474       27.285       34.749     1558.206      744.497     1207.487        0.467        0.176       75.721       25.709        0.115      336.670        8.127      871.231
11/04/2014  10:45:00       16.253       51.454        5.723       19.296       55.179       24.919      372.348     3044.740      620.967        0.349        0.202       53.960       20.831        0.149      337.016        8.707      871.202
11/04/2014  10:46:00        7.943       55.752       19.971       23.929       34.346       31.313      572.600     1179.665      980.521        0.315        0.137       56.315       25.916        0.212      337.112        8.865      871.171
11/04/2014  10:47:00       42.568       33.254       13.542       41.019       31.520       31.779     1682.580      993.504     1009.922        0.339        0.184       54.017       26.711        0.245      337.372        9.302      871.167
11/04/2014  10:48:00       81.520       78.520       14.897       59.138       45.103       40.066     3497.295     2034.251     1605.312        1.008        0.357      113.185       21.246        0.035      337.243        9.085      871.160
11/04/2014  10:49:00       35.439       55.823       21.228       43.322       41.204       37.876     1876.763     1697.765     1434.592        0.491        0.250       66.122       37.997        0.330      337.203        9.018      871.164
11/04/2014  10:50:00       31.615       23.832       15.440       54.330       57.599       33.217     2951.698     3317.591     1103.343        0.459        0.369       39.592       30.080        0.577      337.478        9.479      871.151
11/04/2014  10:51:00      108.497      102.007       10.390       43.616       25.800       34.475     1902.347      665.651     1188.545        1.302        0.188      148.920       16.628        0.012      336.884        8.485      871.153
11/04/2014  10:52:00       18.178       30.593       20.973       31.671       33.298       26.814     1003.027     1108.740      718.993        0.227        0.142       35.586       17.360        0.238      337.324        9.222      871.149
11/04/2014  10:53:00       94.683       63.616       11.301       53.034       31.642       32.797     2812.584     1001.200     1075.655        0.901        0.244      114.069       21.053        0.034      337.098        8.843      871.151
11/04/2014  10:54:00      123.195       98.755        8.263       62.853       46.791       43.404     3950.471     2189.372     1883.914        1.651        0.401      157.891       25.363        0.026      337.100        8.846      871.148
11/04/2014  10:55:00       75.212       74.972       -0.013       50.264       38.273       37.168     2526.462     1464.819     1381.490        0.832        0.269      106.196       27.179        0.066      337.132        8.902      871.166
11/04/2014  10:56:00       29.422       28.880      -13.555       35.158       31.031       23.596     1236.104      962.941      556.789        0.232        0.138       41.228       18.704        0.206      337.037        8.741      871.155
11/04/2014  10:57:00       12.328      104.584      -10.079       39.957       40.676       25.798     1596.574     1654.532      665.539        0.755        0.196      105.308       22.020        0.044      337.153        8.933      871.146
11/04/2014  10:58:00      -49.577       49.234      -13.555       32.707       53.982       29.818     1069.730     2914.087      889.133        0.497        0.244       69.870       20.342        0.085      337.111        8.864      871.121
11/04/2014  10:59:00      -37.997       20.520       -8.041       32.473       37.925       21.242     1054.481     1438.279      451.214        0.244        0.147       43.184       13.501        0.098      337.335        9.239      871.110
11/04/2014  11:00:00      -37.703        4.697        4.593       29.886       44.884       20.114      893.172     2014.534      404.570        0.239        0.166       37.994       19.179        0.255      337.725        9.893      871.086
11/04/2014  11:01:00      -13.408      -19.949       15.558       26.020       20.745       19.091      677.019      430.349      364.485        0.115        0.074       24.036       10.557        0.193      337.812       10.038      871.072
11/04/2014  11:02:00      -40.764      -42.621      -10.561       27.223       32.114       26.599      741.103     1031.314      707.507        0.303        0.124       58.977       18.828        0.102      337.342        9.250      871.050
11/04/2014  11:03:00       -6.358      -25.415       28.494       22.323       35.323       22.920      498.297     1247.681      525.312        0.188        0.114       26.198       17.330        0.438      338.029       10.404      871.031
11/04/2014  11:04:00        8.360       21.619       45.370       25.744       30.736       25.031      662.741      944.684      626.536        0.241        0.112       23.179       18.540        0.640      338.207       10.703      871.015
11/04/2014  11:05:00       -3.412       26.448       66.365       27.077       36.101       18.624      733.178     1303.291      346.839        0.375        0.119       26.667       16.662        0.390      338.093       10.511      871.003
11/04/2014  11:06:00       21.230        6.060       44.151       44.734       42.122       42.420     2001.104     1774.281     1799.439        0.400        0.279       22.078       39.773        3.245      337.939       10.251      870.966
11/04/2014  11:07:00       97.175       61.210       53.888       80.002       58.155       50.693     6400.320     3382.002     2569.741        1.422        0.618      114.846       37.512        0.107      337.573        9.639      870.945
11/04/2014  11:08:00      154.117      115.172        7.392       60.937       44.399       42.621     3713.314     1971.296     1816.530        2.228        0.375      192.397       22.960        0.014      337.298        9.175      870.926
11/04/2014  11:09:00      105.410       77.563        0.332       37.576       30.435       27.634     1411.993      926.288      763.664        1.011        0.155      130.872       16.418        0.016      337.221        9.049      870.929
11/04/2014  11:10:00       67.893       46.571       -6.259       24.651       21.421       18.342      607.683      458.877      336.441        0.411        0.070       82.330       14.182        0.030      337.141        8.913      870.928
11/04/2014  11:11:00       39.086       60.957       -6.348       30.061       37.616       34.521      903.664     1414.968     1191.699        0.440        0.176       72.412       22.492        0.096      337.554        9.606      870.923
11/04/2014  11:12:00      131.851      114.528       12.337       42.019       35.718       32.355     1765.620     1275.754     1046.835        1.737        0.204      174.646        9.218        0.003      337.372        9.300      870.929
11/04/2014  11:13:00       31.912       38.289       20.098       34.081       32.007       27.547     1161.514     1024.429      758.840        0.292        0.147       49.844       18.508        0.138      337.639        9.748      870.935
11/04/2014  11:14:00       13.289       11.027       10.140       36.499       33.193       29.297     1332.152     1101.765      858.332        0.185        0.165       17.268       19.096        1.223      337.755        9.942      870.939
11/04/2014  11:15:00       76.467       39.364        7.909       63.415       55.126       37.040     4021.517     3038.850     1371.926        0.794        0.422       86.004       27.035        0.099      337.658        9.781      870.935
11/04/2014  11:16:00       56.556       35.307       16.273       53.601       39.942       27.193     2873.088     1595.364      739.466        0.496        0.260       66.672       24.697        0.137      337.935       10.246      870.941
11/04/2014  11:17:00       87.124       60.464       13.108       40.507       30.973       39.727     1640.810      959.297     1578.247        0.780        0.209      106.049       23.749        0.050      337.631        9.734      870.941
11/04/2014  11:18:00       29.304       99.036      -21.078       49.914       45.740       30.128     2491.382     2092.156      907.669        0.830        0.275      103.280       25.830        0.063      337.431        9.400      870.945
11/04/2014  11:19:00       -5.863       68.127      -26.671       30.288       46.024       20.563      917.358     2118.230      422.817        0.442        0.173       68.379       13.682        0.040      337.407        9.359      870.919
11/04/2014  11:20:00       10.859       -7.332        3.218       10.652       17.017       18.305      113.461      289.584      335.079        0.046        0.037       13.102       11.473        0.767      337.791       10.004      870.878
11/04/2014  11:21:00       65.596       41.503       46.560       30.820       28.280       30.667      949.846      799.763      940.486        0.544        0.135       77.623       22.916        0.087      337.786        9.996      870.843
11/04/2014  11:22:00       14.315        1.052       57.046       36.313       42.905       28.563     1318.630     1840.864      815.836        0.372        0.199       14.353       19.244        1.797      338.279       10.823      870.789
11/04/2014  11:23:00       55.548       46.712       46.932       47.388       43.294       37.353     2245.617     1874.377     1395.254        0.649        0.276       72.578       22.876        0.099      337.796       10.012      870.770
11/04/2014  11:24:00       51.798      -79.607        0.069       43.502       63.678       32.513     1892.461     4054.916     1057.116        0.801        0.350       94.975       41.939        0.195      337.663        9.790      870.748
11/04/2014  11:25:00       22.202      -16.509       -6.588       19.538       38.493       28.454      381.752     1481.685      809.623        0.174        0.134       27.667       24.379        0.776      337.870       10.136      870.726
11/04/2014  11:26:00       11.606        8.963        6.741       27.063       14.394       24.003      732.381      207.175      576.168        0.089        0.076       14.664       14.917        1.035      338.207       10.700      870.700
11/04/2014  11:27:00      -39.916        1.918       -5.257       25.513       22.309       29.696      650.903      497.674      881.849        0.183        0.102       39.962       17.235        0.186      338.011       10.373      870.671
11/04/2014  11:28:00      -36.641        8.690        5.258       14.463       18.060       16.885      209.181      326.174      285.100        0.113        0.041       37.657        4.965        0.017      338.030       10.404      870.637
11/04/2014  11:29:00      -10.318        5.559       14.946       15.412       20.336       18.526      237.525      413.549      343.230        0.068        0.050       11.720       13.688        1.364      338.663       11.467      870.610
11/04/2014  11:30:00       -4.967        1.592       25.700       16.976       31.093       30.221      288.188      966.780      913.308        0.143        0.108        5.216       23.559       20.402      338.544       11.269      870.574
11/04/2014  11:31:00      -28.045        9.020       -0.856       20.420       16.119       19.405      416.983      259.834      376.560        0.096        0.053       29.460       11.340        0.148      338.427       11.072      870.554
11/04/2014  11:32:00      -38.034       25.668        0.105       32.092       14.886       31.868     1029.928      221.591     1015.583        0.219        0.113       45.885       25.517        0.309      338.335       10.916      870.532
11/04/2014  11:33:00       11.364       21.439       14.218       29.132       25.008       24.901      848.691      625.406      620.058        0.144        0.105       24.264       19.090        0.619      338.673       11.484      870.523
11/04/2014  11:34:00       37.535      -43.483       16.477       69.583      108.089       43.631     4841.799    11683.235     1903.622        1.100        0.921       57.443       49.701        0.749      338.418       11.054      870.496
11/04/2014  11:35:00      115.809      118.904       72.441       52.427       33.004       57.817     2748.592     1089.263     3342.860        1.999        0.359      165.982       41.997        0.064      337.955       10.280      870.499
11/04/2014  11:36:00       40.633      -17.896        4.871       39.169       72.294       28.497     1534.232     5226.456      812.051        0.478        0.379       44.399       28.308        0.407      338.062       10.459      870.490
11/04/2014  11:37:00       22.058      -53.967       -5.253       29.458       72.658       29.529      867.747     5279.141      871.971        0.522        0.351       58.301       28.136        0.233      338.407       11.037      870.477
11/04/2014  11:38:00       23.082      -61.260      -13.997       40.330       61.266       22.562     1626.524     3753.557      509.065        0.518        0.294       65.464       11.508        0.031      338.182       10.659      870.471
11/04/2014  11:39:00      -41.997       -1.028       -5.866       45.858       42.818       23.801     2102.945     1833.352      566.478        0.315        0.225       42.010       16.358        0.152      338.249       10.772      870.464
11/04/2014  11:40:00      -31.760      -26.471       -0.490       43.667       45.814       31.268     1906.828     2098.917      977.686        0.335        0.249       41.345       24.496        0.351      338.503       11.198      870.455
11/04/2014  11:41:00      -13.557      -47.495        1.275       30.440       31.737       28.558      926.621     1007.264      815.555        0.259        0.137       49.392       21.551        0.190      338.506       11.204      870.451
11/04/2014  11:42:00      -40.829      -53.869        0.649       45.133       32.377       30.260     2036.966     1048.285      915.650        0.428        0.200       67.594       27.224        0.162      338.306       10.868      870.448
11/04/2014  11:43:00      -21.722        9.381       14.955       56.924       35.576       21.106     3240.302     1265.631      445.473        0.287        0.248       23.661       13.203        0.311      338.528       11.241      870.443
11/04/2014  11:44:00       27.367        0.033       28.609       29.182       23.604       23.951      851.614      557.165      573.650        0.177        0.099       27.367       19.188        0.492      338.819       11.730      870.447
11/04/2014  11:45:00       -4.413       47.825       61.822       29.406       35.119       27.030      864.691     1233.366      730.625        0.448        0.141       48.028       24.797        0.267      338.942       11.936      870.433
11/04/2014  11:46:00       17.050      -73.275        6.628       37.469       76.066       39.673     1403.898     5786.055     1573.979        0.723        0.438       75.232       37.683        0.251      338.686       11.506      870.419
11/04/2014  11:47:00       23.861       11.839       52.600       45.410       32.381       30.690     2062.062     1048.522      941.895        0.376        0.203       26.636       27.121        1.037      339.009       12.049      870.399
11/04/2014  11:48:00        3.388      -48.427       30.696       26.697       54.675       30.362      712.731     2989.341      921.821        0.396        0.231       48.545       32.734        0.455      338.724       11.570      870.374
11/04/2014  11:49:00       33.957       27.270       36.118       47.453       72.694       49.509     2251.770     5284.348     2451.112        0.659        0.499       43.552       47.379        1.183      338.790       11.681      870.357
11/04/2014  11:50:00       97.651       54.737       31.470       35.082       46.385       40.377     1230.722     2151.614     1630.333        0.927        0.251      111.945       25.529        0.052      338.200       10.690      870.352
11/04/2014  11:51:00       99.799       41.122       41.751       37.292       41.849       37.478     1390.669     1751.327     1404.592        0.897        0.227      107.939       24.349        0.051      338.331       10.910      870.355
11/04/2014  11:52:00      108.059       72.213       50.726       43.591       37.876       34.582     1900.179     1434.621     1195.909        1.200        0.227      129.967       26.800        0.043      338.372       10.978      870.360
11/04/2014  11:53:00       29.975       55.958       70.360       33.712       51.762       34.270     1136.475     2679.319     1174.411        0.698        0.250       63.481       12.382        0.038      338.811       11.716      870.358
11/04/2014  11:54:00       38.288       63.403      -17.312       42.509       45.605       23.692     1807.044     2079.810      561.328        0.512        0.222       74.067       24.764        0.112      338.680       11.496      870.362
11/04/2014  11:55:00       76.840       67.399        5.096       32.268       24.629       28.663     1041.215      606.594      821.561        0.647        0.123      102.211       13.847        0.018      338.482       11.165      870.365
11/04/2014  11:56:00       52.952       28.761       -3.423       18.862       28.515       21.860      355.783      813.078      477.877        0.264        0.082       60.258        8.318        0.019      338.366       10.969      870.359
11/04/2014  11:57:00       36.537       -9.837        8.656       13.723       17.902       25.652      188.323      320.488      658.025        0.134        0.058       37.838       11.800        0.097      338.435       11.083      870.353
11/04/2014  11:58:00       55.502       36.210        0.471       23.235       14.007       20.341      539.847      196.209      413.751        0.277        0.057       66.269       14.504        0.048      338.304       10.866      870.339
11/04/2014  11:59:00       31.467       46.997      -12.749       24.510       17.607       14.881      600.725      310.018      221.432        0.225        0.057       56.559        7.597        0.018      338.348       10.938      870.331
11/04/2014  12:00:00       31.582       58.374       14.634       33.300       26.074       32.089     1108.868      679.871     1029.716        0.372        0.141       66.370       23.874        0.129      338.792       11.684      870.321
11/04/2014  12:01:00       40.059       33.870        9.664       47.360       39.471       28.627     2242.978     1557.959      819.514        0.373        0.231       52.459       27.226        0.269      338.832       11.752      870.315
11/04/2014  12:02:00       43.658       14.606       16.379       39.563       49.090       27.712     1565.219     2409.856      767.974        0.356        0.237       46.037       26.198        0.324      338.802       11.700      870.306
11/04/2014  12:03:00       58.934       47.477       17.657       42.637       37.264       31.265     1817.917     1388.627      977.518        0.511        0.209       75.679       22.273        0.087      338.997       12.029      870.299
11/04/2014  12:04:00       -6.029       12.823       14.019       30.301       20.297       29.417      918.131      411.986      865.371        0.130        0.110       14.170       14.492        1.046      339.196       12.364      870.292
11/04/2014  12:05:00       -9.501       32.791       62.251       20.989       46.410       35.503      440.549     2153.903     1260.455        0.445        0.193       34.140       34.427        1.017      339.503       12.881      870.270
11/04/2014  12:06:00       51.192       52.365       54.463       29.788       37.727       28.162      887.330     1423.338      793.110        0.572        0.155       73.231       28.087        0.147      338.810       11.716      870.267
11/04/2014  12:07:00       39.759       36.679       22.189       19.855       20.014       23.383      394.206      400.571      546.744        0.238        0.067       54.094        4.235        0.006      338.862       11.802      870.238
11/04/2014  12:08:00       13.750       53.962       51.993       35.786       38.162       51.936     1280.664     1456.363     2697.381        0.562        0.272       55.686       38.726        0.484      339.290       12.523      870.226
11/04/2014  12:09:00       52.390       44.316       55.013       38.486       40.820       32.451     1481.160     1666.310     1053.071        0.597        0.210       68.620       28.946        0.178      339.068       12.149      870.193
11/04/2014  12:10:00       -1.485       65.933       75.934       26.787       34.085       29.357      717.549     1161.808      861.818        0.643        0.137       65.950       21.591        0.107      339.363       12.646      870.167
11/04/2014  12:11:00      111.734       70.772       21.762       63.326       43.089       42.994     4010.207     1856.644     1848.488        1.284        0.386      132.261       27.551        0.043      339.198       12.366      870.125
11/04/2014  12:12:00      157.617       93.127       26.860       55.578       36.565       42.208     3088.862     1336.968     1781.488        2.022        0.310      183.073       24.449        0.018      338.823       11.734      870.099
11/04/2014  12:13:00      126.419       65.612       17.173       42.918       52.649       32.479     1841.995     2771.913     1054.901        1.312        0.283      142.432       17.545        0.015      338.788       11.676      870.060
11/04/2014  12:14:00      116.369       56.910       35.048       55.837       66.613       43.043     3117.715     4437.249     1852.725        1.371        0.470      129.539       35.709        0.076      338.822       11.735      870.023
11/04/2014  12:15:00       59.516       85.822       65.443       50.875       34.319       30.272     2588.251     1177.820      916.394        0.994        0.234      104.440       22.047        0.045      339.078       12.165      870.002
11/04/2014  12:16:00       49.254       70.379       54.317       41.530       41.423       36.633     1724.776     1715.887     1341.966        0.756        0.239       85.902       19.403        0.051      339.365       12.649      869.974
11/04/2014  12:17:00       61.222      -85.744        4.030       46.706       50.572       25.910     2181.435     2557.532      671.337        0.826        0.271      105.357       30.444        0.083      339.300       12.539      869.955
11/04/2014  12:18:00       45.296      -36.543       13.913       34.643       34.491       21.777     1200.167     1189.615      474.238        0.322        0.143       58.199       15.914        0.075      339.363       12.646      869.925
11/04/2014  12:19:00       17.752       15.616        5.456       26.692       39.319       24.485      712.489     1545.969      599.533        0.172        0.143       23.643       20.069        0.721      339.561       12.979      869.900
11/04/2014  12:20:00       73.375       57.458       28.375       44.250       31.703       38.595     1958.047     1005.099     1489.566        0.697        0.223       93.195       19.766        0.045      339.573       12.999      869.887
11/04/2014  12:21:00       33.010       67.815        4.154       45.489       23.657       39.390     2069.240      559.639     1551.591        0.494        0.209       75.422       22.681        0.090      339.695       13.204      869.880
11/04/2014  12:22:00        9.487       -1.257        8.629       55.721       67.838       34.715     3104.817     4602.034     1205.098        0.454        0.446        9.570       19.699        4.237      339.313       12.561      869.871
11/04/2014  12:23:00       66.298       59.040        9.611       56.403       49.824       35.335     3181.310     2482.467     1248.565        0.744        0.346       88.775       31.435        0.125      339.504       12.882      869.858
11/04/2014  12:24:00        3.288      104.611        5.664       53.589       88.442       43.645     2871.823     7821.923     1904.868        1.179        0.630      104.663       50.755        0.235      339.355       12.633      869.832
11/04/2014  12:25:00       90.389       81.413       61.590      103.637       63.915       56.351    10740.594     4085.179     3175.410        1.829        0.900      121.648       49.416        0.165      339.682       13.182      869.807
11/04/2014  12:26:00      106.581      104.712       49.641       92.341       57.050       61.803     8526.832     3254.720     3819.666        2.019        0.780      149.413       64.823        0.188      339.618       13.073      869.812
11/04/2014  12:27:00      107.335       77.528       16.622       49.891       41.951       24.111     2489.071     1759.907      581.353        1.132        0.242      132.407       14.830        0.013      339.004       12.040      869.822
11/04/2014  12:28:00       12.360       39.116        1.709       27.809       26.167       21.301      773.365      684.723      453.714        0.180        0.096       41.023       15.138        0.136      339.327       12.585      869.800
11/04/2014  12:29:00       31.187       38.480       -0.156       26.513       25.421       19.494      702.917      646.251      379.997        0.209        0.086       49.532       16.915        0.117      339.320       12.573      869.780
11/04/2014  12:30:00       85.922       67.466       40.635       59.894       40.222       41.673     3587.237     1617.818     1736.662        1.026        0.347      109.244       21.740        0.040      339.428       12.754      869.747
11/04/2014  12:31:00       28.348       41.729       20.135       42.499       31.875       30.986     1806.172     1016.006      960.135        0.337        0.189       50.447       21.138        0.176      339.545       12.951      869.746
11/04/2014  12:32:00      128.714       50.702       31.894       62.132       43.188       40.790     3860.374     1865.180     1663.841        1.377        0.369      138.340       22.471        0.026      339.400       12.707      869.744
11/04/2014  12:33:00       99.421       49.529       29.311       68.886       44.492       51.403     4745.344     1979.530     2642.262        1.128        0.468      111.075       37.666        0.115      339.287       12.518      869.747
11/04/2014  12:34:00      135.607       87.898        2.279       57.356       26.083       33.625     3289.693      680.325     1130.654        1.561        0.255      161.603       15.279        0.009      339.209       12.385      869.756
11/04/2014  12:35:00       50.859       92.350      -11.053       34.020       49.280       36.825     1157.347     2428.502     1356.073        0.809        0.247      105.429       34.155        0.105      339.319       12.571      869.748
11/04/2014  12:36:00       27.665       43.998        1.310       43.347       51.840       42.206     1878.993     2687.345     1781.371        0.452        0.317       51.973       34.315        0.436      339.494       12.867      869.747
11/04/2014  12:37:00       17.739      -19.061        4.282       33.122       78.682       30.043     1097.044     6190.806      902.598        0.444        0.410       26.039       14.480        0.309      339.353       12.630      869.753
11/04/2014  12:38:00       57.648       63.204       -1.283       63.928       46.845       29.731     4086.728     2194.426      883.913        0.724        0.358       85.545       31.224        0.133      339.556       12.970      869.750
11/04/2014  12:39:00       50.065       31.305       31.912       57.991       48.853       30.554     3362.990     2386.589      933.551        0.559        0.334       59.047       14.923        0.064      339.837       13.444      869.743
11/04/2014  12:40:00      118.311       77.396       35.874       48.425       48.819       41.738     2344.947     2383.257     1742.065        1.387        0.324      141.378       18.163        0.017      339.716       13.239      869.730
11/04/2014  12:41:00       87.127       73.636       53.397       61.575       42.910       44.244     3791.517     1841.311     1957.557        1.173        0.380      114.076       25.549        0.050      339.883       13.520      869.715
11/04/2014  12:42:00       99.835       62.985       60.501      112.473       78.664       38.705    12650.180     6188.017     1498.094        1.896        1.017      118.042       41.370        0.123      339.871       13.500      869.712
11/04/2014  12:43:00       49.735       40.789       49.071       64.984       69.628       54.200     4222.919     4848.030     2937.628        0.927        0.600       64.322       40.014        0.387      339.926       13.593      869.703
11/04/2014  12:44:00       98.576       79.468       17.454       52.741       42.945       46.445     2781.639     1844.298     2157.146        1.156        0.339      126.619       29.006        0.052      339.449       12.791      869.690
11/04/2014  12:45:00       41.300       20.049       -1.405       40.760       35.204       31.474     1661.404     1239.320      990.624        0.300        0.195       45.909       26.766        0.340      339.754       13.303      869.686
11/04/2014  12:46:00       56.028       51.059       33.763       67.777       36.463       39.591     4593.711     1329.520     1567.416        0.719        0.375       75.803       32.402        0.183      339.870       13.500      869.671
11/04/2014  12:47:00       54.423       47.432       65.250       68.054       45.821       42.753     4631.307     2099.532     1827.814        0.901        0.428       72.192       43.423        0.362      339.906       13.561      869.673
11/04/2014  12:48:00       44.404       63.517       43.994       38.869       43.883       51.528     1510.824     1925.753     2655.124        0.702        0.305       77.499       36.379        0.220      339.649       13.128      869.665
11/04/2014  12:49:00        5.962      -47.719        3.179       29.755       47.496       28.947      885.342     2255.878      837.957        0.315        0.199       48.090       31.389        0.426      340.047       13.799      869.666
11/04/2014  12:50:00       26.544       26.974       63.256       40.810       72.739       36.473     1665.463     5291.030     1330.244        0.686        0.414       37.845       44.528        1.384      340.016       13.745      869.640
11/04/2014  12:51:00       31.228       37.396       13.039       38.381       31.728       34.203     1473.119     1006.678     1169.819        0.310        0.182       48.721       18.452        0.143      339.716       13.240      869.631
11/04/2014  12:52:00       16.521       -5.210       -0.119       21.774       30.937       20.674      474.117      957.108      427.431        0.108        0.093       17.323       16.358        0.892      339.786       13.358      869.598
11/04/2014  12:53:00       14.765       30.137       61.272       38.397       44.942       47.591     1474.366     2019.769     2264.861        0.532        0.288       33.559       32.837        0.957      340.158       13.986      869.562
11/04/2014  12:54:00       64.199       15.348       23.739       41.792       72.166       35.782     1746.535     5207.979     1280.368        0.658        0.412       66.008       34.422        0.272      339.760       13.316      869.549
11/04/2014  12:55:00       23.679       22.021       45.724       35.462       29.892       27.658     1257.573      893.534      764.948        0.303        0.146       32.336       17.196        0.283      340.292       14.214      869.543
11/04/2014  12:56:00       34.690       64.162       49.358       47.262       42.736       28.929     2233.732     1826.368      836.873        0.633        0.245       72.939       16.697        0.052      340.188       14.036      869.554
11/04/2014  12:57:00        9.534       24.723       35.003       24.542       35.880       32.697      602.326     1287.409     1069.119        0.244        0.148       26.497       16.241        0.376      340.265       14.166      869.571
11/04/2014  12:58:00       30.506       48.049       20.025       38.016       43.525       33.316     1445.179     1894.386     1109.955        0.404        0.222       56.916       23.849        0.176      339.966       13.663      869.580
11/04/2014  12:59:00        6.802       95.233        6.935       29.905       65.183       32.555      894.319     4248.811     1059.831        0.768        0.310       95.476       34.875        0.133      339.906       13.561      869.591
11/04/2014  13:00:00       -2.702       44.850       -8.189       18.753       32.680       25.600      351.668     1067.965      655.360        0.208        0.104       44.932       15.827        0.124      339.764       13.321      869.605
11/04/2014  13:01:00      -13.698       -2.486       13.731       24.178       21.546       13.586      584.559      464.221      184.579        0.081        0.062       13.922       12.307        0.781      340.435       14.453      869.614
11/04/2014  13:02:00       14.638       82.853        1.644       36.228       65.534       37.267     1312.471     4294.745     1388.842        0.704        0.350       84.136       35.743        0.180      339.951       13.637      869.619
11/04/2014  13:03:00      -23.330       85.857      -21.359       33.580       16.754       14.523     1127.628      280.713      210.925        0.500        0.081       88.970        7.972        0.008      339.587       13.022      869.610
11/04/2014  13:04:00       65.308       51.551        2.599       24.758       24.473       20.364      612.940      598.923      414.684        0.428        0.081       83.202       13.133        0.025      339.844       13.456      869.584
11/04/2014  13:05:00      139.846       90.892       27.334       35.533       44.608       35.149     1262.608     1989.837     1235.421        1.653        0.224      166.788       27.903        0.028      339.709       13.226      869.548
11/04/2014  13:06:00       31.759       49.767       13.564       37.425       38.091       24.795     1400.605     1450.907      614.794        0.357        0.173       59.037       22.499        0.145      340.115       13.913      869.512
11/04/2014  13:07:00       45.616       64.896        8.070       38.734       41.580       26.406     1500.332     1728.860      697.252        0.514        0.196       79.324       22.582        0.081      339.914       13.574      869.500
11/04/2014  13:08:00       82.260       49.822       46.432       60.256       50.822       44.063     3630.841     2582.857     1941.514        0.978        0.408       96.172       25.327        0.069      340.087       13.864      869.503
11/04/2014  13:09:00       84.376       55.725       34.983       68.332       60.305       38.905     4669.308     3636.652     1513.575        1.063        0.491      101.116       30.075        0.088      340.094       13.878      869.504
11/04/2014  13:10:00       30.877      -10.789        9.911       55.497       73.712       23.945     3079.887     5433.451      573.357        0.513        0.454       32.707       15.348        0.220      340.193       14.045      869.511
11/04/2014  13:11:00       99.593     -110.376       -8.750       79.141       84.544       49.296     6263.248     7147.731     2430.137        1.901        0.792      148.666       56.421        0.144      340.054       13.809      869.496
11/04/2014  13:12:00       67.188     -173.401       -9.321       54.678       46.059       32.691     2989.634     2121.435     1068.695        2.042        0.309      185.963       20.643        0.012      339.903       13.554      869.474
11/04/2014  13:13:00      105.990     -181.183      -18.518       67.012       66.656       34.106     4490.645     4443.042     1163.235        2.725        0.505      209.908       29.388        0.020      339.895       13.538      869.439
11/04/2014  13:14:00      133.409     -192.422      -19.255       45.449       59.959       29.923     2065.573     3595.072      895.403        3.087        0.328      234.146       31.705        0.018      339.784       13.352      869.411
11/04/2014  13:15:00      173.022     -247.158      -41.547       58.846       45.189       27.661     3462.896     2042.069      765.127        4.951        0.314      301.701       29.376        0.009      339.734       13.266      869.389
11/04/2014  13:16:00       68.503     -117.766        0.433       51.167       87.830       44.790     2618.030     7714.064     2006.116        1.545        0.617      136.240       41.670        0.094      340.153       13.976      869.380
11/04/2014  13:17:00       11.229       29.805       43.400       30.821       37.620       26.626      949.906     1415.295      708.922        0.299        0.154       31.850       14.871        0.218      340.516       14.591      869.397
11/04/2014  13:18:00       -8.681       -2.536       24.588       35.999       49.431       36.623     1295.902     2443.432     1341.249        0.288        0.254        9.043       12.422        1.887      340.709       14.915      869.383
11/04/2014  13:19:00       29.615       34.244       26.524       86.962       56.061       41.649     7562.420     3142.836     1734.671        0.759        0.622       45.274       49.582        1.199      340.650       14.816      869.370
11/04/2014  13:20:00      124.917       98.836       33.052       49.033       27.097       39.068     2404.214      734.220     1526.270        1.556        0.233      159.289       31.138        0.038      340.038       13.783      869.362
11/04/2014  13:21:00      113.603       63.075       17.760       30.431       34.727       36.485      926.035     1205.953     1331.131        1.033        0.173      129.939       21.880        0.028      340.110       13.904      869.340
11/04/2014  13:22:00       43.945       27.892       28.608       51.900       33.926       24.911     2693.652     1150.992      620.553        0.400        0.223       52.049       17.260        0.110      340.522       14.600      869.320
11/04/2014  13:23:00       81.797       54.624       32.375       59.671       57.166       42.063     3560.678     3268.003     1769.289        0.966        0.430       98.359       32.021        0.106      340.320       14.258      869.312
11/04/2014  13:24:00      107.300       79.862       16.227       91.919       58.817       38.472     8449.125     3459.395     1480.063        1.577        0.669      133.758        8.410        0.004      340.233       14.112      869.306
11/04/2014  13:25:00      159.237       95.897       35.267       60.178       45.600       38.553     3621.384     2079.346     1486.357        2.149        0.359      185.883       27.555        0.022      340.278       14.186      869.301
11/04/2014  13:26:00       41.363       60.573       69.981       48.945       48.167       29.880     2395.607     2320.045      892.796        0.794        0.280       73.348       19.291        0.069      340.540       14.630      869.307
11/04/2014  13:27:00       34.846       15.251       33.520       55.348       40.472       38.134     3063.408     1638.021     1454.184        0.436        0.308       38.037       24.743        0.423      340.451       14.480      869.310
11/04/2014  13:28:00       98.547       55.447       14.892       69.690       67.011       45.651     4856.668     4490.433     2084.016        1.222        0.572      113.074       32.458        0.082      340.061       13.821      869.308
11/04/2014  13:29:00       33.682       36.756       28.628       65.834       36.664       28.003     4334.074     1344.226      784.193        0.488        0.323       49.854       21.278        0.182      340.228       14.103      869.302
11/04/2014  13:30:00       66.594       57.524       23.167       54.064       31.186       28.432     2922.929      972.560      808.403        0.649        0.235       87.998       23.305        0.070      340.155       13.978      869.308
11/04/2014  13:31:00       28.693       45.891       -4.107       61.706       48.529       36.225     3807.648     2355.099     1312.240        0.521        0.374       54.123       23.110        0.182      340.352       14.313      869.308
11/04/2014  13:32:00       71.900       54.130       13.800       40.623       31.649       32.346     1650.265     1001.629     1046.270        0.599        0.185       89.998       24.519        0.074      340.211       14.075      869.325
11/04/2014  13:33:00       14.303       60.782       -8.259       34.941       35.054       21.568     1220.866     1228.786      465.183        0.344        0.146       62.442       13.747        0.048      340.252       14.144      869.350
11/04/2014  13:34:00      -16.672       45.798      -15.144       25.600       28.468       22.727      655.365      810.443      516.495        0.229        0.099       48.739        5.823        0.014      340.231       14.110      869.378
11/04/2014  13:35:00       -3.813      -51.050       -2.951       28.595       27.861       24.441      817.696      776.247      597.384        0.241        0.110       51.192       21.779        0.181      340.164       13.995      869.399
11/04/2014  13:36:00        8.444      -15.090        8.705       19.138       25.927       17.430      366.257      672.224      303.799        0.086        0.067       17.292       11.517        0.444      340.302       14.229      869.383
11/04/2014  13:37:00       36.591      -27.565      -11.568       20.148       24.771       17.057      405.951      613.604      290.931        0.177        0.066       45.812        7.610        0.028      339.982       13.690      869.338
11/04/2014  13:38:00       11.212       31.265      -14.359       21.944       30.404       11.790      481.552      924.419      139.000        0.143        0.077       33.215        9.509        0.082      340.138       13.952      869.289
11/04/2014  13:39:00       35.863       44.308        4.091       20.532       27.625       21.171      421.548      763.124      448.230        0.245        0.082       57.003       20.126        0.125      340.290       14.208      869.257
11/04/2014  13:40:00       24.809      -12.659       -5.865       31.631       31.755       17.592     1000.494     1008.359      309.482        0.156        0.116       27.852       21.100        0.574      340.381       14.362      869.246
11/04/2014  13:41:00        7.436      -48.242        3.513       18.883       30.375       28.804      356.580      922.615      829.654        0.225        0.105       48.812       19.113        0.153      340.320       14.260      869.240
11/04/2014  13:42:00       68.909       38.459       37.659       66.589       41.027       31.616     4434.052     1683.237      999.564        0.738        0.356       78.915       22.247        0.079      340.557       14.659      869.247
11/04/2014  13:43:00       -5.206       39.822       30.891       16.826       41.628       36.604      283.102     1732.899     1339.878        0.296        0.168       40.161       35.136        0.765      340.518       14.594      869.250
11/04/2014  13:44:00       81.831       75.461       48.167       93.405       57.997       57.647     8724.415     3363.686     3323.230        1.506        0.771      111.314       45.893        0.170      340.329       14.272      869.236
11/04/2014  13:45:00       64.332       71.434       68.463       58.615       53.627       47.465     3435.717     2875.867     2252.959        1.124        0.428       96.133       39.468        0.169      340.360       14.327      869.206
11/04/2014  13:46:00       56.285      -43.576       27.117       54.657       80.442       43.177     2987.436     6470.966     1864.282        0.856        0.566       71.182       47.851        0.452      340.227       14.102      869.206
11/04/2014  13:47:00       31.459       18.050       60.536       54.684       79.672       61.511     2990.363     6347.572     3783.571        0.905        0.656       36.269       64.761        3.188      340.168       14.004      869.204
11/04/2014  13:48:00       37.846      105.630      104.209       49.607       58.971       35.686     2460.888     3477.590     1273.487        1.533        0.361      112.205       32.348        0.083      340.233       14.112      869.205
11/04/2014  13:49:00      101.052       87.200       17.586       41.339       33.005       38.279     1708.879     1089.343     1465.311        1.119        0.213      133.474       22.190        0.028      340.250       14.140      869.224
11/04/2014  13:50:00       37.259       86.408       -5.615       50.793       26.279       25.855     2579.942      690.606      668.478        0.641        0.197       94.099       26.277        0.078      340.256       14.149      869.229
11/04/2014  13:51:00      -51.688       48.345      -22.027       20.920       22.855       23.519      437.659      522.336      553.160        0.350        0.076       70.774       14.845        0.044      340.352       14.312      869.233
11/04/2014  13:52:00      -33.451        7.062      -12.380       20.939       22.319       14.054      438.435      498.145      197.524        0.123        0.057       34.189        7.537        0.049      340.403       14.401      869.221
11/04/2014  13:53:00       15.247      -40.417      -15.087       16.908       27.306       16.448      285.877      745.591      270.549        0.170        0.065       43.197        9.352        0.047      340.415       14.420      869.192
11/04/2014  13:54:00       18.723      -41.935      -26.832       16.720       21.263       12.596      279.544      452.102      158.652        0.186        0.045       45.924        8.739        0.036      340.380       14.362      869.175
11/04/2014  13:55:00       22.881       -4.958       24.872       19.299       26.930       18.654      372.442      725.222      347.963        0.131        0.072       23.412       13.651        0.340      340.478       14.526      869.172
11/04/2014  13:56:00       19.845        3.003       31.490       23.639       13.342       12.638      558.786      178.008      159.726        0.115        0.045       20.071        7.232        0.130      340.375       14.352      869.165
11/04/2014  13:57:00       -7.771      -29.276        8.719       15.180       21.877       16.550      230.442      478.608      273.899        0.099        0.049       30.290       12.647        0.174      340.485       14.539      869.161
11/04/2014  13:58:00        3.652      -32.609        9.673       48.170       23.526       19.548     2320.346      553.466      382.114        0.221        0.163       32.812       17.655        0.290      340.476       14.523      869.151
11/04/2014  13:59:00       20.303      -35.257       -1.597       29.880       33.763       21.320      892.802     1139.946      454.532        0.207        0.124       40.685       19.739        0.235      340.251       14.143      869.158
11/04/2014  14:00:00       75.031       36.474        6.266       20.880       23.790       24.920      435.982      565.979      620.999        0.431        0.081       83.426        7.537        0.008      340.404       14.400      869.172
11/04/2014  14:01:00        6.561      -20.844        8.249       25.428       28.285       22.731      646.601      800.063      516.691        0.125        0.098       21.852       13.383        0.375      340.835       15.130      869.210
11/04/2014  14:02:00       27.635        3.355       15.745       25.903       15.267       17.383      670.981      233.072      302.169        0.111        0.060       27.838        7.943        0.081      340.642       14.803      869.241
11/04/2014  14:03:00       44.154      -27.094       -2.279       27.335       25.669       16.742      747.187      658.893      280.285        0.219        0.084       51.804        7.718        0.022      340.124       13.927      869.252
11/04/2014  14:04:00        0.066      -15.678        4.012       25.844       41.334       33.001      667.923     1708.537     1089.043        0.186        0.173       15.678       26.188        2.790      340.793       15.060      869.242
11/04/2014  14:05:00      -43.602      -19.302       -2.697       27.267       31.268       17.732      743.506      977.659      314.430        0.216        0.102       47.684       19.667        0.170      340.886       15.216      869.234
11/04/2014  14:06:00        2.486      -11.107       24.252       28.488       47.909       29.802      811.539     2295.307      888.166        0.236        0.200       11.382       30.457        7.161      340.977       15.371      869.231
11/04/2014  14:07:00       22.802      -76.191        9.603       44.395       28.296       32.245     1970.924      800.647     1039.716        0.511        0.191       79.530       14.941        0.035      340.911       15.258      869.229
11/04/2014  14:08:00       59.423       17.915        8.753       44.499       54.520       24.864     1980.199     2972.394      618.211        0.475        0.279       62.065       15.721        0.064      340.798       15.067      869.234
11/04/2014  14:09:00       50.364       46.941        2.304       45.728       26.972       25.110     2091.040      727.505      630.505        0.410        0.172       68.848       18.064        0.069      340.814       15.094      869.233
11/04/2014  14:10:00       83.840       57.679       19.131       48.465       36.383       34.238     2348.893     1323.743     1172.207        0.778        0.242      101.765       22.425        0.049      340.727       14.949      869.228
11/04/2014  14:11:00       35.729       21.274       14.351       40.829       30.140       24.994     1667.034      908.441      624.687        0.257        0.160       41.583       14.362        0.119      340.789       15.052      869.221
11/04/2014  14:12:00       54.879       25.231        0.537       40.390       43.046       24.354     1631.316     1852.978      593.117        0.386        0.204       60.401       22.784        0.142      340.784       15.044      869.228
11/04/2014  14:13:00       54.314       24.170        5.340       44.250       40.326       28.790     1958.056     1626.169      828.864        0.399        0.221       59.449       17.624        0.088      340.771       15.021      869.260
11/04/2014  14:14:00       26.635       36.857        3.407       28.225       25.334       16.640      796.629      641.787      276.890        0.190        0.086       45.474       13.862        0.093      340.673       14.856      869.290
11/04/2014  14:15:00        6.528        9.582       11.837       14.057       12.300       14.351      197.589      151.289      205.961        0.041        0.028       11.594        4.151        0.128      340.813       15.092      869.312
11/04/2014  14:16:00       11.509        4.526        5.165       13.948       19.112       13.160      194.557      365.285      173.183        0.046        0.037       12.367        9.060        0.537      340.558       14.661      869.323
11/04/2014  14:17:00       20.884        2.813        0.661       27.013       24.200       21.213      729.727      585.646      450.002        0.110        0.088       21.073       13.256        0.396      340.345       14.300      869.324
11/04/2014  14:18:00       34.145      -22.590       -5.135       14.795       15.285       15.470      218.905      233.619      239.330        0.120        0.035       40.941        5.900        0.021      340.366       14.339      869.319
11/04/2014  14:19:00       27.907        0.785        2.502       19.502       17.408       13.256      380.338      303.034      175.717        0.082        0.043       27.918        8.030        0.083      340.498       14.560      869.310
11/04/2014  14:20:00       29.051       32.828        9.409       18.851       17.728       23.926      355.349      314.266      572.455        0.163        0.062       43.836       17.054        0.151      340.341       14.296      869.293
11/04/2014  14:21:00      -28.532       10.806       12.657       24.650       18.894       15.179      607.625      356.977      230.410        0.114        0.060       30.510       13.626        0.199      340.760       15.002      869.273
11/04/2014  14:22:00       11.706        7.745       15.338       25.666       18.820       13.710      658.745      354.181      187.962        0.082        0.060       14.036        9.808        0.488      340.850       15.156      869.268
11/04/2014  14:23:00       37.960       -4.622        6.671       20.556       16.910       22.434      422.537      285.937      503.307        0.136        0.061       38.241        8.544        0.050      340.333       14.281      869.262
11/04/2014  14:24:00       53.379      -17.916        5.457       25.044       21.481       24.415      627.187      461.419      596.109        0.244        0.084       56.305       19.946        0.125      340.257       14.152      869.263
11/04/2014  14:25:00       25.374       -8.045        4.756       21.842       20.218       16.314      477.065      408.760      266.133        0.094        0.058       26.619       15.679        0.347      340.654       14.824      869.256
11/04/2014  14:26:00       59.402      -75.716       -5.222       31.763       29.274       22.930     1008.873      856.972      525.772        0.584        0.120       96.237       17.643        0.034      340.591       14.718      869.243
11/04/2014  14:27:00       47.272     -113.841       -9.548       42.578       46.372       27.041     1812.879     2150.392      731.230        0.999        0.235      123.266       22.407        0.033      340.912       15.260      869.228
11/04/2014  14:28:00       41.053      -38.262       20.773       45.178       62.310       52.434     2041.029     3882.553     2749.351        0.613        0.434       56.119       41.794        0.555      340.966       15.352      869.223
11/04/2014  14:29:00       55.785        7.261       35.679       48.052       47.859       38.483     2309.025     2290.465     1480.927        0.526        0.304       56.255       34.022        0.366      340.776       15.030      869.229
11/04/2014  14:30:00       84.611      -98.220       -5.703       53.648       61.932       34.312     2878.057     3835.610     1177.317        1.236        0.395      129.638       37.296        0.083      340.768       15.016      869.231
11/04/2014  14:31:00       43.742      -28.907       13.611       36.674       34.201       28.019     1344.981     1169.728      785.090        0.312        0.165       52.431       26.051        0.247      340.781       15.040      869.241
11/04/2014  14:32:00       14.826      -15.399       16.471       35.232       31.177       24.379     1241.300      971.994      594.348        0.177        0.140       21.376       22.573        1.115      340.743       14.975      869.233
11/04/2014  14:33:00      -31.732       -9.339        8.469       47.993       25.189       22.697     2303.281      634.476      515.141        0.231        0.173       33.078       15.233        0.212      341.159       15.679      869.221
11/04/2014  14:34:00      -68.118      -51.845       -3.539       29.901       26.170       16.327      894.083      684.860      266.558        0.459        0.092       85.603       13.506        0.025      340.842       15.141      869.217
11/04/2014  14:35:00      -38.858       -4.192        0.467       29.984       21.411       12.442      899.038      458.444      154.814        0.152        0.076       39.083        7.956        0.041      340.945       15.316      869.194
11/04/2014  14:36:00      -64.183       -1.043       -2.019       33.181       17.406       15.671     1100.950      302.980      245.582        0.289        0.082       64.192       16.689        0.068      341.018       15.440      869.171
11/04/2014  14:37:00        9.724      -15.491       14.306       22.787       27.056       20.904      519.249      732.025      436.968        0.111        0.084       18.290       18.027        0.971      340.748       14.984      869.153
11/04/2014  14:38:00       14.647      -18.749        9.645       26.175       24.229       26.030      685.129      587.038      677.577        0.130        0.097       23.792       20.837        0.767      340.892       15.226      869.150
11/04/2014  14:39:00       36.000        3.568       16.196       35.783       29.461       19.858     1280.397      867.933      394.341        0.206        0.127       36.176       15.239        0.177      340.654       14.826      869.150
11/04/2014  14:40:00       32.794       -6.730       27.569       40.563       35.924       20.278     1645.338     1290.522      411.196        0.261        0.167       33.477       18.131        0.293      340.542       14.635      869.148
11/04/2014  14:41:00       17.530      -50.567       -3.275       33.648       21.731       19.396     1132.213      472.240      376.215        0.243        0.099       53.520        9.236        0.030      340.994       15.399      869.151
11/04/2014  14:42:00       -1.710      -32.634        0.327       33.815       28.008       22.869     1143.422      784.422      522.969        0.176        0.123       32.679       18.014        0.304      341.248       15.830      869.147
11/04/2014  14:43:00      -11.985      -30.805        7.432       42.202       32.489       27.396     1781.011     1055.564      750.561        0.237        0.179       33.054       26.045        0.621      341.272       15.870      869.152
11/04/2014  14:44:00      -28.893      -27.033       18.894       44.619       25.670       27.216     1990.880      658.931      740.734        0.266        0.170       39.567       26.306        0.442      341.398       16.083      869.170
11/04/2014  14:45:00      -60.506      -50.832        1.886       35.176       29.250       25.640     1237.375      855.576      657.428        0.450        0.138       79.024       22.630        0.082      341.202       15.750      869.189
11/04/2014  14:46:00      -58.562      -11.861       -7.280       22.793       26.773       13.332      519.504      716.778      177.744        0.252        0.071       59.751       10.480        0.031      340.979       15.374      869.212
11/04/2014  14:47:00     -109.817        4.064      -16.219       19.315       30.259       16.856      373.072      915.627      284.128        0.696        0.079      109.892        7.371        0.004      341.096       15.572      869.227
11/04/2014  14:48:00      -87.261        9.143       -5.831       28.127       39.239       24.697      791.107     1539.668      609.921        0.534        0.147       87.739       16.785        0.037      341.341       15.987      869.233
11/04/2014  14:49:00      -11.541       88.934      -24.836       17.655       20.866       11.876      311.709      435.398      141.039        0.477        0.044       89.680        4.249        0.002      340.993       15.398      869.225
11/04/2014  14:50:00       -3.494       86.899      -14.089       24.806       18.256       16.142      615.346      333.271      260.578        0.449        0.060       86.970        9.917        0.013      341.024       15.450      869.214
11/04/2014  14:51:00      -20.317       75.658       -9.414       19.581       30.705       19.727      383.429      942.800      389.139        0.397        0.086       78.338       18.557        0.056      341.109       15.595      869.207
11/04/2014  14:52:00       -3.533       60.665       -5.246       24.644       18.338       17.532      607.326      336.299      307.388        0.249        0.063       60.768       13.959        0.053      341.111       15.597      869.193
11/04/2014  14:53:00       12.406       17.089        3.101       29.463       23.711       20.747      868.074      562.204      430.442        0.116        0.093       21.117       15.442        0.535      341.219       15.780      869.189
11/04/2014  14:54:00       29.252       32.270       11.063       21.267       19.531       28.558      452.275      381.472      815.540        0.183        0.082       43.555       19.582        0.202      341.139       15.644      869.185
11/04/2014  14:55:00        3.545       19.441        1.239        7.938       15.024       13.628       63.012      225.717      185.736        0.043        0.024       19.762        9.126        0.213      341.232       15.803      869.192
11/04/2014  14:56:00       15.128       22.722       11.797       17.032       10.816       19.417      290.080      116.990      377.019        0.083        0.039       27.297       13.521        0.245      341.038       15.474      869.211
11/04/2014  14:57:00       69.084      -25.113        8.703       31.007       35.645       27.025      961.405     1270.576      730.377        0.422        0.148       73.506       18.362        0.062      340.792       15.058      869.229
11/04/2014  14:58:00       22.419       26.047       48.591       31.837       58.611       44.368     1013.619     3435.255     1968.480        0.498        0.321       34.366       42.269        1.513      340.777       15.032      869.244
11/04/2014  14:59:00       40.847       -5.289       31.973       36.183       48.595       34.219     1309.196     2361.506     1170.935        0.378        0.242       41.188       32.601        0.627      340.723       14.941      869.257
11/04/2014  15:00:00       60.924       66.555       62.165       55.636       40.735       43.114     3095.406     1659.367     1858.852        0.931        0.331       90.229       37.265        0.171      340.695       14.892      869.264
11/04/2014  15:01:00       83.514       68.482       59.421       54.416       44.525       37.396     2961.117     1982.450     1398.440        1.077        0.317      108.002       38.244        0.125      340.645       14.810      869.283
11/04/2014  15:02:00       61.665       53.578        6.294       28.273       26.603       16.520      799.366      707.733      272.896        0.425        0.089       81.690       12.486        0.023      340.978       15.371      869.284
11/04/2014  15:03:00       81.258       30.984        5.073       31.876       53.754       44.339     1016.095     2889.477     1965.956        0.673        0.294       86.965       32.356        0.138      340.832       15.123      869.281
11/04/2014  15:04:00       47.482      -79.534        0.193       37.462       63.990       25.153     1403.385     4094.706      632.670        0.735        0.307       92.629       29.830        0.104      340.948       15.321      869.271
11/04/2014  15:05:00       91.616     -131.839      -30.399       36.797       69.775       27.701     1354.017     4868.572      767.343        1.684        0.349      160.546       13.151        0.007      341.103       15.583      869.265
11/04/2014  15:06:00       46.946      -88.196      -35.929       42.513       35.491       25.910     1807.384     1259.576      671.331        0.751        0.187       99.912       18.389        0.034      341.038       15.474      869.265
11/04/2014  15:07:00       18.680     -136.662      -23.563       50.492       52.464       34.271     2549.449     2752.500     1174.480        1.303        0.324      137.933       29.102        0.045      341.143       15.652      869.246
11/04/2014  15:08:00       53.589     -142.456      -10.814       32.731       34.641       29.807     1071.351     1199.975      888.456        1.322        0.158      152.202       20.574        0.018      341.104       15.584      869.235
11/04/2014  15:09:00       66.098      -55.535       25.916       48.051       47.580       30.490     2308.924     2263.812      929.668        0.681        0.275       86.331       37.222        0.186      341.086       15.555      869.218
11/04/2014  15:10:00       28.713      -93.332      -13.014       44.516       21.229       17.475     1981.654      450.687      305.372        0.622        0.137       97.648       11.000        0.013      341.085       15.554      869.206
11/04/2014  15:11:00       20.082      -49.192      -11.928       24.940       41.900       22.455      621.998     1755.651      504.213        0.292        0.144       53.133       18.929        0.127      341.247       15.828      869.193
11/04/2014  15:12:00       -3.731       15.778       16.817       16.561       20.007       18.170      274.269      400.288      330.151        0.077        0.050       16.213        8.897        0.301      341.202       15.751      869.185
11/04/2014  15:13:00        8.418       28.482       -2.490       18.576       17.234       19.920      345.084      297.001      396.793        0.096        0.052       29.700       11.466        0.149      340.899       15.238      869.175
11/04/2014  15:14:00        4.884       25.161       -6.658       21.400       26.599       15.448      457.966      707.526      238.654        0.105        0.070       25.630       15.159        0.350      341.176       15.707      869.159
11/04/2014  15:15:00       23.939       28.419       -8.132       31.952       34.330       18.919     1020.911     1178.520      357.945        0.200        0.128       37.158       16.132        0.188      341.159       15.679      869.158
11/04/2014  15:16:00       36.644      -25.789        9.711       24.165       33.088       17.338      583.968     1094.800      300.622        0.204        0.099       44.809        8.690        0.038      341.078       15.540      869.158
11/04/2014  15:17:00       24.531      -14.611       17.631       43.079       43.480       25.787     1855.818     1890.526      664.955        0.277        0.221       28.553       28.613        1.004      341.209       15.764      869.166
11/04/2014  15:18:00       49.240      -65.150        5.824       47.283       58.663       32.624     2235.647     3441.315     1064.326        0.672        0.337       81.664       37.185        0.207      341.215       15.773      869.176
11/04/2014  15:19:00       32.329      -60.866       18.888       42.494       60.286       34.154     1805.706     3634.434     1166.478        0.586        0.330       68.919       33.772        0.240      341.242       15.818      869.198
11/04/2014  15:20:00       58.047      -45.700       13.026       40.163       61.961       33.795     1613.096     3839.153     1142.131        0.611        0.330       73.878       38.395        0.270      341.209       15.763      869.221
11/04/2014  15:21:00       26.730      -26.632       28.364       44.277       45.110       27.746     1960.414     2034.873      769.823        0.350        0.238       37.733       24.994        0.439      341.293       15.905      869.246
11/04/2014  15:22:00       -6.140      -31.393        3.680       18.805       24.143       20.558      353.644      582.893      422.636        0.120        0.068       31.988       16.516        0.267      341.415       16.113      869.274
11/04/2014  15:23:00       19.655      -70.794        1.024       25.216       34.152       30.793      635.837     1166.389      948.195        0.407        0.138       73.472       20.134        0.075      341.448       16.166      869.296
11/04/2014  15:24:00      -35.328      -22.557        3.507       21.141       41.167       20.092      446.922     1694.705      403.679        0.216        0.127       41.915       22.591        0.290      341.359       16.018      869.331
11/04/2014  15:25:00      -16.557      -13.871        6.548       21.529       23.969       21.571      463.515      574.512      465.300        0.101        0.075       21.600        8.736        0.164      341.519       16.287      869.359
11/04/2014  15:26:00      -21.009      -60.869        4.039       51.060       34.671       23.014     2607.089     1202.073      529.659        0.425        0.217       64.393       14.556        0.051      341.524       16.296      869.386
11/04/2014  15:27:00      -45.050      -42.740       -0.295       64.488       30.066       29.217     4158.682      903.945      853.619        0.489        0.296       62.099       25.807        0.173      341.531       16.308      869.401
11/04/2014  15:28:00      -55.017      -55.811        1.582       68.739       38.143       26.038     4725.067     1454.899      677.980        0.650        0.343       78.370       28.816        0.135      341.407       16.099      869.412
11/04/2014  15:29:00      -83.992      -42.717       -7.830       25.031       33.824       16.748      626.573     1144.054      280.489        0.550        0.103       94.230       14.317        0.023      341.295       15.907      869.415
11/04/2014  15:30:00      -82.963      -11.925       -7.114       15.261       21.264       14.633      232.906      452.141      214.117        0.399        0.045       83.816       10.208        0.015      341.273       15.871      869.415
11/04/2014  15:31:00      -84.359      -22.570       -4.602       24.660       23.259       14.734      608.127      540.970      217.094        0.451        0.068       87.326       11.017        0.016      341.335       15.975      869.409
11/04/2014  15:32:00       -5.775      -20.013       -5.385       37.791       14.679       18.846     1428.145      215.483      355.189        0.123        0.100       20.830       19.226        0.852      341.243       15.820      869.414
11/04/2014  15:33:00      -36.264      -21.344       -2.105       30.138       21.905       18.863      908.313      479.828      355.807        0.176        0.087       42.079       14.036        0.111      341.211       15.767      869.418
11/04/2014  15:34:00       20.398      -18.400       -1.134       19.585       22.985       14.808      383.558      528.305      219.273        0.094        0.057       27.471        9.287        0.114      340.762       15.006      869.418
11/04/2014  15:35:00      -25.458      -48.470       11.947       53.294       34.583       23.233     2840.202     1196.006      539.794        0.386        0.229       54.749       22.493        0.169      341.071       15.530      869.422
11/04/2014  15:36:00      -53.528      -65.665        3.720       39.122       32.373       22.089     1530.505     1047.995      487.931        0.513        0.153       84.718       27.579        0.106      341.342       15.987      869.428
11/04/2014  15:37:00      -33.221      -32.501        9.460       36.018       35.778       19.226     1297.270     1280.084      369.626        0.260        0.147       46.475       21.497        0.214      341.445       16.161      869.434
11/04/2014  15:38:00      -58.586      -58.122       -4.343       46.928       38.477       22.165     2202.243     1480.450      491.306        0.550        0.209       82.526       23.948        0.084      341.415       16.111      869.431
11/04/2014  15:39:00      -68.073     -106.900       -9.948       17.973       21.442       10.736      323.013      459.744      115.267        0.853        0.045      126.734        9.317        0.005      341.211       15.764      869.441
11/04/2014  15:40:00      -85.538      -65.453       -9.781       24.498       25.715       12.734      600.176      661.261      162.154        0.656        0.071      107.707        6.323        0.003      341.418       16.116      869.442
11/04/2014  15:41:00      -77.462      -28.251       -3.065       41.734       25.360       21.535     1741.758      643.108      463.777        0.483        0.142       82.453       24.009        0.085      341.429       16.136      869.444
11/04/2014  15:42:00      -30.395      -21.186        9.860       28.069       23.666       18.473      787.881      560.103      341.241        0.158        0.084       37.050       12.789        0.119      341.480       16.223      869.453
11/04/2014  15:43:00      -93.813      -51.960       -4.990       38.509       31.914       14.753     1482.933     1018.524      217.657        0.712        0.136      107.241       13.949        0.017      341.411       16.105      869.447
11/04/2014  15:44:00      -96.439      -25.313       -7.636       42.541       24.180       21.215     1809.730      584.655      450.091        0.642        0.142       99.706       19.035        0.036      341.450       16.171      869.446
11/04/2014  15:45:00      -86.770      -58.637       -5.215       39.068       23.536       20.955     1526.315      553.927      439.097        0.676        0.126      104.725       18.888        0.033      341.460       16.188      869.440
11/04/2014  15:46:00      -78.596      -16.546       -5.185       13.969       20.257       18.400      195.125      410.360      338.561        0.371        0.047       80.318        9.842        0.015      341.363       16.024      869.449
11/04/2014  15:47:00      -56.193      -36.089        3.172       51.839       22.735       17.508     2687.310      516.882      306.520        0.399        0.176       66.784       19.099        0.082      341.565       16.365      869.450
11/04/2014  15:48:00      -66.695      -29.414       -1.166       33.739       24.227       20.002     1138.337      586.926      400.073        0.372        0.106       72.893       16.716        0.053      341.518       16.289      869.460
11/04/2014  15:49:00      -44.518      -53.746       13.294       62.011       37.596       25.275     3845.329     1413.459      638.817        0.547        0.295       69.789       36.268        0.270      341.297       15.911      869.471
11/04/2014  15:50:00      -43.283      -39.006       -2.833       27.255       36.537       17.644      742.859     1334.940      311.322        0.290        0.119       58.266       18.107        0.097      341.471       16.207      869.480
11/04/2014  15:51:00      -77.563      -27.512       10.624       42.999       35.669       20.684     1848.926     1272.303      427.822        0.522        0.177       82.298       20.498        0.062      341.377       16.049      869.475
11/04/2014  15:52:00      -20.474      -11.261        7.125       37.135       23.028       17.097     1379.002      530.301      292.296        0.140        0.110       23.367        2.231        0.009      341.192       15.734      869.471
11/04/2014  15:53:00      -34.837       -0.277        3.221       26.527       19.922       19.127      703.659      396.889      365.853        0.134        0.073       34.838       11.527        0.109      341.321       15.952      869.470
11/04/2014  15:54:00      -23.324        2.503        8.911       29.540       23.362       17.319      872.625      545.778      299.946        0.117        0.086       23.458       17.049        0.528      341.369       16.033      869.475
11/04/2014  15:55:00      -17.687       -8.082       12.110       30.367       28.125       15.677      922.140      791.009      245.753        0.124        0.098       19.446       17.264        0.788      341.216       15.775      869.483
11/04/2014  15:56:00      -26.902      -25.767       13.254       51.549       31.360       21.329     2657.256      983.474      454.945        0.283        0.205       37.251       25.464        0.467      341.119       15.611      869.496
11/04/2014  15:57:00      -65.056      -13.489       14.733       40.377       34.663       24.072     1630.287     1201.555      579.452        0.402        0.171       66.440       19.228        0.084      341.306       15.928      869.499
11/04/2014  15:58:00      -83.946      -50.443      -10.820       17.747       24.003       16.012      314.955      576.121      256.380        0.543        0.057       97.936        8.708        0.008      341.458       16.185      869.478
11/04/2014  15:59:00      -40.389      -10.731        9.900       53.784       24.228       24.344     2892.735      587.017      592.630        0.296        0.204       41.790       33.412        0.639      341.360       16.018      869.456
11/04/2014  16:00:00       24.829       -3.786       15.825       22.153       19.020       14.071      490.742      361.744      197.993        0.097        0.053       25.116       11.734        0.218      340.559       14.664      869.434
11/04/2014  16:01:00        0.337        2.226       13.396       27.378       20.352       14.122      749.560      414.188      199.444        0.077        0.068        2.251       10.576       22.075      340.794       15.061      869.428
11/04/2014  16:02:00      -20.132       -3.980        8.136       20.018       17.112       13.281      400.711      292.836      176.385        0.068        0.043       20.521        8.079        0.155      341.356       16.011      869.437
11/04/2014  16:03:00      -35.812      -22.646       -1.386       22.662       20.771       21.021      513.544      431.441      441.877        0.159        0.069       42.372       13.153        0.096      341.484       16.228      869.440
11/04/2014  16:04:00      -40.737      -14.698       -4.062       23.964       10.386        9.314      574.271      107.863       86.756        0.133        0.038       43.307        6.269        0.021      341.438       16.150      869.449
11/04/2014  16:05:00       11.025        1.871       13.414       25.039       15.536       18.403      626.962      241.358      338.672        0.076        0.060       11.182       15.924        2.028      341.005       15.418      869.457
11/04/2014  16:06:00       18.754       -2.490       32.299       27.230       24.373       16.522      741.462      594.055      272.983        0.150        0.080       18.919       14.394        0.579      340.775       15.028      869.471
11/04/2014  16:07:00        1.764        2.387       27.415       21.816       30.154       18.783      475.947      909.250      352.786        0.125        0.087        2.968       20.065       45.703      341.025       15.451      869.478
11/04/2014  16:08:00       35.038      -68.437        1.055       26.924       29.130       29.068      724.896      848.550      844.936        0.416        0.121       76.885       20.452        0.071      341.346       15.994      869.481
11/04/2014  16:09:00       11.598        1.531        7.650       24.952       36.238       29.116      622.591     1313.160      847.731        0.149        0.139       11.698       28.570        5.965      340.986       15.385      869.476
11/04/2014  16:10:00       36.948      -20.092        5.707       35.278       26.665       23.588     1244.512      711.047      556.405        0.216        0.126       42.058       18.905        0.202      340.754       14.993      869.473
11/04/2014  16:11:00       31.787        9.555       10.263       28.506       31.751       22.617      812.604     1008.108      511.511        0.177        0.117       33.192       21.335        0.413      340.758       15.000      869.468
11/04/2014  16:12:00       31.846        2.957       -7.144       21.442       18.436       13.737      459.756      339.896      188.703        0.103        0.049       31.983        8.564        0.072      340.578       14.696      869.467
11/04/2014  16:13:00       40.501       -9.122      -17.086       16.873       21.758       20.690      284.688      473.416      428.087        0.160        0.059       41.516       11.237        0.073      340.715       14.926      869.460
11/04/2014  16:14:00       34.028      -18.298       -0.624       22.099       21.909       19.763      488.366      480.021      390.573        0.143        0.068       38.636       12.110        0.098      340.812       15.092      869.461
11/04/2014  16:15:00       40.652       12.578        0.616       16.300       14.235       15.552      265.685      202.626      241.858        0.126        0.036       42.553        7.375        0.030      340.608       14.746      869.462
11/04/2014  16:16:00       46.313       19.647       14.323       19.108       26.795       20.821      365.126      717.951      433.510        0.213        0.076       50.308       13.604        0.073      340.766       15.014      869.468
11/04/2014  16:17:00       31.387       -9.646       15.325       24.525       14.583       18.172      601.480      212.656      330.208        0.123        0.057       32.836       13.815        0.177      340.765       15.012      869.473
11/04/2014  16:18:00       -9.752       12.124        2.518       10.657        8.041       10.710      113.565       64.664      114.699        0.027        0.015       15.559        5.953        0.146      341.123       15.618      869.474
11/04/2014  16:19:00      -25.650        3.112       -3.471       14.926        6.902        8.888      222.777       47.643       78.992        0.051        0.017       25.838        5.736        0.049      341.432       16.141      869.490
11/04/2014  16:20:00      -25.619        4.772        3.540       14.617       13.248       10.361      213.656      175.505      107.357        0.059        0.025       26.060        4.760        0.033      341.432       16.141      869.491
11/04/2014  16:21:00      -34.137       -0.788        3.962       24.411       13.145       13.204      595.878      172.796      174.346        0.106        0.047       34.146       14.205        0.173      341.447       16.166      869.496
11/04/2014  16:22:00       15.953      -22.796       -4.279       16.143       15.063       12.977      260.582      226.909      168.391        0.072        0.033       27.823        7.133        0.066      341.049       15.493      869.491
11/04/2014  16:23:00       29.769       -6.065       14.536       24.852       18.590       18.392      617.613      345.592      338.258        0.122        0.065       30.381       12.626        0.173      340.734       14.959      869.497
11/04/2014  16:24:00       36.463        1.555       24.764       38.648       18.366       13.852     1493.649      337.306      191.886        0.198        0.101       36.496        6.764        0.034      340.643       14.805      869.506
11/04/2014  16:25:00       32.394       -4.531       20.058       32.411       23.416       19.501     1050.470      548.294      380.279        0.173        0.099       32.709       19.473        0.354      340.603       14.737      869.521
11/04/2014  16:26:00       -3.669       12.192       18.873       14.644       14.895       12.001      214.446      221.849      144.020        0.055        0.029       12.732       10.977        0.743      340.699       14.899      869.535
11/04/2014  16:27:00       17.264       -1.171       10.450       25.357       16.266       15.061      642.983      264.572      226.844        0.077        0.057       17.304       16.972        0.962      340.530       14.613      869.544
11/04/2014  16:28:00       17.642      -15.569        4.846       20.223       23.414       14.034      408.958      548.222      196.942        0.087        0.058       23.529       13.911        0.350      340.393       14.383      869.564
11/04/2014  16:29:00      -17.527      -32.164        0.644       35.323       25.685       16.183     1247.701      659.705      261.881        0.176        0.108       36.630       10.956        0.089      340.887       15.217      869.568
11/04/2014  16:30:00      -65.899      -74.306       -3.600       36.882       49.264       21.423     1360.310     2426.928      458.944        0.706        0.212       99.319       15.827        0.025      341.181       15.714      869.574
11/04/2014  16:31:00     -112.206      -64.446       -6.840       52.294       32.007       27.982     2734.638     1024.426      782.975        1.067        0.227      129.397       27.804        0.046      341.127       15.624      869.581
11/04/2014  16:32:00     -102.195      -59.574       -8.524       33.383       34.392       21.293     1114.424     1182.801      453.395        0.841        0.138      118.292       23.564        0.040      341.150       15.662      869.578
11/04/2014  16:33:00     -106.477      -18.724       -6.921       49.082       49.370       23.287     2409.003     2437.445      542.263        0.856        0.269      108.111       21.614        0.040      341.188       15.727      869.586
11/04/2014  16:34:00     -128.653      -72.115       -1.303       38.544       46.612       22.180     1485.608     2172.643      491.965        1.295        0.208      147.486       21.181        0.021      341.129       15.629      869.600
11/04/2014  16:35:00     -129.109      -59.977       -2.635       57.790       40.289       22.190     3339.737     1623.164      492.400        1.286        0.273      142.360       17.856        0.016      341.112       15.600      869.612
11/04/2014  16:36:00     -119.620      -91.013        0.264       47.611       45.263       28.481     2266.830     2048.749      811.185        1.386        0.256      150.307       29.382        0.038      341.011       15.427      869.630
11/04/2014  16:37:00      -82.184      -73.992        1.285       60.305       53.546       29.919     3636.745     2867.173      895.168        0.981        0.370      110.585       33.928        0.094      341.051       15.495      869.640
11/04/2014  16:38:00      -95.658      -61.019        2.799       47.330       47.558       27.040     2240.169     2261.793      731.149        0.906        0.262      113.463       24.557        0.047      340.984       15.383      869.649
11/04/2014  16:39:00      -70.644      -56.912       -2.667       46.454       43.342       27.840     2157.995     1878.546      775.063        0.652        0.241       90.717       30.712        0.115      341.029       15.458      869.659
11/04/2014  16:40:00      -72.705      -66.683       -5.423       39.659       30.058       20.984     1572.856      903.476      440.326        0.634        0.146       98.654       17.222        0.030      341.054       15.502      869.665
11/04/2014  16:41:00      -83.327      -61.153       -4.537       27.748       24.484       15.301      769.937      599.463      234.113        0.615        0.080      103.359       11.267        0.012      341.126       15.623      869.674
11/04/2014  16:42:00      -57.049      -36.574      -12.016       42.356       21.819       17.881     1794.006      476.064      319.732        0.366        0.129       67.766       17.655        0.068      341.082       15.550      869.694
11/04/2014  16:43:00       -7.216      -19.375       11.090       29.364       17.862       16.732      862.266      319.043      279.948        0.101        0.073       20.675       15.307        0.548      340.675       14.860      869.709
11/04/2014  16:44:00      -42.735      -49.846        3.611       42.585       29.088       19.221     1813.513      846.117      369.453        0.368        0.151       65.658       18.334        0.078      340.800       15.070      869.712
11/04/2014  16:45:00       24.924      -14.351       23.504       27.040       22.440       21.574      731.144      503.540      465.435        0.154        0.085       28.760       16.606        0.333      340.399       14.393      869.708
11/04/2014  16:46:00       21.891      -13.972       -5.403       19.579       15.509       19.154      383.345      240.529      366.889        0.085        0.050       25.970       10.064        0.150      340.085       13.863      869.689
11/04/2014  16:47:00       36.878      -32.310       11.014       19.882       18.275       22.280      395.306      333.977      496.390        0.188        0.061       49.030       18.692        0.145      340.425       14.437      869.677
11/04/2014  16:48:00      -10.961      -30.842        2.723       41.010       19.381       20.198     1681.830      375.614      407.973        0.177        0.123       32.732       21.973        0.451      340.621       14.768      869.664
11/04/2014  16:49:00       29.469      -28.748        2.663       23.647       21.134       16.685      559.177      446.658      278.388        0.149        0.064       41.168       13.560        0.108      340.192       14.043      869.655
11/04/2014  16:50:00      -22.879      -19.481        5.068       41.418       16.950       16.449     1715.419      287.297      270.581        0.160        0.114       30.049       22.515        0.561      340.552       14.651      869.650
11/04/2014  16:51:00      -62.362      -25.270       -0.756       20.417       22.963       10.544      416.869      527.283      111.184        0.279        0.053       67.288        9.692        0.021      341.010       15.426      869.644
11/04/2014  16:52:00      -62.407       -8.714       -4.729       19.307       19.611       11.193      372.767      384.576      125.278        0.244        0.044       63.012        8.091        0.016      340.918       15.270      869.645
11/04/2014  16:53:00      -68.453       -1.684       -3.951       27.485       19.571       13.364      755.399      383.030      178.592        0.301        0.066       68.473       13.183        0.037      340.783       15.042      869.660
11/04/2014  16:54:00      -57.522        0.022        4.127       23.449       18.156       12.303      549.872      329.645      151.356        0.218        0.052       57.522       13.409        0.054      340.647       14.812      869.665
11/04/2014  16:55:00      -59.601      -25.917       -0.341       27.651       21.249       18.825      764.554      451.514      354.381        0.290        0.079       64.992       20.526        0.100      340.547       14.643      869.663
11/04/2014  16:56:00      -77.166       -0.098       -7.667       35.065       16.154       13.453     1229.538      260.945      180.972        0.384        0.084       77.166       15.568        0.041      340.602       14.737      869.671
11/04/2014  16:57:00      -83.144      -10.618       -2.686       23.158       18.988       15.249      536.285      360.548      232.532        0.408        0.056       83.819       13.102        0.024      340.594       14.723      869.676
11/04/2014  16:58:00      -81.360      -14.611        2.358       22.865       18.079       13.681      522.825      326.835      187.168        0.394        0.052       82.662       11.275        0.019      340.499       14.562      869.671
11/04/2014  16:59:00      -82.138      -13.249       -0.394       28.119       15.655       17.546      790.695      245.071      307.861        0.413        0.067       83.200       16.069        0.037      340.515       14.588      869.676
11/04/2014  17:00:00      -96.385      -30.839       -5.536       23.526       16.673       10.943      553.487      277.994      119.751        0.561        0.048      101.199       10.155        0.010      340.613       14.754      869.686
11/04/2014  17:01:00      -82.986      -26.411       -3.861       24.392       23.210       13.778      594.963      538.702      189.825        0.446        0.066       87.088       13.360        0.024      340.613       14.755      869.693
11/04/2014  17:02:00      -73.203      -20.234        0.765       28.432       21.989       11.254      808.381      483.494      126.660        0.359        0.071       75.948       12.798        0.028      340.633       14.788      869.700
11/04/2014  17:03:00      -79.650      -18.602       -0.807       23.749       21.551       13.185      564.001      464.428      173.845        0.395        0.060       81.793       12.271        0.023      340.592       14.720      869.698
11/04/2014  17:04:00      -72.857      -18.359       -0.172       27.683       16.845       11.912      766.331      283.750      141.898        0.342        0.060       75.134        9.668        0.017      340.616       14.760      869.690
11/04/2014  17:05:00      -62.527      -12.432       -0.492       17.359       22.073       12.555      301.318      487.228      157.617        0.251        0.047       63.751        9.566        0.023      340.527       14.610      869.690
11/04/2014  17:06:00      -78.360      -13.344        1.045       23.000       16.070       13.156      529.005      258.231      173.083        0.364        0.048       79.488       12.680        0.025      340.439       14.460      869.683
11/04/2014  17:07:00      -28.417      -19.777       13.523       41.438       21.094       20.019     1717.070      444.961      400.747        0.197        0.128       34.621       24.881        0.516      340.256       14.151      869.685
11/04/2014  17:08:00      -83.250      -12.562       -2.511       16.408       16.385       10.829      269.223      268.462      117.263        0.387        0.033       84.193        5.167        0.004      340.428       14.442      869.681
11/04/2014  17:09:00      -63.288      -15.953       -3.622       29.573       14.651       11.671      874.582      214.653      136.207        0.275        0.061       65.268       14.555        0.050      340.360       14.327      869.668
11/04/2014  17:10:00      -80.505       -9.227       -5.668       18.413       16.565       12.811      339.044      274.414      164.123        0.369        0.039       81.032       10.242        0.016      340.380       14.360      869.660
11/04/2014  17:11:00      -78.113       -8.069       -2.410       22.728       16.006       13.353      516.581      256.202      178.308        0.356        0.048       78.529       12.007        0.023      340.262       14.159      869.640
11/04/2014  17:12:00      -78.168      -18.157       -3.494       17.194       15.284        9.939      295.632      233.605       98.789        0.354        0.031       80.249        9.930        0.015      340.134       13.944      869.634
11/04/2014  17:13:00      -72.299      -11.800        0.593       16.863       17.615        9.767      284.360      310.285       95.399        0.303        0.035       73.255        8.665        0.014      339.984       13.691      869.625
11/04/2014  17:14:00      -34.184       -0.575        4.921       31.727       14.876       10.457     1006.605      221.305      109.346        0.126        0.067       34.189       13.975        0.167      339.945       13.625      869.630
11/04/2014  17:15:00      -46.160       -9.767        3.701       22.501       16.413       10.946      506.309      269.379      119.823        0.157        0.045       47.181        8.619        0.033      340.010       13.735      869.648
11/04/2014  17:16:00      -39.744       -2.000       -1.753       28.142       15.912       13.108      791.965      253.186      171.823        0.140        0.061       39.795       14.526        0.133      340.093       13.875      869.665
11/04/2014  17:17:00      -49.031      -10.124        5.548       22.994       24.149       12.911      528.711      583.167      166.694        0.191        0.064       50.066        9.214        0.034      340.087       13.866      869.692
11/04/2014  17:18:00      -48.536       -6.817        0.693       25.316       24.798       14.176      640.900      614.948      200.954        0.193        0.073       49.012       14.083        0.083      339.987       13.696      869.709
11/04/2014  17:19:00      -39.624       -1.229        0.934       21.617       15.034       10.604      467.273      226.029      112.454        0.119        0.040       39.643       10.313        0.068      339.770       13.332      869.723
11/04/2014  17:20:00      -72.598       -9.086       -6.421       17.692       17.683       12.200      313.022      312.678      148.841        0.308        0.039       73.164        9.019        0.015      339.648       13.125      869.726
11/04/2014  17:21:00      -27.072       10.945        4.488       31.379       25.453       14.321      984.626      647.878      205.103        0.135        0.092       29.200       14.233        0.238      339.489       12.857      869.734
11/04/2014  17:22:00       -4.494        4.847        3.647       22.675       18.389       13.307      514.154      338.162      177.074        0.054        0.051        6.610       12.620        3.645      339.451       12.793      869.744
11/04/2014  17:23:00       -8.454       10.358       -0.222       26.845       26.631       15.309      720.673      709.219      234.360        0.092        0.083       13.370       10.182        0.580      339.584       13.018      869.764
11/04/2014  17:24:00      -69.528      -12.358       -2.097       37.100       27.320       18.935     1376.382      746.385      358.541        0.374        0.124       70.618       17.822        0.064      339.703       13.217      869.784
11/04/2014  17:25:00      -57.225      -25.085        1.826       30.948       34.827       18.609      957.761     1212.953      346.311        0.321        0.126       62.481       17.843        0.082      339.664       13.154      869.806
11/04/2014  17:26:00      -63.754        7.633       -7.316       30.201       22.114       15.085      912.115      489.034      227.542        0.290        0.081       64.209       13.625        0.045      339.716       13.241      869.828
11/04/2014  17:27:00      -73.314       -1.293       -5.187       32.415       31.909       13.428     1050.725     1018.190      180.298        0.383        0.112       73.326       10.934        0.022      339.835       13.442      869.840
11/04/2014  17:28:00      -79.662       16.188       -3.744       16.208       13.394       10.987      262.710      179.390      120.723        0.359        0.028       81.291        5.513        0.005      339.869       13.498      869.855
11/04/2014  17:29:00      -53.318       -4.759       -4.515       21.309       20.312       14.590      454.093      412.590      212.865        0.198        0.054       53.530       11.303        0.045      339.743       13.286      869.868
11/04/2014  17:30:00      -52.136      -18.715       -6.672       12.775       15.871       11.706      163.203      251.873      137.033        0.183        0.028       55.394       10.246        0.034      339.749       13.296      869.884
11/04/2014  17:31:00      -71.064      -18.316       -8.679       19.088       12.543        8.538      364.368      157.335       72.898        0.303        0.030       73.387        6.863        0.009      339.722       13.253      869.902
11/04/2014  17:32:00      -41.617      -22.853      -11.024       28.201       15.463       11.144      795.305      239.105      124.192        0.177        0.058       47.479       10.494        0.049      339.620       13.077      869.907
11/04/2014  17:33:00      -43.147      -17.219       -8.321       19.818       11.178        9.247      392.738      124.939       85.505        0.142        0.030       46.456        8.244        0.031      339.526       12.917      869.919
11/04/2014  17:34:00      -49.748      -14.285       -8.506       17.576       20.279       11.028      308.907      411.218      121.608        0.180        0.042       51.758        5.886        0.013      339.466       12.817      869.917
11/04/2014  17:35:00      -64.118      -25.985       -9.162       18.577       20.730       15.025      345.101      429.720      225.752        0.294        0.050       69.183       11.339        0.027      339.408       12.721      869.919
11/04/2014  17:36:00      -69.175      -13.533       -5.980       20.831       23.322       13.123      433.917      543.930      172.221        0.308        0.058       70.486        9.222        0.017      339.330       12.590      869.914
11/04/2014  17:37:00      -96.750      -39.678      -14.070       31.163       20.264       16.600      971.162      410.625      275.570        0.639        0.083      104.570       11.612        0.012      339.328       12.587      869.916
11/04/2014  17:38:00     -113.109      -18.997       -4.737       37.032       34.834       16.835     1371.373     1213.379      283.420        0.802        0.143      114.693       15.722        0.019      339.317       12.568      869.905
11/04/2014  17:39:00     -116.371      -21.968       -8.199       24.335       19.109       12.846      592.215      365.166      165.010        0.761        0.056      118.426       13.200        0.012      339.379       12.670      869.910
11/04/2014  17:40:00      -97.188       -7.852       -8.027       28.774       19.095       14.396      827.964      364.632      207.241        0.549        0.070       97.505       15.982        0.027      339.353       12.629      869.914
11/04/2014  17:41:00      -55.182      -10.929        0.248       32.692       27.055       14.890     1068.767      731.947      221.721        0.259        0.101       56.254       14.216        0.064      339.206       12.379      869.932
11/04/2014  17:42:00      -58.890       -8.352       -1.003       22.037       26.051       16.218      485.643      678.665      263.032        0.248        0.071       59.479       10.550        0.031      339.284       12.511      869.946
11/04/2014  17:43:00      -48.375      -23.885       -2.221       22.550       14.332       15.540      508.503      205.405      241.486        0.194        0.048       53.951        9.439        0.031      339.254       12.461      869.965
11/04/2014  17:44:00      -66.302       -3.888       -0.695       30.696       28.175       18.968      942.270      793.846      359.800        0.325        0.105       66.416       17.314        0.068      339.320       12.573      869.986
11/04/2014  17:45:00      -83.690       16.791       -9.963       25.375       25.745       15.364      643.865      662.797      236.057        0.446        0.077       85.358        9.244        0.012      339.435       12.766      869.995
11/04/2014  17:46:00      -80.796       -9.224       -5.659       37.144       26.844       17.399     1379.702      720.624      302.721        0.452        0.120       81.321       11.078        0.019      339.341       12.609      870.010
11/04/2014  17:47:00     -111.917       13.791       -6.980       35.916       31.180       20.098     1289.975      972.177      403.937        0.771        0.133      112.764       20.245        0.032      339.412       12.727      870.015
11/04/2014  17:48:00      -91.570      -17.736       -6.728       35.029       35.029       16.883     1227.006     1227.016      285.044        0.574        0.137       93.272        9.715        0.011      339.240       12.437      870.026
11/04/2014  17:49:00      -81.896        3.460       -3.003       52.142       33.630       21.584     2718.781     1130.999      465.874        0.552        0.216       81.969       21.977        0.072      339.185       12.346      870.022
11/04/2014  17:50:00      -49.402      -13.096       -0.634       23.242       26.608       18.573      540.173      708.004      344.947        0.210        0.080       51.109       15.642        0.094      339.103       12.207      870.036
11/04/2014  17:51:00      -53.529       -5.465        0.255       30.852       23.269       12.786      951.827      541.462      163.475        0.228        0.083       53.808        7.958        0.022      339.098       12.199      870.035
11/04/2014  17:52:00      -31.329      -18.730        9.698       27.186       28.012       14.269      739.089      784.652      203.612        0.158        0.086       36.501       13.591        0.139      338.964       11.971      870.044
11/04/2014  17:53:00      -59.681      -40.791        3.548       51.980       30.110       15.845     2701.957      906.627      251.070        0.455        0.193       72.289       18.935        0.069      338.975       11.992      870.058
11/04/2014  17:54:00      -26.721      -23.777       12.347       35.691       31.398       23.175     1273.857      985.835      537.086        0.211        0.140       35.768       16.754        0.219      338.890       11.849      870.082
11/04/2014  17:55:00      -31.164      -12.563      -10.873       27.412       14.978       15.756      751.391      224.351      248.257        0.124        0.061       33.601       11.644        0.120      339.020       12.068      870.095
11/04/2014  17:56:00      -26.793      -14.033        4.347       42.761       19.623       24.071     1828.528      385.060      579.428        0.186        0.140       30.245       12.416        0.169      338.948       11.946      870.114
11/04/2014  17:57:00      -92.761      -28.574       -3.043       34.028       32.702       17.044     1157.881     1069.452      290.508        0.597        0.126       97.062       16.916        0.030      338.940       11.932      870.123
11/04/2014  17:58:00      -97.556      -16.452       -3.166       31.090       27.169       18.682      966.561      738.139      349.017        0.593        0.103       98.933       19.096        0.037      338.937       11.928      870.139
11/04/2014  17:59:00     -112.239      -37.139       -0.920       22.525       23.255       18.113      507.367      540.793      328.089        0.768        0.069      118.224       14.723        0.016      338.968       11.979      870.149
11/04/2014  18:00:00     -117.732      -41.465        0.225       23.948       28.659       14.875      573.523      821.341      221.263        0.860        0.081      124.820       12.934        0.011      339.045       12.109      870.164
11/04/2014  18:01:00      -91.191      -52.595        1.381       32.356       28.310       22.200     1046.933      801.429      492.829        0.671        0.117      105.271       17.696        0.028      339.032       12.087      870.172
11/04/2014  18:02:00      -87.785      -36.611        0.340       33.730       28.302       12.427     1137.737      800.987      154.429        0.557        0.105       95.113       11.915        0.016      339.059       12.131      870.165
11/04/2014  18:03:00      -82.161      -50.841        6.273       44.878       32.605       21.572     2014.018     1063.094      465.364        0.646        0.177       96.619       23.983        0.062      338.978       11.997      870.164
11/04/2014  18:04:00      -97.918      -53.139       -3.276       32.898       28.067       22.701     1082.259      787.730      515.352        0.740        0.119      111.408       15.736        0.020      339.183       12.342      870.162
11/04/2014  18:05:00      -85.062      -22.098       -4.887       25.897       18.050       14.588      670.669      325.789      212.796        0.448        0.060       87.886       10.954        0.016      339.096       12.195      870.180
11/04/2014  18:06:00      -79.875      -22.286       -5.349       20.564       19.880        9.751      422.872      395.232       95.085        0.391        0.046       82.926        5.610        0.005      339.099       12.199      870.196
11/04/2014  18:07:00      -36.666      -14.618        4.293       23.996       19.698       10.792      575.819      388.002      116.473        0.133        0.054       39.473       12.111        0.094      339.032       12.087      870.237
11/04/2014  18:08:00       -8.695      -28.936       -3.304       22.686       15.288       11.084      514.639      233.722      122.855        0.090        0.044       30.214        7.636        0.064      339.115       12.225      870.264
11/04/2014  18:09:00       14.792       -3.889        3.504       14.917       12.315       12.919      222.525      151.661      166.900        0.039        0.027       15.294        9.295        0.369      338.868       11.813      870.276
11/04/2014  18:10:00       20.797       14.609        0.062       10.764       11.606        7.036      115.874      134.706       49.506        0.047        0.015       25.415        4.135        0.026      338.891       11.851      870.274
11/04/2014  18:11:00        2.905        9.949       -1.246        8.552        5.070        2.538       73.139       25.705        6.443        0.011        0.005       10.364        2.699        0.068      339.006       12.041      870.271
11/04/2014  18:12:00      -13.450      -10.944       -1.212       14.063        8.964       10.681      197.765       80.359      114.085        0.035        0.020       17.340       10.499        0.367      339.088       12.182      870.281
11/04/2014  18:13:00       20.545      -14.743       17.930       20.243       12.835       16.421      409.776      164.743      269.633        0.090        0.042       25.288       15.819        0.391      338.883       11.837      870.284
11/04/2014  18:14:00       -1.029        3.704       12.684       10.371       12.041       14.902      107.548      144.990      222.060        0.033        0.024        3.844       11.906        9.592      338.753       11.619      870.296
11/04/2014  18:15:00        1.551      -17.106        2.559        8.616        8.928        6.675       74.240       79.705       44.562        0.025        0.010       17.176        5.216        0.092      339.109       12.219      870.302
11/04/2014  18:16:00      -22.471      -11.547       -5.058        9.528        9.125        7.050       90.789       83.267       49.706        0.044        0.011       25.264        6.770        0.072      339.095       12.196      870.300
11/04/2014  18:17:00       -4.622       -7.560        0.051       10.572        4.337        3.713      111.773       18.808       13.788        0.011        0.007        8.861        4.418        0.249      339.021       12.068      870.301
11/04/2014  18:18:00        9.633       -5.722       -2.767       14.022       11.577       14.552      196.622      134.037      211.750        0.034        0.027       11.204        7.855        0.492      338.836       11.759      870.281
11/04/2014  18:19:00      -14.039       -0.934       -1.771        5.930        4.086        5.363       35.162       16.695       28.765        0.014        0.004       14.070        3.511        0.062      338.993       12.022      870.262
11/04/2014  18:20:00      -14.438        0.373       -3.350        5.683        4.966        5.579       32.296       24.657       31.127        0.015        0.004       14.443        2.761        0.037      339.008       12.046      870.232
11/04/2014  18:21:00      -21.653        4.604      -12.058        9.642       12.100        6.805       92.975      146.416       46.314        0.046        0.014       22.137        6.700        0.092      338.921       11.899      870.194
11/04/2014  18:22:00      -51.725        9.029      -11.315        8.082        9.312        7.146       65.322       86.709       51.064        0.154        0.010       52.507        2.433        0.002      339.120       12.237      870.166
11/04/2014  18:23:00      -50.932      -10.919       -9.302       10.308       11.274        5.836      106.254      127.093       34.058        0.153        0.013       52.089        3.862        0.005      339.022       12.072      870.148
11/04/2014  18:24:00      -52.541      -26.541       -1.265       13.349       10.681        8.591      178.184      114.074       73.813        0.192        0.018       58.864        7.231        0.015      338.940       11.933      870.143
11/04/2014  18:25:00      -82.582      -31.588       -9.450       11.189       11.227        7.130      125.200      126.047       50.841        0.410        0.015       88.417        4.691        0.003      338.844       11.771      870.153
11/04/2014  18:26:00     -107.320       -9.010      -14.417       17.834       13.624       13.684      318.060      185.610      187.249        0.625        0.035      107.697        7.851        0.005      338.708       11.544      870.169
11/04/2014  18:27:00      -81.741      -15.471      -10.863       32.836       22.012       13.082     1078.181      484.545      171.127        0.439        0.087       83.192       14.097        0.029      338.500       11.192      870.189
11/04/2014  18:28:00      -96.722      -21.869       -6.708       25.866       17.506       13.040      669.061      306.468      170.031        0.551        0.057       99.163       12.656        0.016      338.376       10.986      870.214
11/04/2014  18:29:00      -89.801      -27.319      -16.054       18.816       23.821       16.213      354.055      567.459      262.870        0.513        0.059       93.865        8.079        0.007      338.342       10.928      870.237
11/04/2014  18:30:00      -97.347      -22.273       -5.013       21.751       19.571       13.584      473.110      383.041      184.518        0.552        0.052       99.863       10.490        0.011      338.382       10.994      870.249
11/04/2014  18:31:00      -62.373      -35.237        3.127       35.610       24.423       15.851     1268.091      596.471      251.241        0.363        0.106       71.638       16.789        0.055      338.351       10.944      870.255
11/04/2014  18:32:00      -76.460      -34.193       -6.499       32.772       24.507       17.775     1074.026      600.572      315.952        0.452        0.100       83.757       15.668        0.035      338.353       10.946      870.273
11/04/2014  18:33:00     -126.867      -25.699       -8.129       23.510       19.135       15.629      552.723      366.159      244.271        0.899        0.058      129.444       14.610        0.013      338.415       11.050      870.269
11/04/2014  18:34:00     -115.675      -37.755       -4.548       18.578       23.372       12.490      345.144      546.248      155.997        0.794        0.052      121.681        9.072        0.006      338.439       11.091      870.276
11/04/2014  18:35:00     -134.509      -41.330       -5.275       19.429       21.973       16.918      377.472      482.813      286.232        1.049        0.057      140.715       11.398        0.007      338.476       11.154      870.261
11/04/2014  18:36:00     -119.499      -42.223       -0.265       30.855       26.011       18.853      952.037      676.597      355.428        0.902        0.099      126.739       17.517        0.019      338.493       11.181      870.244
11/04/2014  18:37:00      -55.222      -32.576        8.621       29.600       24.677       16.423      876.143      608.957      269.707        0.297        0.088       64.114        7.226        0.013      338.482       11.163      870.225
11/04/2014  18:38:00      -72.242      -42.595        5.523       31.033       16.329       17.331      963.076      266.640      300.353        0.430        0.077       83.865       18.709        0.050      338.604       11.368      870.201
11/04/2014  18:39:00      -28.147      -24.322        3.950       24.878       18.114       14.174      618.914      328.125      200.900        0.127        0.057       37.200       14.807        0.158      338.624       11.401      870.194
11/04/2014  18:40:00      -38.914      -32.124        2.437       28.759       17.332       16.118      827.085      300.382      259.803        0.197        0.069       50.460       16.934        0.113      338.709       11.545      870.185
11/04/2014  18:41:00        6.806      -17.409       11.168       17.662       12.200       12.604      311.956      148.848      158.867        0.055        0.031       18.692       11.742        0.395      338.660       11.462      870.179
11/04/2014  18:42:00      -47.755      -41.111       -1.071       21.223       22.770       13.914      450.413      518.468      193.602        0.257        0.058       63.013       11.677        0.034      338.749       11.611      870.186
11/04/2014  18:43:00        0.899       -2.539        9.538       12.300       12.999       13.010      151.280      168.980      169.251        0.029        0.024        2.693        5.575        4.285      338.563       11.299      870.192
11/04/2014  18:44:00       16.271      -50.780       -8.295       23.157       35.998       18.573      536.254     1295.845      344.964        0.254        0.109       53.323       11.789        0.049      338.856       11.792      870.208
11/04/2014  18:45:00       38.799      -79.729      -12.723       25.553       31.827       22.837      652.966     1012.930      521.525        0.511        0.109       88.668       12.441        0.020      339.228       12.417      870.225
11/04/2014  18:46:00      -13.639      -40.508       12.188       29.593       34.404       22.961      875.774     1183.624      527.226        0.228        0.129       42.742       22.101        0.267      338.966       11.976      870.223
11/04/2014  18:47:00       16.988       -5.694       20.510       20.735       30.285       16.942      429.943      917.203      287.036        0.119        0.082       17.916       11.312        0.399      338.642       11.432      870.232
11/04/2014  18:48:00       18.382       22.956       16.561       17.376       21.262       12.407      301.930      452.072      153.924        0.102        0.045       29.409       12.177        0.171      338.549       11.276      870.237
11/04/2014  18:49:00       22.946        0.437        5.454       14.158       16.984       15.456      200.454      288.458      238.898        0.064        0.036       22.950       10.992        0.229      338.418       11.056      870.247
11/04/2014  18:50:00       73.375      -44.758        4.222       21.965       27.301       15.778      482.444      745.367      248.934        0.444        0.074       85.948        6.080        0.005      338.621       11.397      870.259
11/04/2014  18:51:00       61.760      -62.570        1.083       24.103       24.141       17.419      580.931      582.793      303.417        0.460        0.073       87.916        7.426        0.007      338.760       11.631      870.277
11/04/2014  18:52:00       26.598      -32.056       12.301       23.907       16.896       13.019      571.527      285.467      169.503        0.146        0.051       41.653       11.850        0.081      338.729       11.578      870.293
11/04/2014  18:53:00      -26.712       -6.700        1.899       27.773       17.766       11.281      771.318      315.635      127.263        0.099        0.061       27.540        9.227        0.112      338.505       11.203      870.314
11/04/2014  18:54:00      -24.412      -24.027       -1.026       20.417       27.902       25.562      416.869      778.541      653.437        0.151        0.092       34.252       24.807        0.525      338.567       11.306      870.316
11/04/2014  18:55:00      -39.971       -6.212       -0.231        8.816       12.276        7.994       77.721      150.693       63.905        0.096        0.015       40.451        2.544        0.004      338.482       11.163      870.313
11/04/2014  18:56:00      -26.534       -6.806       -3.169        9.864        6.488        5.913       97.290       42.096       34.967        0.047        0.009       27.393        2.963        0.012      338.425       11.066      870.323
11/04/2014  18:57:00       -7.127       -5.940       -0.426        9.816        9.786       10.905       96.353       95.760      118.910        0.020        0.016        9.278        5.716        0.380      338.584       11.335      870.311
11/04/2014  18:58:00       21.970      -33.177        5.125       27.109       33.171       18.410      734.886     1100.313      338.943        0.189        0.109       39.792       16.523        0.172      338.653       11.450      870.312
11/04/2014  18:59:00       46.976       43.300       36.958       17.308       16.855       15.871      299.558      284.087      251.886        0.314        0.042       63.888       10.362        0.026      338.524       11.233      870.316
11/04/2014  19:00:00       63.150       32.888       19.706       18.687       30.679       25.817      349.209      941.195      666.510        0.371        0.098       71.201       16.967        0.057      338.491       11.179      870.321
11/04/2014  19:01:00       80.273       22.736       -0.004       23.703       21.264       21.084      561.835      452.155      444.537        0.421        0.073       83.431       12.905        0.024      338.626       11.405      870.336
11/04/2014  19:02:00       64.290       19.487       17.948       18.705       14.977       19.836      349.880      224.318      393.476        0.290        0.048       67.178       11.979        0.032      338.677       11.490      870.350
11/04/2014  19:03:00       72.272       27.042       12.695       25.414       14.662       15.267      645.852      214.969      233.085        0.360        0.055       77.165        5.237        0.005      338.650       11.445      870.353
11/04/2014  19:04:00       54.536       33.809       28.368       27.507       25.839       18.096      756.660      667.650      327.470        0.334        0.088       64.166       12.135        0.036      338.651       11.447      870.355
11/04/2014  19:05:00       70.232       59.434       37.204       19.316       18.379       21.461      373.118      337.776      460.590        0.551        0.059       92.005        7.509        0.007      338.736       11.590      870.365
11/04/2014  19:06:00       54.876       50.048       30.852       30.675       19.763       18.188      940.967      390.578      330.812        0.406        0.083       74.271       11.281        0.023      338.681       11.498      870.377
11/04/2014  19:07:00       52.176       20.338       19.530       27.535       16.321       17.104      758.160      266.382      292.547        0.242        0.066       56.000        9.875        0.031      338.648       11.442      870.385
11/04/2014  19:08:00       32.357       20.602       23.160       22.752       25.450       16.060      517.660      647.707      257.938        0.172        0.071       38.359       12.093        0.099      338.548       11.275      870.410
11/04/2014  19:09:00       16.355        3.806       12.379       21.253       16.011       11.403      451.709      256.345      130.039        0.064        0.042       16.792        8.523        0.258      338.534       11.250      870.441
11/04/2014  19:10:00      -10.845       -2.087        3.637       14.590       10.625        5.836      212.856      112.887       34.062        0.025        0.018       11.044        5.238        0.225      338.505       11.203      870.447
11/04/2014  19:11:00      -45.186      -14.703       -6.834       18.028        7.435        5.812      325.001       55.274       33.784        0.136        0.021       47.518        6.390        0.018      338.110       10.537      870.443
11/04/2014  19:12:00      -70.335      -22.462       -7.044       17.987       12.525       10.504      323.529      156.875      110.341        0.305        0.030       73.835        9.130        0.015      338.002       10.357      870.447
11/04/2014  19:13:00      -88.833       -6.239      -17.795       10.364       10.156        8.041      107.411      103.147       64.660        0.426        0.014       89.052        1.651        0.000      337.924       10.227      870.443
11/04/2014  19:14:00      -86.809       -5.430      -16.125       11.348        8.263        6.226      128.769       68.282       38.759        0.403        0.012       86.978        5.526        0.004      338.028       10.401      870.423
11/04/2014  19:15:00      -69.716      -16.831      -14.921        9.061       11.080        8.050       82.097      122.760       64.810        0.282        0.013       71.719        3.882        0.003      338.088       10.502      870.408
11/04/2014  19:16:00      -64.640      -17.522      -15.982       12.906        9.387        7.582      166.553       88.120       57.483        0.253        0.016       66.973        4.851        0.005      338.084       10.495      870.407
11/04/2014  19:17:00      -56.423       -6.142      -10.025       14.085       12.651        8.315      198.392      160.040       69.139        0.187        0.021       56.757        7.053        0.015      338.020       10.389      870.401
11/04/2014  19:18:00      -79.126      -18.953      -14.076       22.390        8.446        7.264      501.306       71.327       52.770        0.372        0.031       81.364        8.375        0.011      338.024       10.396      870.403
11/04/2014  19:19:00     -120.379      -17.530      -16.592       14.032       10.415        8.948      196.891      108.483       80.067        0.773        0.019      121.648        7.911        0.004      337.956       10.280      870.404
11/04/2014  19:20:00     -139.622      -23.538      -17.010       17.856       18.426       12.281      318.851      339.530      150.813        1.057        0.040      141.592        9.205        0.004      337.896       10.181      870.413
11/04/2014  19:21:00     -166.947      -13.768      -19.552       12.171       16.052       11.843      148.131      257.671      140.255        1.449        0.027      167.514        5.246        0.001      337.760        9.952      870.427
11/04/2014  19:22:00     -148.893      -11.972      -14.034       34.192       17.522       18.932     1169.120      307.028      358.434        1.217        0.092      149.374       21.428        0.021      337.636        9.744      870.439
11/04/2014  19:23:00      -97.177      -12.198       -0.417       33.573       25.163       17.537     1127.133      633.175      307.531        0.583        0.103       97.940       18.380        0.035      337.639        9.749      870.459
11/04/2014  19:24:00     -108.111      -14.512       -5.110       28.906       25.611       18.696      835.586      655.933      349.549        0.688        0.092      109.080       17.501        0.026      337.624        9.723      870.483
11/04/2014  19:25:00      -95.719      -33.810       -2.694       30.334       21.971       14.611      920.144      482.728      213.483        0.596        0.081      101.515       16.121        0.025      337.611        9.701      870.482
11/04/2014  19:26:00     -112.702      -24.372       -9.315       32.010       27.776       16.850     1024.614      771.502      283.907        0.773        0.104      115.307       16.924        0.022      337.556        9.610      870.488
11/04/2014  19:27:00     -110.838      -22.743       -2.620       40.005       28.212       22.380     1600.438      795.907      500.860        0.785        0.145      113.148       21.197        0.035      337.565        9.626      870.496
11/04/2014  19:28:00     -133.003       15.161       -8.399       53.176       38.025       25.478     2827.707     1445.908      649.138        1.146        0.246      133.864       20.815        0.024      337.655        9.776      870.495
11/04/2014  19:29:00     -172.054       36.764      -15.868       40.445       41.018       24.735     1635.829     1682.459      611.833        1.757        0.197      175.938       15.391        0.008      337.744        9.924      870.504
11/04/2014  19:30:00     -184.544       41.852      -12.447       51.111       35.879       22.163     2612.322     1287.334      491.198        2.018        0.220      189.230       13.294        0.005      337.655        9.773      870.522
11/04/2014  19:31:00     -199.071       33.397      -13.195       45.736       34.256       25.229     2091.786     1173.490      636.479        2.241        0.195      201.853       22.164        0.012      337.647        9.761      870.534
11/04/2014  19:32:00     -174.365       23.343      -17.090       48.164       37.099       24.218     2319.775     1376.333      586.490        1.776        0.214      175.921       17.890        0.010      337.616        9.709      870.536
11/04/2014  19:33:00     -190.687       18.509      -18.109       45.159       38.135       28.172     2039.314     1454.275      793.684        2.066        0.214      191.583       16.396        0.007      337.572        9.635      870.553
11/04/2014  19:34:00     -190.143       34.175      -27.817       39.531       39.096       28.417     1562.726     1528.487      807.545        2.100        0.195      193.190       24.045        0.015      337.528        9.562      870.568
11/04/2014  19:35:00     -147.113      -13.764      -18.286       43.128       45.096       29.633     1860.060     2033.665      878.104        1.347        0.239      147.755       23.488        0.025      337.482        9.487      870.575
11/04/2014  19:36:00     -143.760       13.938      -20.745       48.315       54.447       34.292     2334.311     2964.423     1175.909        1.388        0.324      144.435       22.867        0.025      337.542        9.587      870.595
11/04/2014  19:37:00     -151.200       -3.982      -14.991       47.772       50.769       31.761     2282.121     2577.538     1008.746        1.448        0.293      151.253       27.495        0.033      337.473        9.472      870.593
11/04/2014  19:38:00     -175.367        3.860      -19.226       44.378       36.257       31.132     1969.400     1314.540      969.226        1.769        0.213      175.410       26.671        0.023      337.558        9.612      870.602
11/04/2014  19:39:00     -193.522       19.748      -21.686       37.261       36.380       25.598     1388.355     1323.497      655.267        2.084        0.168      194.527       19.564        0.010      337.573        9.638      870.592
11/04/2014  19:40:00     -199.212       33.604      -12.902       28.547       26.565       20.742      814.915      705.699      430.228        2.147        0.098      202.027       15.768        0.006      337.526        9.559      870.581
11/04/2014  19:41:00     -181.716       -2.282      -21.881       39.418       44.018       20.364     1553.785     1937.622      414.693        1.870        0.195      181.731       14.005        0.006      337.528        9.563      870.558
11/04/2014  19:42:00     -150.264        4.076      -15.775       59.181       43.988       29.588     3502.416     1934.901      875.425        1.458        0.316      150.320       27.245        0.033      337.516        9.542      870.543
11/04/2014  19:43:00     -172.117       22.582      -18.221       42.919       38.077       26.210     1842.037     1449.880      686.988        1.722        0.199      173.593       18.480        0.011      337.495        9.507      870.515
11/04/2014  19:44:00     -170.612       21.821      -24.211       41.831       41.294       22.360     1749.849     1705.224      499.979        1.706        0.198      172.002       14.950        0.008      337.481        9.483      870.504
11/04/2014  19:45:00     -170.744       24.750      -18.999       50.260       35.864       23.491     2526.105     1286.243      551.849        1.724        0.218      172.528       19.738        0.013      337.450        9.433      870.494
11/04/2014  19:46:00     -190.397       32.299      -16.948       38.072       28.813       21.095     1449.461      830.184      444.999        2.015        0.136      193.117       16.281        0.007      337.557        9.611      870.490
11/04/2014  19:47:00     -187.392       19.595      -18.408       27.755       28.430       19.626      770.333      808.286      385.164        1.890        0.098      188.413       11.044        0.003      337.556        9.610      870.488
11/04/2014  19:48:00     -177.018       17.647      -22.825       31.236       27.702       15.756      975.718      767.408      248.242        1.708        0.100      177.895       13.108        0.005      337.494        9.506      870.494
11/04/2014  19:49:00     -189.464       -0.691      -19.255       28.550       35.230       19.489      815.094     1241.184      379.839        1.935        0.122      189.465       15.840        0.007      337.436        9.408      870.491
11/04/2014  19:50:00     -173.941       20.402      -18.626       41.606       38.620       25.259     1731.074     1491.474      638.037        1.744        0.193      175.134       17.098        0.010      337.387        9.327      870.491
11/04/2014  19:51:00     -208.801       20.563      -24.527       33.186       38.212       23.240     1101.329     1460.151      540.107        2.386        0.155      209.811       19.650        0.009      337.442        9.418      870.482
11/04/2014  19:52:00     -229.628       24.052      -27.399       23.671       23.195       18.273      560.313      537.985      333.887        2.774        0.072      230.884       15.340        0.004      337.477        9.473      870.487
11/04/2014  19:53:00     -232.537        4.666      -24.798       44.451       32.510       25.516     1975.905     1056.897      651.048        2.920        0.184      232.584       27.691        0.014      337.426        9.388      870.484
11/04/2014  19:54:00     -193.546       32.067      -18.461       34.827       34.621       20.798     1212.946     1198.594      432.542        2.084        0.142      196.184       16.564        0.007      337.432        9.401      870.504
11/04/2014  19:55:00     -214.991       29.626      -28.633       31.411       34.390       22.635      986.622     1182.662      512.330        2.530        0.134      217.023       17.736        0.007      337.502        9.516      870.526
11/04/2014  19:56:00     -181.321       34.682      -16.295       42.896       28.059       24.159     1840.032      787.307      583.635        1.878        0.161      184.608       22.109        0.014      337.503        9.518      870.546
11/04/2014  19:57:00     -225.456       40.779      -18.327       58.081       27.723       19.797     3373.404      768.577      391.902        2.868        0.227      229.115       15.763        0.005      337.629        9.727      870.567
11/04/2014  19:58:00     -215.757       46.882      -29.922       40.483       33.157       22.041     1638.863     1099.374      485.823        2.643        0.161      220.791       16.611        0.006      337.601        9.683      870.578
11/04/2014  19:59:00     -135.369       14.409       -7.055       70.431       57.210       28.322     4960.569     3272.952      802.151        1.381        0.452      136.134       27.638        0.041      337.662        9.786      870.608
11/04/2014  20:00:00     -140.712       25.232      -19.340       71.607       40.443       26.158     5127.591     1635.676      684.265        1.413        0.372      142.957       29.108        0.041      337.685        9.826      870.625
11/04/2014  20:01:00     -161.329       -3.500      -12.120       51.831       40.010       24.771     2686.473     1600.761      613.616        1.554        0.245      161.366       24.127        0.022      337.474        9.472      870.650
11/04/2014  20:02:00     -127.482      -23.665       -8.598       44.223       37.920       22.965     1955.648     1437.947      527.401        1.040        0.196      129.660       18.894        0.021      337.457        9.442      870.675
11/04/2014  20:03:00      -68.873       -8.431      -10.460       41.030       30.722       16.205     1683.452      943.815      262.597        0.391        0.144       69.387       17.517        0.064      337.421        9.384      870.720
11/04/2014  20:04:00      -55.287       35.114      -10.247       23.754       36.852       17.788      564.231     1358.041      316.416        0.332        0.112       65.495       15.652        0.057      337.740        9.918      870.750
11/04/2014  20:05:00      -53.703       42.109       -5.010       17.512       17.988       11.749      306.659      323.562      138.035        0.273        0.038       68.244       10.313        0.023      337.847       10.098      870.777
11/04/2014  20:06:00      -45.209        4.597       -9.474       22.993       31.606       10.634      528.667      998.964      113.083        0.190        0.082       45.442       12.885        0.080      337.821       10.054      870.779
11/04/2014  20:07:00      -64.130      -15.805      -13.323       31.208       23.355       12.345      973.966      545.436      152.411        0.311        0.084       66.049       10.312        0.024      337.440        9.414      870.766
11/04/2014  20:08:00      -83.714        3.284      -13.374       16.863       15.069        8.547      284.362      227.083       73.052        0.389        0.029       83.778        7.537        0.008      337.359        9.278      870.771
11/04/2014  20:09:00      -94.826       13.801      -24.459       13.074       11.919        9.236      170.932      142.074       85.295        0.509        0.020       95.825        7.145        0.006      337.327        9.225      870.756
11/04/2014  20:10:00      -38.425        3.315      -11.685       19.842       10.563        8.358      393.693      111.568       69.851        0.110        0.029       38.568        7.682        0.040      337.763        9.957      870.740
11/04/2014  20:11:00      -36.924        2.078       -8.801        8.808        5.544        4.718       77.582       30.731       22.259        0.079        0.007       36.983        3.033        0.007      338.190       10.672      870.723
11/04/2014  20:12:00      -45.054      -16.189      -11.667        6.193       16.257        5.525       38.354      264.299       30.528        0.138        0.017       47.874        6.055        0.016      337.843       10.091      870.722
11/04/2014  20:13:00      -19.928      -28.906       -8.207       12.457       15.964        9.253      155.182      254.840       85.625        0.090        0.025       35.110        4.473        0.016      337.628        9.730      870.717
11/04/2014  20:14:00        0.621      -38.633        4.226       10.666       13.365       13.391      113.767      178.634      179.324        0.099        0.024       38.638        8.638        0.050      337.785        9.993      870.712
11/04/2014  20:15:00       21.420       12.930       12.452       17.212       26.785       13.834      296.260      717.416      191.372        0.099        0.060       25.020       11.533        0.212      337.858       10.115      870.723
11/04/2014  20:16:00       35.595        6.025       14.432       15.063       24.008       19.494      226.905      576.376      380.032        0.135        0.059       36.101        8.871        0.060      337.980       10.321      870.731
11/04/2014  20:17:00      -13.323      -19.706       -2.137       18.466       12.245        7.994      340.985      149.938       63.900        0.056        0.028       23.787        9.026        0.144      337.939       10.252      870.737
11/04/2014  20:18:00      -45.673      -30.032      -12.327       12.797        9.986        7.254      163.772       99.729       52.616        0.173        0.016       54.662        6.546        0.014      337.613        9.707      870.745
11/04/2014  20:19:00      -43.941      -18.151      -14.079       15.285       13.094       12.219      233.642      171.448      149.310        0.151        0.028       47.542        5.842        0.015      337.658        9.781      870.751
11/04/2014  20:20:00      -16.832      -26.297       -9.055       22.267        9.754        8.420      495.801       95.148       70.896        0.086        0.033       31.223        3.960        0.016      337.854       10.109      870.756
11/04/2014  20:21:00       17.499      -36.919       -1.923       15.437       15.586       10.807      238.298      242.930      116.791        0.114        0.030       40.856        6.684        0.027      338.132       10.575      870.755
11/04/2014  20:22:00       13.402       -8.042       10.322       18.439        9.685       13.486      339.997       93.809      181.866        0.048        0.031       15.629       11.938        0.583      337.885       10.162      870.751
11/04/2014  20:23:00      -56.293        1.994       -9.250       19.141       12.864        7.816      366.369      165.490       61.083        0.193        0.030       56.328        7.387        0.017      337.557        9.611      870.745
11/04/2014  20:24:00      -64.362       -8.073      -12.542       13.163       11.634        7.463      173.273      135.343       55.690        0.236        0.018       64.866        6.062        0.009      337.507        9.527      870.745
11/04/2014  20:25:00      -63.492       -6.599       -9.131       11.896       11.911        5.144      141.504      141.867       26.462        0.223        0.015       63.834        4.724        0.005      337.496        9.510      870.742
11/04/2014  20:26:00      -53.345       11.173        7.716        8.682       20.025       14.784       75.379      401.007      218.554        0.186        0.035       54.502        7.581        0.019      337.602        9.687      870.744
11/04/2014  20:27:00      -44.892       -6.287       -1.911       11.457       20.592        9.693      131.272      424.012       93.948        0.135        0.032       45.330       11.445        0.064      337.770        9.968      870.756
11/04/2014  20:28:00      -73.461      -28.502      -14.599       15.829       15.187        8.894      250.566      230.656       79.100        0.349        0.028       78.796        3.857        0.002      337.435        9.405      870.769
11/04/2014  20:29:00      -96.208      -13.436      -16.017       19.551       13.889        9.786      382.236      192.902       95.765        0.518        0.034       97.141        7.116        0.005      337.323        9.220      870.778
11/04/2014  20:30:00      -94.411       -7.131      -18.492        9.449       10.975        7.958       89.289      120.448       63.337        0.479        0.014       94.680        5.004        0.003      337.261        9.115      870.782
11/04/2014  20:31:00      -67.959      -18.661      -12.548       12.943       13.610        6.483      167.522      185.236       42.023        0.276        0.020       70.475        6.883        0.010      337.593        9.670      870.787
11/04/2014  20:32:00      -51.432      -18.645      -12.095        7.801        8.816        5.456       60.858       77.720       29.763        0.165        0.008       54.707        3.780        0.005      337.646        9.759      870.795
11/04/2014  20:33:00      -55.575      -17.483      -13.175        8.362       12.854        8.820       69.922      165.237       77.784        0.194        0.016       58.261        2.881        0.002      337.596        9.678      870.801
11/04/2014  20:34:00      -46.261      -15.786      -12.642       14.547       10.676        5.584      211.613      113.975       31.177        0.145        0.018       48.881        6.658        0.019      337.509        9.530      870.807
11/04/2014  20:35:00      -76.453      -21.064      -17.721       10.351        6.943        7.346      107.146       48.211       53.957        0.341        0.010       79.302        5.710        0.005      337.458        9.447      870.807
11/04/2014  20:36:00     -113.428      -17.963      -16.975       15.403       11.464        9.035      237.240      131.415       81.638        0.696        0.023      114.841        6.461        0.003      337.297        9.176      870.801
11/04/2014  20:37:00     -139.726      -17.391      -25.356       19.747       15.132       12.083      389.924      228.980      145.994        1.062        0.038      140.804        7.169        0.003      337.241        9.082      870.795
11/04/2014  20:38:00     -153.610      -31.620      -25.955       13.462       21.275       14.343      181.225      452.641      205.711        1.305        0.042      156.831        8.091        0.003      337.052        8.765      870.797
11/04/2014  20:39:00     -158.906      -24.610      -22.803       41.083       24.694       25.600     1687.796      609.775      655.349        1.466        0.148      160.800       24.973        0.024      336.896        8.505      870.816
11/04/2014  20:40:00     -162.853      -48.318      -20.297       41.897       32.577       22.631     1755.339     1061.263      512.160        1.630        0.166      169.870       25.820        0.023      336.881        8.480      870.829
11/04/2014  20:41:00     -113.631      -16.534        0.014       40.669       32.442       23.182     1653.941     1052.491      537.422        0.821        0.162      114.828       21.470        0.035      336.859        8.442      870.854
11/04/2014  20:42:00     -137.273      -63.276       -0.004       34.412       37.588       24.520     1184.204     1412.867      601.236        1.302        0.160      151.155       21.872        0.021      336.985        8.654      870.874
11/04/2014  20:43:00     -145.741      -37.477      -15.436       27.656       24.919       15.513      764.842      620.971      240.641        1.225        0.081      150.482        7.061        0.002      336.982        8.647      870.894
11/04/2014  20:44:00     -101.530       -9.096       -5.247       31.160       25.981       17.482      970.947      675.024      305.613        0.618        0.098      101.937       17.179        0.028      336.948        8.590      870.909
11/04/2014  20:45:00     -125.581      -34.571       -3.262       26.527       20.138       14.717      703.663      405.534      216.590        0.915        0.066      130.252       14.620        0.013      336.946        8.587      870.913
11/04/2014  20:46:00     -131.607      -44.225      -11.873       31.921       26.100       18.657     1018.961      681.206      348.083        1.073        0.102      138.839       17.062        0.015      336.964        8.618      870.918
11/04/2014  20:47:00     -126.806      -11.180       -9.236       49.472       39.361       25.050     2447.522     1549.297      627.492        1.046        0.231      127.298       26.250        0.043      336.864        8.453      870.921
11/04/2014  20:48:00     -136.287      -25.669       -0.739       48.533       40.018       29.925     2355.463     1601.475      895.478        1.204        0.243      138.683       25.461        0.034      336.862        8.449      870.935
11/04/2014  20:49:00     -196.266      -24.201      -19.549       32.605       28.416       19.408     1063.102      807.443      376.671        2.087        0.112      197.752       14.546        0.005      336.887        8.490      870.954
11/04/2014  20:50:00     -131.990      -23.225       -8.923       35.563       30.327       20.099     1264.750      919.712      403.969        1.031        0.129      134.018       15.530        0.013      336.945        8.586      870.963
11/04/2014  20:51:00     -158.628      -35.051      -12.956       38.839       24.492       21.185     1508.431      599.867      448.797        1.456        0.128      162.454       19.932        0.015      336.943        8.583      870.975
11/04/2014  20:52:00     -135.568      -27.279      -10.935       36.152       26.010       21.099     1306.950      676.525      445.165        1.084        0.121      138.285       16.984        0.015      336.855        8.436      871.002
11/04/2014  20:53:00     -181.766       -3.354      -19.672       39.642       27.909       16.910     1571.522      778.913      285.959        1.804        0.132      181.797        7.818        0.002      336.905        8.517      871.033
11/04/2014  20:54:00     -200.440        9.916      -19.916       44.809       26.168       26.082     2007.828      684.752      680.258        2.202        0.169      200.685       22.232        0.012      336.938        8.572      871.057
11/04/2014  20:55:00     -148.428      -29.182       -8.931       63.171       45.328       24.506     3990.566     2054.650      600.550        1.480        0.332      151.270       31.512        0.043      336.938        8.575      871.076
11/04/2014  20:56:00     -152.908      -19.387      -17.472       48.948       38.364       26.306     2395.907     1471.835      691.985        1.431        0.228      154.132       30.653        0.040      336.865        8.453      871.096
11/04/2014  20:57:00     -116.106       -1.391      -13.793       28.736       28.321       18.671      825.765      802.066      348.589        0.782        0.099      116.114        9.709        0.007      336.835        8.404      871.117
11/04/2014  20:58:00     -121.626       -3.019      -18.131       46.382       30.177       20.127     2151.316      910.660      405.116        0.930        0.173      121.664       21.310        0.031      336.727        8.224      871.134
11/04/2014  20:59:00      -85.002      -18.235       -6.010       51.588       36.795       20.937     2661.287     1353.858      438.339        0.602        0.223       86.936       25.157        0.084      336.703        8.183      871.138
11/04/2014  21:00:00      -81.549      -13.540        1.588       38.872       31.854       21.501     1511.026     1014.663      462.290        0.491        0.149       82.665       19.732        0.057      336.685        8.154      871.148
11/04/2014  21:01:00     -104.000        2.639      -12.431       24.648       22.539       19.679      607.515      508.011      387.246        0.624        0.075      104.033       13.162        0.016      336.738        8.245      871.165
11/04/2014  21:02:00      -76.606      -21.049      -14.976       36.645       24.980       19.326     1342.883      624.010      373.494        0.444        0.117       79.445       17.904        0.051      336.797        8.339      871.175
11/04/2014  21:03:00      -63.794        1.890       -3.089       21.178       21.569       17.705      448.490      465.210      313.453        0.265        0.061       63.822       10.963        0.030      336.798        8.342      871.175
11/04/2014  21:04:00      -28.967        0.982       -3.307       27.962       19.593       18.903      781.873      383.887      357.322        0.119        0.076       28.983       19.663        0.460      336.778        8.308      871.182
11/04/2014  21:05:00      -23.308        4.750       -7.703       20.630       10.463        8.926      425.609      109.472       79.679        0.062        0.031       23.787       10.011        0.177      336.801        8.347      871.196
11/04/2014  21:06:00      -21.838        9.254        1.629       20.902       13.379       13.864      436.901      179.010      192.212        0.069        0.040       23.718        9.059        0.146      336.817        8.376      871.208
11/04/2014  21:07:00        7.059       19.827       -7.037       10.170       13.499        9.152      103.427      182.229       83.751        0.043        0.018       21.046        8.877        0.178      336.971        8.629      871.209
11/04/2014  21:08:00       37.345       26.188       -4.999       12.230       13.087       10.974      149.578      171.258      120.426        0.127        0.022       45.612        9.915        0.047      336.827        8.390      871.223
11/04/2014  21:09:00       23.991       23.731       -4.280       13.786       10.041        7.212      190.049      100.821       52.013        0.075        0.017       33.745        4.295        0.016      336.760        8.279      871.247
11/04/2014  21:10:00        4.189       24.086       -4.323       12.460        8.768        5.263      155.255       76.870       27.702        0.044        0.013       24.447        3.752        0.024      336.983        8.650      871.250
11/04/2014  21:11:00       17.673       26.218        1.106        8.057       11.860        7.308       64.916      140.671       53.409        0.063        0.013       31.618        6.293        0.040      337.294        9.171      871.247
11/04/2014  21:12:00       -5.554       15.668        5.731       10.377       13.028        8.840      107.685      169.717       78.147        0.033        0.018       16.623        5.689        0.117      337.367        9.293      871.242
11/04/2014  21:13:00        1.710      -16.600       -3.605       13.708       14.774       12.352      187.923      218.278      152.581        0.043        0.028       16.688        9.385        0.316      337.270        9.131      871.249
11/04/2014  21:14:00      -15.700      -19.272        1.983        9.860       11.463        8.295       97.212      131.403       68.807        0.046        0.015       24.857        6.774        0.074      337.190        8.997      871.251
11/04/2014  21:15:00      -14.248      -10.368       -3.627       12.337        6.480        7.552      152.207       41.991       57.040        0.029        0.013       17.621        5.685        0.104      337.129        8.895      871.268
11/04/2014  21:16:00       -3.770      -10.640       -0.033       17.681       10.897        7.179      312.614      118.739       51.534        0.031        0.024       11.288        5.454        0.233      337.097        8.840      871.283
11/04/2014  21:17:00      -44.397       -8.536       -4.599       21.755        7.955        8.899      473.283       63.286       79.200        0.134        0.031       45.210       11.353        0.063      337.013        8.700      871.305
11/04/2014  21:18:00      -78.374        7.520       -9.557       20.422       13.903       12.473      417.044      193.296      155.565        0.353        0.038       78.734       12.351        0.025      336.947        8.589      871.312
11/04/2014  21:19:00      -70.244        1.530      -12.120       18.197        8.923       10.618      331.113       79.616      112.751        0.280        0.026       70.261        8.935        0.016      336.943        8.584      871.307
11/04/2014  21:20:00      -57.406       -8.125      -16.038        8.555        6.983        5.348       73.188       48.764       28.602        0.188        0.008       57.978        4.992        0.007      337.234        9.070      871.303
11/04/2014  21:21:00      -47.243       -7.085       -6.925        8.086        7.981        7.100       65.379       63.693       50.408        0.125        0.009       47.771        4.445        0.009      337.178        8.976      871.298
11/04/2014  21:22:00      -47.635      -14.147       -8.900       17.460       11.998        6.558      304.843      143.951       43.003        0.152        0.025       49.692        7.197        0.021      337.177        8.972      871.304
11/04/2014  21:23:00      -92.901       -2.285      -12.489       10.527       12.232       10.575      110.827      149.617      111.838        0.458        0.019       92.929        5.887        0.004      336.749        8.260      871.324
11/04/2014  21:24:00      -87.239        1.333      -17.333       13.893       14.372       10.967      193.013      206.543      120.278        0.422        0.026       87.249        7.606        0.008      336.912        8.533      871.328
11/04/2014  21:25:00      -55.758      -15.761      -10.486       18.167       17.935       14.341      330.033      321.665      205.653        0.216        0.043       57.943       11.851        0.042      336.850        8.428      871.328
11/04/2014  21:26:00      -81.236      -11.589      -16.056       23.296       15.329       11.876      542.716      234.965      141.044        0.395        0.046       82.059        5.686        0.005      336.883        8.483      871.311
11/04/2014  21:27:00      -95.825      -28.992      -11.725       24.468       14.273       10.183      598.699      203.723      103.693        0.553        0.045      100.115        8.314        0.007      336.915        8.537      871.305
11/04/2014  21:28:00     -109.649      -45.554       -9.092       20.714       20.016       14.532      429.074      400.638      211.169        0.761        0.052      118.735       10.179        0.007      336.901        8.513      871.303
11/04/2014  21:29:00      -98.205      -71.622       -3.967       30.666       27.137       23.282      940.405      736.435      542.072        0.850        0.111      121.548       16.392        0.018      336.814        8.369      871.295
11/04/2014  21:30:00     -115.113      -78.159       -6.467       35.934       42.423       22.422     1291.287     1799.720      502.738        1.150        0.180      139.140       18.895        0.018      336.847        8.423      871.290
11/04/2014  21:31:00     -129.051     -108.439      -10.075       50.188       52.675       29.911     2518.803     2774.688      894.695        1.735        0.309      168.561       22.719        0.018      336.699        8.175      871.285
11/04/2014  21:32:00     -121.405     -102.237      -15.131       61.478       44.742       35.129     3779.560     2001.834     1234.055        1.622        0.351      158.719       28.508        0.032      336.579        7.974      871.288
11/04/2014  21:33:00     -149.411     -119.787      -18.718       40.031       42.688       30.905     1602.459     1822.229      955.135        2.070        0.219      191.501       20.074        0.011      336.606        8.021      871.282
11/04/2014  21:34:00     -134.233     -121.284      -12.222       50.653       49.728       25.287     2565.685     2472.878      639.449        1.928        0.284      180.909       24.241        0.018      336.613        8.031      871.280
11/04/2014  21:35:00     -149.495     -138.025      -13.789       46.100       32.046       29.296     2125.219     1026.947      858.265        2.280        0.201      203.469       24.464        0.014      336.589        7.993      871.273
11/04/2014  21:36:00     -122.031     -122.060      -14.254       52.658       59.088       34.976     2772.832     3491.412     1223.312        1.874        0.374      172.598       30.422        0.031      336.618        8.041      871.272
11/04/2014  21:37:00     -162.370      -72.918       -4.906       60.061       37.324       32.828     3607.338     1393.081     1077.699        1.889        0.304      177.991       33.149        0.035      336.618        8.040      871.269
11/04/2014  21:38:00     -143.518      -92.754       -9.046       53.193       41.046       25.848     2829.517     1684.762      668.130        1.723        0.259      170.882       19.515        0.013      336.605        8.021      871.280
11/04/2014  21:39:00     -193.523      -79.997      -22.822       34.731       41.633       27.394     1206.226     1733.276      750.427        2.403        0.184      209.405       25.203        0.014      336.586        7.986      871.298
11/04/2014  21:40:00     -119.585      -97.143       -3.982       45.572       54.230       34.340     2076.850     2940.880     1179.264        1.497        0.310      154.070       22.826        0.022      336.606        8.024      871.308
11/04/2014  21:41:00      -84.338      -66.268       -3.903       60.198       47.295       36.015     3623.770     2236.778     1297.085        0.934        0.358      107.259       34.184        0.102      336.625        8.053      871.309
11/04/2014  21:42:00     -118.716      -78.743       -8.024       38.529       43.713       22.023     1484.480     1910.865      485.019        1.212        0.194      142.457       16.693        0.014      336.624        8.051      871.318
11/04/2014  21:43:00      -89.255      -39.328        4.058       40.542       34.031       24.152     1643.624     1158.101      583.317        0.646        0.169       97.536       20.076        0.042      336.552        7.931      871.317
11/04/2014  21:44:00     -101.330      -75.218       -4.871       45.846       31.375       21.982     2101.847      984.403      483.191        0.976        0.178      126.196       21.662        0.029      336.607        8.025      871.313
11/04/2014  21:45:00     -107.541      -10.709       -4.317       40.757       35.440       22.388     1661.156     1256.009      501.212        0.756        0.171      108.073       19.038        0.031      336.504        7.851      871.320
11/04/2014  21:46:00     -115.286      -17.554       -1.362       43.724       32.646       23.230     1911.751     1065.765      539.649        0.856        0.176      116.615       20.873        0.032      336.502        7.848      871.326
11/04/2014  21:47:00     -101.782      -30.562        7.745       46.358       38.018       27.164     2149.096     1445.333      737.859        0.784        0.217      106.271       27.274        0.066      336.555        7.936      871.320
11/04/2014  21:48:00     -102.574      -36.347        7.881       49.359       40.682       27.573     2436.266     1655.032      760.283        0.838        0.243      108.823       23.878        0.048      336.645        8.086      871.330
11/04/2014  21:49:00     -103.177      -35.077        0.742       47.846       38.269       19.510     2289.244     1464.493      380.628        0.800        0.207      108.976       18.096        0.028      336.651        8.097      871.335
11/04/2014  21:50:00     -124.646      -48.949       -1.668       36.702       34.392       20.932     1347.073     1182.776      438.132        1.045        0.148      133.913       15.777        0.014      336.779        8.310      871.336
11/04/2014  21:51:00     -113.846      -15.467       -2.989       31.513       27.051       18.303      993.072      731.754      335.015        0.763        0.103      114.892       14.960        0.017      336.724        8.218      871.353
11/04/2014  21:52:00      -99.281      -17.009       -5.873       32.389       23.174       18.791     1049.020      537.045      353.090        0.606        0.097      100.727       19.330        0.037      336.548        7.924      871.355
11/04/2014  21:53:00     -106.289      -10.879      -10.840       24.238       14.167       13.029      587.457      200.702      169.759        0.625        0.048      106.844       12.362        0.013      336.494        7.833      871.347
11/04/2014  21:54:00     -117.972      -18.197      -13.931       30.364       15.895       14.507      921.945      252.658      210.453        0.791        0.069      119.367       15.306        0.016      336.542        7.914      871.360
11/04/2014  21:55:00     -106.846      -14.816       -9.586       24.019       22.634       16.234      576.916      512.304      263.534        0.654        0.068      107.868       13.151        0.015      336.603        8.015      871.367
11/04/2014  21:56:00     -119.414      -10.670       -7.686       21.149       14.463       13.010      447.297      209.178      169.250        0.763        0.041      119.889       10.829        0.008      336.626        8.054      871.368
11/04/2014  21:57:00     -135.791       -4.839      -11.626       12.886       16.178       11.790      166.058      261.723      139.014        0.958        0.028      135.877        6.665        0.002      336.683        8.151      871.364
11/04/2014  21:58:00     -140.501       -6.152      -17.255       14.937       15.469       13.058      223.123      239.301      170.502        1.035        0.032      140.636        6.668        0.002      336.587        7.990      871.372
11/04/2014  21:59:00     -115.505       -2.317      -10.908       35.149       18.751       16.183     1235.474      351.607      261.898        0.766        0.092      115.528       17.264        0.022      336.458        7.774      871.377
11/04/2014  22:00:00     -164.925        6.955      -23.930       40.640       25.207       18.856     1651.580      635.402      355.565        1.523        0.132      165.072       16.738        0.010      336.384        7.648      871.371
11/04/2014  22:01:00     -188.159       24.185      -23.034       29.301       27.199       19.032      858.558      739.790      362.218        1.924        0.098      189.707       11.458        0.004      336.276        7.468      871.383
11/04/2014  22:02:00     -188.104       46.140      -14.298       37.410       25.184       20.453     1399.508      634.216      418.339        2.008        0.123      193.680       17.059        0.008      336.461        7.777      871.400
11/04/2014  22:03:00     -173.240       16.007      -15.206       51.498       35.339       19.090     2651.995     1248.827      364.439        1.738        0.213      173.978       10.425        0.004      336.459        7.774      871.416
11/04/2014  22:04:00     -127.273       11.606       -4.396       71.484       35.866       24.088     5110.016     1286.337      580.243        1.166        0.349      127.802       30.341        0.056      336.436        7.736      871.432
11/04/2014  22:05:00     -145.558       -0.852       -7.405       33.999       33.488       24.524     1155.955     1121.416      601.418        1.206        0.144      145.560       20.604        0.020      336.394        7.664      871.453
11/04/2014  22:06:00     -136.054        9.745       -5.144       39.086       40.054       23.631     1527.690     1604.316      558.415        1.116        0.185      136.402       15.698        0.013      336.410        7.694      871.470
11/04/2014  22:07:00     -125.019      -33.999      -14.942       30.466       33.633       15.240      928.171     1131.172      232.254        0.965        0.115      129.559       10.238        0.006      336.385        7.650      871.468
11/04/2014  22:08:00     -114.600      -20.751       -7.121       40.427       34.043       19.942     1634.339     1158.953      397.677        0.840        0.160      116.464       20.696        0.032      336.316        7.535      871.452
11/04/2014  22:09:00     -122.196      -24.070       -2.505       45.069       30.207       23.218     2031.183      912.485      539.098        0.950        0.174      124.544       19.987        0.026      336.370        7.626      871.441
11/04/2014  22:10:00     -113.762      -17.474       -1.747       48.012       30.479       20.140     2305.117      928.940      405.617        0.844        0.182      115.096       21.639        0.035      336.368        7.624      871.435
11/04/2014  22:11:00     -107.400      -25.992        1.223       53.220       26.875       18.306     2832.336      722.240      335.126        0.805        0.194      110.501       25.811        0.055      336.329        7.556      871.445
11/04/2014  22:12:00      -89.121      -20.927       -1.610       33.218       26.006       20.693     1103.416      676.310      428.186        0.530        0.110       91.545       18.975        0.043      336.277        7.472      871.441
11/04/2014  22:13:00     -108.689       -2.893       -6.677       30.838       22.889       19.961      950.953      523.913      398.459        0.687        0.094      108.727       18.520        0.029      336.285        7.484      871.442
11/04/2014  22:14:00      -84.977       -9.490       -3.234       26.340       24.295       17.265      693.775      590.241      298.070        0.445        0.079       85.506       14.954        0.031      336.323        7.547      871.441
11/04/2014  22:15:00      -90.178       18.537       -5.552       40.822       30.641       22.866     1666.433      938.876      522.872        0.582        0.156       92.063       17.508        0.036      336.437        7.738      871.447
11/04/2014  22:16:00     -116.427       45.949       -3.746       39.575       26.918       28.262     1566.152      724.569      798.735        0.938        0.154      125.166       21.659        0.030      336.479        7.809      871.447
11/04/2014  22:17:00      -60.135       32.824       -4.208       40.108       21.261       22.347     1608.682      452.035      499.408        0.364        0.128       68.510       14.245        0.043      336.439        7.742      871.438
11/04/2014  22:18:00       -9.812       18.120      -13.956       20.359       17.178       21.183      414.490      295.084      448.703        0.089        0.058       20.606       16.027        0.605      336.413        7.697      871.436
11/04/2014  22:19:00       10.048       -0.176        2.867        8.419       16.284        9.046       70.881      265.174       81.830        0.026        0.021       10.049        3.204        0.102      336.417        7.705      871.436
11/04/2014  22:20:00      -16.240        9.391       -8.592       16.746       19.838        6.876      280.431      393.552       47.275        0.057        0.036       18.759        4.363        0.054      336.592        7.997      871.442
11/04/2014  22:21:00      -21.229      -11.517       -6.953       11.565        6.483        7.153      133.742       42.026       51.164        0.043        0.011       24.152        5.434        0.051      336.669        8.127      871.452
11/04/2014  22:22:00      -11.938       -9.509        4.571        7.738        9.656        6.583       59.875       93.231       43.336        0.023        0.010       15.263        2.491        0.027      336.628        8.060      871.469
11/04/2014  22:23:00      -16.269        6.270       -4.328        7.857        8.094        6.225       61.730       65.516       38.753        0.024        0.008       17.436        3.009        0.030      336.571        7.962      871.475
11/04/2014  22:24:00       -1.578       21.339       -1.549       12.620        7.149        3.325      159.252       51.111       11.058        0.034        0.011       21.397        2.241        0.011      336.488        7.822      871.471
11/04/2014  22:25:00        6.744       19.110       -3.898        5.069       15.052        4.157       25.696      226.564       17.277        0.035        0.013       20.265        4.880        0.058      336.393        7.664      871.466
11/04/2014  22:26:00       -9.989       -8.129       -0.872        7.466        7.287        4.926       55.734       53.095       24.268        0.015        0.007       12.879        3.236        0.063      336.405        7.685      871.457
11/04/2014  22:27:00      -27.446      -21.437       -7.704       12.585        9.994        6.536      158.376       99.888       42.721        0.079        0.015       34.826        6.121        0.031      336.382        7.645      871.452
11/04/2014  22:28:00      -34.517      -23.994       -7.028       12.598        7.878        8.297      158.720       62.064       68.846        0.105        0.014       42.037        5.121        0.015      336.354        7.598      871.437
11/04/2014  22:29:00      -30.537      -19.067        2.471       17.076       10.168       11.354      291.607      103.380      128.924        0.091        0.026       36.001       10.259        0.081      336.192        7.328      871.427
11/04/2014  22:30:00      -49.620      -22.169      -10.303        7.750        6.985        6.700       60.069       48.788       44.896        0.161        0.008       54.347        3.086        0.003      336.208        7.355      871.418
11/04/2014  22:31:00      -76.843      -34.815      -10.314       12.911        9.295        6.129      166.697       86.398       37.564        0.376        0.015       84.362        5.261        0.004      336.223        7.379      871.406
11/04/2014  22:32:00     -102.744      -40.561      -10.387       11.711       12.603        9.560      137.146      158.846       91.399        0.635        0.019      110.461        7.589        0.005      336.237        7.405      871.398
11/04/2014  22:33:00     -106.315      -39.157       -7.530       10.089       13.297        9.256      101.787      176.810       85.664        0.663        0.018      113.296        4.207        0.001      336.084        7.147      871.394
11/04/2014  22:34:00     -112.191      -43.585      -14.879       10.421       12.330        7.348      108.587      152.038       53.990        0.751        0.016      120.360        3.031        0.001      336.060        7.108      871.399
11/04/2014  22:35:00     -105.725      -44.181       -8.800       28.719       16.682       15.752      824.807      278.279      248.132        0.728        0.068      114.585        4.856        0.002      336.081        7.144      871.394
11/04/2014  22:36:00     -106.826      -64.301        0.892       47.063       23.952       21.454     2214.946      573.688      460.286        0.940        0.162      124.685       24.760        0.039      336.047        7.086      871.388
11/04/2014  22:37:00     -120.201      -64.596       -4.849       33.726       38.265       21.011     1137.424     1464.237      441.466        1.084        0.152      136.458       20.969        0.024      336.083        7.145      871.380
11/04/2014  22:38:00     -113.200      -56.838        1.490       58.618       36.436       25.138     3436.051     1327.609      631.939        1.072        0.270      126.668       26.847        0.045      336.076        7.135      871.372
11/04/2014  22:39:00      -88.013      -56.170        4.109       51.575       31.471       27.415     2659.981      990.438      751.584        0.766        0.220      104.410       27.021        0.067      336.079        7.138      871.362
11/04/2014  22:40:00      -94.256      -66.305        3.601       46.289       40.042       20.545     2142.676     1603.344      422.090        0.873        0.208      115.241       17.792        0.024      336.063        7.113      871.365
11/04/2014  22:41:00     -105.985      -60.476        1.890       39.349       31.942       20.549     1548.350     1020.274      422.254        0.894        0.150      122.025       19.034        0.024      336.060        7.107      871.373
11/04/2014  22:42:00     -121.670      -65.402       -2.916       36.588       32.093       25.653     1338.649     1029.946      658.081        1.106        0.151      138.134       22.465        0.026      336.044        7.081      871.377
11/04/2014  22:43:00     -130.930      -72.159       -3.422       33.021       20.118       16.326     1090.390      404.749      266.554        1.206        0.088      149.497       12.529        0.007      336.018        7.038      871.381
11/04/2014  22:44:00     -101.657      -59.823       -7.908       28.711       27.852       18.527      824.310      775.726      343.243        0.796        0.097      117.953       13.164        0.012      336.005        7.017      871.389
11/04/2014  22:45:00     -106.401      -47.128       -3.613       22.774       24.250       17.558      518.657      588.044      308.268        0.748        0.071      116.371       14.382        0.015      335.961        6.943      871.397
11/04/2014  22:46:00     -106.360      -50.250        4.251       27.664       28.837       17.669      765.278      831.557      312.191        0.788        0.095      117.633       15.200        0.017      335.963        6.946      871.404
11/04/2014  22:47:00     -131.497      -54.491       -4.928       20.663       21.680       13.631      426.966      470.003      185.807        1.068        0.054      142.340       12.228        0.007      336.012        7.026      871.415
11/04/2014  22:48:00     -119.256      -44.821       -8.543       21.865       28.837       15.723      478.074      831.596      247.228        0.893        0.078      127.400       11.477        0.008      335.983        6.978      871.415
11/04/2014  22:49:00     -112.375      -35.225       -8.239       36.253       26.600       21.456     1314.288      707.576      460.355        0.821        0.124      117.766       22.874        0.038      335.962        6.946      871.409
11/04/2014  22:50:00     -142.861      -46.092       -9.934       28.067       22.590       17.529      787.748      510.316      307.270        1.212        0.080      150.113       16.208        0.012      335.927        6.885      871.412
11/04/2014  22:51:00     -125.930      -37.987       -7.070       30.802       27.435       16.305      948.733      752.682      265.853        0.966        0.098      131.535       16.101        0.015      335.903        6.846      871.423
11/04/2014  22:52:00     -119.519      -46.023      -11.235       19.391       17.649       11.385      376.018      311.470      129.619        0.867        0.041      128.074        8.409        0.004      335.825        6.718      871.439
11/04/2014  22:53:00      -79.918      -30.173       -5.063       19.753       19.253       15.004      390.197      370.675      225.118        0.415        0.049       85.425       11.563        0.018      335.812        6.696      871.445
11/04/2014  22:54:00     -107.868      -42.425      -16.426       29.676       17.261       13.030      880.664      297.955      169.772        0.753        0.067      115.911        6.396        0.003      335.784        6.649      871.451
11/04/2014  22:55:00      -78.807      -58.591       -6.615       34.630       18.421       16.644     1199.268      339.318      277.029        0.575        0.091       98.201       18.174        0.034      335.720        6.542      871.454
11/04/2014  22:56:00      -27.322      -25.641       13.973       42.635       30.318       25.727     1817.724      919.176      661.867        0.250        0.170       37.469       25.155        0.451      335.749        6.590      871.444
11/04/2014  22:57:00      -40.010      -39.190       -0.125       37.899       28.674       25.775     1436.311      822.220      664.354        0.303        0.146       56.006       21.125        0.142      335.769        6.623      871.419
11/04/2014  22:58:00      -58.907      -45.355      -10.976       45.257       27.284       23.586     2048.207      744.412      556.276        0.450        0.167       74.345       26.922        0.131      335.791        6.661      871.376
11/04/2014  22:59:00     -101.918      -52.611       -9.509       17.495       21.066       15.554      306.089      443.784      241.942        0.712        0.050      114.696        8.793        0.006      335.741        6.576      871.336
11/04/2014  23:00:00     -119.383      -34.667      -12.354       15.944       10.402        9.900      254.223      108.209       98.018        0.803        0.023      124.314        3.504        0.001      335.768        6.624      871.307
11/04/2014  23:01:00     -113.823      -38.707      -12.975       13.601       14.194        8.092      184.974      201.479       65.475        0.754        0.023      120.224        6.751        0.003      335.795        6.665      871.287
11/04/2014  23:02:00     -100.122      -43.972      -12.202       10.974       17.269        7.797      120.439      298.205       60.801        0.629        0.024      109.352        4.434        0.002      335.829        6.726      871.270
11/04/2014  23:03:00      -94.444      -52.011      -13.709        9.302       10.432        8.065       86.526      108.836       65.050        0.604        0.013      107.819        5.053        0.002      335.804        6.682      871.254
11/04/2014  23:04:00     -118.863      -46.096      -17.248        8.257        8.878        7.477       68.182       78.827       55.899        0.838        0.010      127.488        4.615        0.001      335.817        6.703      871.256
11/04/2014  23:05:00     -134.214      -37.533      -19.449       10.076       10.549        8.540      101.521      111.288       72.931        1.004        0.014      139.363        2.309        0.000      335.826        6.719      871.249
11/04/2014  23:06:00     -143.910      -49.746      -16.051       11.149        8.525       10.025      124.299       72.669      100.493        1.187        0.015      152.265        1.280        0.000      335.851        6.760      871.236
11/04/2014  23:07:00     -129.120      -62.310      -23.116       11.762       14.768       11.268      138.344      218.100      126.969        1.079        0.024      143.369        3.314        0.001      335.887        6.820      871.232
11/04/2014  23:08:00     -123.536      -76.258      -17.897       20.293       16.885       17.980      411.826      285.095      323.292        1.121        0.051      145.177       14.220        0.010      335.810        6.692      871.229
11/04/2014  23:09:00      -88.722      -60.479      -17.457       23.635       20.471       16.238      558.602      419.081      263.667        0.654        0.062      107.375       11.876        0.012      335.743        6.581      871.235
11/04/2014  23:10:00      -95.926      -55.903      -17.999       32.188       20.661       21.176     1036.095      426.896      448.419        0.728        0.096      111.027       15.613        0.020      335.657        6.437      871.243
11/04/2014  23:11:00     -103.196      -32.941      -11.913       44.288       24.819       20.600     1961.443      615.979      424.360        0.744        0.150      108.326       18.349        0.029      335.652        6.428      871.252
11/04/2014  23:12:00     -107.486      -37.344       -8.873       33.327       31.853       21.283     1110.676     1014.645      452.976        0.780        0.129      113.789       17.966        0.025      335.634        6.400      871.258
11/04/2014  23:13:00     -107.784      -28.846       -7.917       47.806       43.141       23.071     2285.433     1861.176      532.265        0.859        0.234      111.577       25.099        0.051      335.649        6.424      871.255
11/04/2014  23:14:00      -93.685      -20.988       -6.763       53.132       29.105       25.111     2823.036      847.104      630.559        0.678        0.215       96.007       23.337        0.059      335.637        6.404      871.263
11/04/2014  23:15:00      -95.769      -39.940       -2.598       42.801       37.476       23.448     1831.941     1404.414      549.822        0.728        0.189      103.764       18.711        0.033      335.660        6.444      871.259
11/04/2014  23:16:00     -171.722      -45.808       -7.714       29.409       29.127       17.189      864.905      848.383      295.465        1.683        0.100      177.727       16.757        0.009      335.675        6.467      871.249
11/04/2014  23:17:00     -182.276      -63.143       -8.865       29.674       20.216       19.022      880.530      408.704      361.855        1.947        0.083      192.903       16.366        0.007      335.715        6.533      871.243
11/04/2014  23:18:00     -159.270      -29.176       -7.990       33.325       35.239       19.703     1110.551     1241.793      388.215        1.451        0.137      161.921       19.184        0.014      335.694        6.501      871.253
11/04/2014  23:19:00     -116.990      -41.553       -5.144       28.905       23.287       16.865      835.481      542.296      284.441        0.855        0.083      124.150       18.192        0.021      335.682        6.478      871.257
11/04/2014  23:20:00      -96.756      -54.180       -3.635       25.679       15.162       16.826      659.390      229.881      283.105        0.674        0.059      110.893       15.359        0.019      335.665        6.450      871.269
11/04/2014  23:21:00      -74.364      -44.622       -1.668       39.916       23.547       20.183     1593.292      554.481      407.336        0.504        0.128       86.725       20.197        0.054      335.628        6.389      871.276
11/04/2014  23:22:00      -96.418      -69.667        1.161       35.428       21.321       17.663     1255.112      454.578      311.968        0.809        0.101      118.953       11.965        0.010      335.650        6.426      871.281
11/04/2014  23:23:00      -67.933      -34.893        1.592       34.338       26.114       20.241     1179.095      681.925      409.697        0.405        0.114       76.370       14.841        0.038      335.640        6.409      871.287
11/04/2014  23:24:00      -55.121      -47.028        1.436       35.370       21.729       20.579     1251.036      472.145      423.515        0.370        0.107       72.456       13.472        0.035      335.653        6.430      871.300
11/04/2014  23:25:00      -67.185      -53.140       -5.939       42.646       32.332       26.602     1818.670     1045.359      707.682        0.547        0.179       85.660       21.251        0.062      335.692        6.495      871.298
11/04/2014  23:26:00      -42.336      -46.072        5.703       43.932       30.921       22.281     1930.059      956.111      496.440        0.366        0.169       62.570       23.071        0.136      335.706        6.518      871.299
11/04/2014  23:27:00      -88.645      -58.180       -0.394       32.620       29.797       19.222     1064.096      887.853      369.492        0.678        0.116      106.033       17.903        0.029      335.785        6.651      871.313
11/04/2014  23:28:00      -58.323      -53.739        2.765       38.589       30.636       18.450     1489.130      938.549      340.406        0.453        0.138       79.306       20.391        0.066      335.774        6.633      871.323
11/04/2014  23:29:00      -60.819      -40.572        3.648       35.811       24.745       19.339     1282.457      612.328      374.010        0.381        0.113       73.110       16.247        0.049      335.761        6.610      871.327
11/04/2014  23:30:00      -54.291      -33.948        8.762       41.082       26.335       23.113     1687.731      693.533      534.214        0.355        0.146       64.031       24.382        0.145      335.713        6.531      871.331
11/04/2014  23:31:00      -66.707      -37.534       12.237       38.759       23.641       25.269     1502.262      558.888      638.544        0.435        0.135       76.542       23.931        0.098      335.681        6.477      871.327
11/04/2014  23:32:00      -86.817      -59.891        1.685       31.552       27.843       22.004      995.543      775.256      484.174        0.669        0.113      105.471       19.787        0.035      335.696        6.502      871.339
11/04/2014  23:33:00     -103.476      -54.656       -4.027       22.621       25.327       11.073      511.719      641.446      122.614        0.749        0.064      117.023        9.077        0.006      335.706        6.520      871.335
11/04/2014  23:34:00     -114.511      -41.955      -12.823       14.928       15.462       10.717      222.846      239.062      114.849        0.781        0.029      121.954        4.472        0.001      335.737        6.571      871.339
11/04/2014  23:35:00     -103.217      -38.177        0.014       25.523       19.409       16.227      651.440      376.713      263.300        0.670        0.065      110.051       15.708        0.020      335.727        6.556      871.341
11/04/2014  23:36:00     -103.583      -42.561        1.095       31.198       23.468       15.411      973.330      550.726      237.497        0.715        0.088      111.986       16.302        0.021      335.692        6.496      871.353
11/04/2014  23:37:00      -94.383      -43.291       -1.306       30.106       24.682       15.249      906.363      609.211      232.533        0.627        0.087      103.837       12.843        0.015      335.640        6.409      871.361
11/04/2014  23:38:00     -106.389      -34.120       -0.173       34.431       21.612       17.471     1185.509      467.099      305.230        0.722        0.098      111.727       16.950        0.023      335.586        6.319      871.374
11/04/2014  23:39:00     -110.574      -48.411       -0.732       35.769       20.491       17.165     1279.450      419.867      294.631        0.828        0.100      120.707       17.368        0.021      335.587        6.320      871.389
11/04/2014  23:40:00     -111.499      -28.166       -6.433       25.762       18.831       14.977      663.681      354.605      224.298        0.725        0.062      115.002       11.999        0.011      335.633        6.398      871.423
11/04/2014  23:41:00     -102.178      -27.433        2.744       24.813       18.207       13.751      615.671      331.496      189.094        0.617        0.057      105.796       11.376        0.012      335.638        6.407      871.451
11/04/2014  23:42:00      -85.790      -31.069       -2.099       33.541       13.834       16.222     1124.985      191.369      263.161        0.495        0.079       91.242       18.197        0.040      335.667        6.455      871.462
11/04/2014  23:43:00      -60.293      -15.312        4.456       35.275       23.347       17.479     1244.330      545.089      305.503        0.299        0.105       62.207       17.727        0.081      335.618        6.373      871.471
11/04/2014  23:44:00      -79.048      -15.367       -2.412       21.408       17.786       12.563      458.320      316.328      157.835        0.371        0.047       80.528        9.895        0.015      335.629        6.390      871.475
11/04/2014  23:45:00      -98.480      -12.219       -5.896       21.577       12.261       11.027      465.546      150.328      121.586        0.531        0.037       99.235       12.716        0.016      335.649        6.424      871.484
11/04/2014  23:46:00     -107.956       -9.006      -10.566       21.802       14.886       11.084      475.315      221.608      122.851        0.633        0.041      108.331        8.505        0.006      335.606        6.352      871.493
11/04/2014  23:47:00     -124.727       -9.670      -12.856       14.312       14.937       11.213      204.842      223.106      125.726        0.818        0.028      125.101        5.911        0.002      335.596        6.334      871.501
11/04/2014  23:48:00     -104.641      -15.575      -12.485       24.376       19.670       15.763      594.186      386.901      248.469        0.629        0.061      105.794       10.406        0.010      335.499        6.173      871.500
11/04/2014  23:49:00      -34.744      -20.469        4.430       18.010       20.000       14.176      324.365      400.004      200.949        0.129        0.046       40.325       12.291        0.093      335.495        6.166      871.495
11/04/2014  23:50:00      -63.662       -7.530      -12.695       10.150       11.872        7.933      103.014      140.943       62.939        0.229        0.015       64.106        5.024        0.006      335.504        6.182      871.490
11/04/2014  23:51:00      -57.864      -26.828       -9.342       13.839       14.011       13.112      191.517      196.296      171.924        0.236        0.028       63.780        6.040        0.009      335.480        6.142      871.491
11/04/2014  23:52:00      -52.218      -29.223      -12.487       14.800       15.455       10.181      219.029      238.869      103.658        0.215        0.028       59.839        9.492        0.025      335.432        6.061      871.503
11/04/2014  23:53:00      -57.285      -24.148      -14.892       10.497       10.625        7.043      110.194      112.897       49.604        0.218        0.014       62.167        5.533        0.008      335.422        6.045      871.508
11/04/2014  23:54:00      -53.402      -17.494       -1.463       14.903       11.040       11.558      222.107      121.885      133.593        0.182        0.024       56.194        9.705        0.030      335.369        5.957      871.508
11/04/2014  23:55:00      -76.180      -19.436      -13.258        8.594       11.086        8.153       73.862      122.910       66.468        0.331        0.013       78.620        7.127        0.008      335.345        5.916      871.506
11/04/2014  23:56:00      -67.064      -18.284      -11.525        9.724       10.501        6.974       94.566      110.275       48.634        0.261        0.013       69.511        5.362        0.006      335.365        5.950      871.509
11/04/2014  23:57:00      -61.296      -21.275      -15.408        9.559       12.007        8.052       91.383      144.156       64.842        0.237        0.015       64.884        4.865        0.006      335.354        5.931      871.513
11/04/2014  23:58:00      -76.608      -20.051      -14.972        9.083       11.730        7.483       82.503      137.588       55.994        0.339        0.014       79.188        7.248        0.008      335.333        5.896      871.525
11/04/2014  23:59:00      -72.121      -20.855      -16.189       10.199       15.436       10.201      104.028      238.265      104.055        0.317        0.022       75.076        8.366        0.012      335.288        5.820      871.527
